<?xml version="1.0" encoding="UTF-8"?>
<gpx version="1.1" creator="https://www.youtrack.es" xsi:schemaLocation="http://www.topografix.com/GPX/1/1 http://www.topografix.com/GPX/1/1/gpx.xsd http://www.garmin.com/xmlschemas/GpxExtensions/v3 http://www.garmin.com/xmlschemas/GpxExtensionsv3.xsd http://www.garmin.com/xmlschemas/TrackPointExtension/v1 http://www.garmin.com/xmlschemas/TrackPointExtensionv1.xsd" xmlns:gpxtpx="http://www.garmin.com/xmlschemas/TrackPointExtension/v1" xmlns:gpxx="http://www.garmin.com/xmlschemas/GpxExtensions/v3" xmlns:xsi="http://www.w3.org/2001/XMLSchema-instance">
  <metadata>
    <link href="https://www.youtrack.es">
      <text>YouTrack.es</text>
    </link>
    <time>2026-05-09T01:22:36Z</time>
  </metadata>
  <trk>
    <src>https://www.youtrack.es</src>
    <link href="https://www.youtrack.es/ruta/12785-01ziga-lizaso">
      <text>YouTrack.es</text>
    </link>
    <trkseg>
      <trkpt lat="43.1187050" lon="-1.5704740">
        <ele>352.966980</ele>
        <time>2017-10-20T16:10:50.000Z</time>
      </trkpt>
      <trkpt lat="43.1186350" lon="-1.5703750">
        <ele>351.973022</ele>
        <time>2017-10-20T16:10:45.000Z</time>
      </trkpt>
      <trkpt lat="43.1185610" lon="-1.5702640">
        <ele>351.524994</ele>
        <time>2017-10-20T16:10:41.000Z</time>
      </trkpt>
      <trkpt lat="43.1184750" lon="-1.5701680">
        <ele>350.007996</ele>
        <time>2017-10-20T16:10:38.000Z</time>
      </trkpt>
      <trkpt lat="43.1183840" lon="-1.5701350">
        <ele>350.013031</ele>
        <time>2017-10-20T16:10:36.000Z</time>
      </trkpt>
      <trkpt lat="43.1182790" lon="-1.5701300">
        <ele>351.049011</ele>
        <time>2017-10-20T16:10:34.000Z</time>
      </trkpt>
      <trkpt lat="43.1181530" lon="-1.5701330">
        <ele>351.036987</ele>
        <time>2017-10-20T16:10:32.000Z</time>
      </trkpt>
      <trkpt lat="43.1180070" lon="-1.5701440">
        <ele>351.520020</ele>
        <time>2017-10-20T16:10:30.000Z</time>
      </trkpt>
      <trkpt lat="43.1178550" lon="-1.5701460">
        <ele>351.592010</ele>
        <time>2017-10-20T16:10:28.000Z</time>
      </trkpt>
      <trkpt lat="43.1176950" lon="-1.5701440">
        <ele>350.548004</ele>
        <time>2017-10-20T16:10:26.000Z</time>
      </trkpt>
      <trkpt lat="43.1175310" lon="-1.5701520">
        <ele>351.934998</ele>
        <time>2017-10-20T16:10:24.000Z</time>
      </trkpt>
      <trkpt lat="43.1173650" lon="-1.5702070">
        <ele>351.954010</ele>
        <time>2017-10-20T16:10:22.000Z</time>
      </trkpt>
      <trkpt lat="43.1172770" lon="-1.5702410">
        <ele>351.991974</ele>
        <time>2017-10-20T16:10:21.000Z</time>
      </trkpt>
      <trkpt lat="43.1171870" lon="-1.5702870">
        <ele>351.958008</ele>
        <time>2017-10-20T16:10:20.000Z</time>
      </trkpt>
      <trkpt lat="43.1170970" lon="-1.5703470">
        <ele>351.980011</ele>
        <time>2017-10-20T16:10:19.000Z</time>
      </trkpt>
      <trkpt lat="43.1170050" lon="-1.5704100">
        <ele>351.908020</ele>
        <time>2017-10-20T16:10:18.000Z</time>
      </trkpt>
      <trkpt lat="43.1169100" lon="-1.5704720">
        <ele>351.926025</ele>
        <time>2017-10-20T16:10:17.000Z</time>
      </trkpt>
      <trkpt lat="43.1168110" lon="-1.5705270">
        <ele>352.460022</ele>
        <time>2017-10-20T16:10:16.000Z</time>
      </trkpt>
      <trkpt lat="43.1167070" lon="-1.5705680">
        <ele>352.985992</ele>
        <time>2017-10-20T16:10:15.000Z</time>
      </trkpt>
      <trkpt lat="43.1165990" lon="-1.5706010">
        <ele>353.945984</ele>
        <time>2017-10-20T16:10:14.000Z</time>
      </trkpt>
      <trkpt lat="43.1164880" lon="-1.5706320">
        <ele>354.358002</ele>
        <time>2017-10-20T16:10:13.000Z</time>
      </trkpt>
      <trkpt lat="43.1163780" lon="-1.5706690">
        <ele>355.343994</ele>
        <time>2017-10-20T16:10:12.000Z</time>
      </trkpt>
      <trkpt lat="43.1162720" lon="-1.5707180">
        <ele>356.351013</ele>
        <time>2017-10-20T16:10:11.000Z</time>
      </trkpt>
      <trkpt lat="43.1161700" lon="-1.5707780">
        <ele>357.739990</ele>
        <time>2017-10-20T16:10:10.000Z</time>
      </trkpt>
      <trkpt lat="43.1160720" lon="-1.5708460">
        <ele>359.677979</ele>
        <time>2017-10-20T16:10:09.000Z</time>
      </trkpt>
      <trkpt lat="43.1159780" lon="-1.5709190">
        <ele>359.643982</ele>
        <time>2017-10-20T16:10:08.000Z</time>
      </trkpt>
      <trkpt lat="43.1158850" lon="-1.5709880">
        <ele>360.675995</ele>
        <time>2017-10-20T16:10:07.000Z</time>
      </trkpt>
      <trkpt lat="43.1157950" lon="-1.5710550">
        <ele>361.508026</ele>
        <time>2017-10-20T16:10:06.000Z</time>
      </trkpt>
      <trkpt lat="43.1157090" lon="-1.5711180">
        <ele>362.514984</ele>
        <time>2017-10-20T16:10:05.000Z</time>
      </trkpt>
      <trkpt lat="43.1156280" lon="-1.5711760">
        <ele>364.004974</ele>
        <time>2017-10-20T16:10:04.000Z</time>
      </trkpt>
      <trkpt lat="43.1154790" lon="-1.5712570">
        <ele>365.444000</ele>
        <time>2017-10-20T16:10:02.000Z</time>
      </trkpt>
      <trkpt lat="43.1153560" lon="-1.5713520">
        <ele>366.855011</ele>
        <time>2017-10-20T16:10:00.000Z</time>
      </trkpt>
      <trkpt lat="43.1152410" lon="-1.5714250">
        <ele>367.877014</ele>
        <time>2017-10-20T16:09:58.000Z</time>
      </trkpt>
      <trkpt lat="43.1151160" lon="-1.5714710">
        <ele>368.833008</ele>
        <time>2017-10-20T16:09:56.000Z</time>
      </trkpt>
      <trkpt lat="43.1149620" lon="-1.5714850">
        <ele>369.240021</ele>
        <time>2017-10-20T16:09:54.000Z</time>
      </trkpt>
      <trkpt lat="43.1148720" lon="-1.5714700">
        <ele>369.759003</ele>
        <time>2017-10-20T16:09:53.000Z</time>
      </trkpt>
      <trkpt lat="43.1147790" lon="-1.5714510">
        <ele>370.757019</ele>
        <time>2017-10-20T16:09:52.000Z</time>
      </trkpt>
      <trkpt lat="43.1146860" lon="-1.5714280">
        <ele>371.692993</ele>
        <time>2017-10-20T16:09:51.000Z</time>
      </trkpt>
      <trkpt lat="43.1145920" lon="-1.5714090">
        <ele>372.184998</ele>
        <time>2017-10-20T16:09:50.000Z</time>
      </trkpt>
      <trkpt lat="43.1145000" lon="-1.5714090">
        <ele>373.108002</ele>
        <time>2017-10-20T16:09:49.000Z</time>
      </trkpt>
      <trkpt lat="43.1143250" lon="-1.5714600">
        <ele>375.514008</ele>
        <time>2017-10-20T16:09:47.000Z</time>
      </trkpt>
      <trkpt lat="43.1141740" lon="-1.5715300">
        <ele>377.485992</ele>
        <time>2017-10-20T16:09:45.000Z</time>
      </trkpt>
      <trkpt lat="43.1140540" lon="-1.5715890">
        <ele>379.334991</ele>
        <time>2017-10-20T16:09:43.000Z</time>
      </trkpt>
      <trkpt lat="43.1139050" lon="-1.5716050">
        <ele>380.382996</ele>
        <time>2017-10-20T16:09:39.000Z</time>
      </trkpt>
      <trkpt lat="43.1138330" lon="-1.5715920">
        <ele>381.335022</ele>
        <time>2017-10-20T16:08:39.000Z</time>
      </trkpt>
      <trkpt lat="43.1137300" lon="-1.5715900">
        <ele>381.371002</ele>
        <time>2017-10-20T16:08:33.000Z</time>
      </trkpt>
      <trkpt lat="43.1136350" lon="-1.5715690">
        <ele>380.347992</ele>
        <time>2017-10-20T16:08:29.000Z</time>
      </trkpt>
      <trkpt lat="43.1135450" lon="-1.5715560">
        <ele>380.316986</ele>
        <time>2017-10-20T16:08:26.000Z</time>
      </trkpt>
      <trkpt lat="43.1134420" lon="-1.5715520">
        <ele>380.834991</ele>
        <time>2017-10-20T16:08:23.000Z</time>
      </trkpt>
      <trkpt lat="43.1133310" lon="-1.5715640">
        <ele>379.881012</ele>
        <time>2017-10-20T16:08:19.000Z</time>
      </trkpt>
      <trkpt lat="43.1132370" lon="-1.5715600">
        <ele>381.322998</ele>
        <time>2017-10-20T16:08:16.000Z</time>
      </trkpt>
      <trkpt lat="43.1131360" lon="-1.5715410">
        <ele>381.708008</ele>
        <time>2017-10-20T16:08:13.000Z</time>
      </trkpt>
      <trkpt lat="43.1130280" lon="-1.5715140">
        <ele>380.311005</ele>
        <time>2017-10-20T16:08:10.000Z</time>
      </trkpt>
      <trkpt lat="43.1129140" lon="-1.5714900">
        <ele>379.864990</ele>
        <time>2017-10-20T16:08:07.000Z</time>
      </trkpt>
      <trkpt lat="43.1127860" lon="-1.5714580">
        <ele>381.315002</ele>
        <time>2017-10-20T16:08:04.000Z</time>
      </trkpt>
      <trkpt lat="43.1126520" lon="-1.5714240">
        <ele>380.396027</ele>
        <time>2017-10-20T16:08:01.000Z</time>
      </trkpt>
      <trkpt lat="43.1125200" lon="-1.5713870">
        <ele>380.317993</ele>
        <time>2017-10-20T16:07:58.000Z</time>
      </trkpt>
      <trkpt lat="43.1124310" lon="-1.5713820">
        <ele>380.354004</ele>
        <time>2017-10-20T16:07:56.000Z</time>
      </trkpt>
      <trkpt lat="43.1123340" lon="-1.5713860">
        <ele>379.841003</ele>
        <time>2017-10-20T16:07:54.000Z</time>
      </trkpt>
      <trkpt lat="43.1122330" lon="-1.5714150">
        <ele>380.339996</ele>
        <time>2017-10-20T16:07:52.000Z</time>
      </trkpt>
      <trkpt lat="43.1121350" lon="-1.5714530">
        <ele>380.317993</ele>
        <time>2017-10-20T16:07:50.000Z</time>
      </trkpt>
      <trkpt lat="43.1120350" lon="-1.5714910">
        <ele>380.373993</ele>
        <time>2017-10-20T16:07:48.000Z</time>
      </trkpt>
      <trkpt lat="43.1119380" lon="-1.5715410">
        <ele>380.376007</ele>
        <time>2017-10-20T16:07:46.000Z</time>
      </trkpt>
      <trkpt lat="43.1118370" lon="-1.5715850">
        <ele>380.307983</ele>
        <time>2017-10-20T16:07:44.000Z</time>
      </trkpt>
      <trkpt lat="43.1117400" lon="-1.5716300">
        <ele>380.816010</ele>
        <time>2017-10-20T16:07:42.000Z</time>
      </trkpt>
      <trkpt lat="43.1116440" lon="-1.5716740">
        <ele>380.888000</ele>
        <time>2017-10-20T16:07:40.000Z</time>
      </trkpt>
      <trkpt lat="43.1115130" lon="-1.5717290">
        <ele>380.846008</ele>
        <time>2017-10-20T16:07:37.000Z</time>
      </trkpt>
      <trkpt lat="43.1114020" lon="-1.5717610">
        <ele>380.386017</ele>
        <time>2017-10-20T16:07:34.000Z</time>
      </trkpt>
      <trkpt lat="43.1113020" lon="-1.5717450">
        <ele>379.877991</ele>
        <time>2017-10-20T16:07:31.000Z</time>
      </trkpt>
      <trkpt lat="43.1112050" lon="-1.5717030">
        <ele>379.334015</ele>
        <time>2017-10-20T16:07:29.000Z</time>
      </trkpt>
      <trkpt lat="43.1110940" lon="-1.5716710">
        <ele>378.990997</ele>
        <time>2017-10-20T16:07:27.000Z</time>
      </trkpt>
      <trkpt lat="43.1109920" lon="-1.5716260">
        <ele>377.980011</ele>
        <time>2017-10-20T16:07:25.000Z</time>
      </trkpt>
      <trkpt lat="43.1108990" lon="-1.5715760">
        <ele>377.458008</ele>
        <time>2017-10-20T16:07:23.000Z</time>
      </trkpt>
      <trkpt lat="43.1108030" lon="-1.5715360">
        <ele>376.963989</ele>
        <time>2017-10-20T16:07:21.000Z</time>
      </trkpt>
      <trkpt lat="43.1107010" lon="-1.5715000">
        <ele>376.955994</ele>
        <time>2017-10-20T16:07:19.000Z</time>
      </trkpt>
      <trkpt lat="43.1105830" lon="-1.5714770">
        <ele>376.908020</ele>
        <time>2017-10-20T16:07:17.000Z</time>
      </trkpt>
      <trkpt lat="43.1104620" lon="-1.5714480">
        <ele>376.914001</ele>
        <time>2017-10-20T16:07:15.000Z</time>
      </trkpt>
      <trkpt lat="43.1103360" lon="-1.5714180">
        <ele>376.921997</ele>
        <time>2017-10-20T16:07:13.000Z</time>
      </trkpt>
      <trkpt lat="43.1102140" lon="-1.5714060">
        <ele>376.441986</ele>
        <time>2017-10-20T16:07:11.000Z</time>
      </trkpt>
      <trkpt lat="43.1100880" lon="-1.5714300">
        <ele>376.420013</ele>
        <time>2017-10-20T16:07:09.000Z</time>
      </trkpt>
      <trkpt lat="43.1099630" lon="-1.5714730">
        <ele>376.492004</ele>
        <time>2017-10-20T16:07:07.000Z</time>
      </trkpt>
      <trkpt lat="43.1098560" lon="-1.5715250">
        <ele>376.937988</ele>
        <time>2017-10-20T16:07:05.000Z</time>
      </trkpt>
      <trkpt lat="43.1097470" lon="-1.5715830">
        <ele>376.934998</ele>
        <time>2017-10-20T16:07:03.000Z</time>
      </trkpt>
      <trkpt lat="43.1096370" lon="-1.5716300">
        <ele>376.423981</ele>
        <time>2017-10-20T16:07:01.000Z</time>
      </trkpt>
      <trkpt lat="43.1095280" lon="-1.5717010">
        <ele>376.472015</ele>
        <time>2017-10-20T16:06:59.000Z</time>
      </trkpt>
      <trkpt lat="43.1094400" lon="-1.5718300">
        <ele>376.048004</ele>
        <time>2017-10-20T16:06:57.000Z</time>
      </trkpt>
      <trkpt lat="43.1093640" lon="-1.5720140">
        <ele>376.089996</ele>
        <time>2017-10-20T16:06:55.000Z</time>
      </trkpt>
      <trkpt lat="43.1093100" lon="-1.5722100">
        <ele>376.007996</ele>
        <time>2017-10-20T16:06:53.000Z</time>
      </trkpt>
      <trkpt lat="43.1093190" lon="-1.5724090">
        <ele>376.416992</ele>
        <time>2017-10-20T16:06:51.000Z</time>
      </trkpt>
      <trkpt lat="43.1093850" lon="-1.5725400">
        <ele>376.942993</ele>
        <time>2017-10-20T16:06:49.000Z</time>
      </trkpt>
      <trkpt lat="43.1094800" lon="-1.5726220">
        <ele>377.481995</ele>
        <time>2017-10-20T16:06:47.000Z</time>
      </trkpt>
      <trkpt lat="43.1095770" lon="-1.5726870">
        <ele>377.997986</ele>
        <time>2017-10-20T16:06:45.000Z</time>
      </trkpt>
      <trkpt lat="43.1096780" lon="-1.5727480">
        <ele>378.419983</ele>
        <time>2017-10-20T16:06:43.000Z</time>
      </trkpt>
      <trkpt lat="43.1097820" lon="-1.5728080">
        <ele>379.346008</ele>
        <time>2017-10-20T16:06:41.000Z</time>
      </trkpt>
      <trkpt lat="43.1098750" lon="-1.5728860">
        <ele>379.382996</ele>
        <time>2017-10-20T16:06:39.000Z</time>
      </trkpt>
      <trkpt lat="43.1099760" lon="-1.5729440">
        <ele>379.311981</ele>
        <time>2017-10-20T16:06:37.000Z</time>
      </trkpt>
      <trkpt lat="43.1100850" lon="-1.5729930">
        <ele>379.380005</ele>
        <time>2017-10-20T16:06:35.000Z</time>
      </trkpt>
      <trkpt lat="43.1102020" lon="-1.5730600">
        <ele>379.356018</ele>
        <time>2017-10-20T16:06:33.000Z</time>
      </trkpt>
      <trkpt lat="43.1103190" lon="-1.5731130">
        <ele>379.398010</ele>
        <time>2017-10-20T16:06:31.000Z</time>
      </trkpt>
      <trkpt lat="43.1104500" lon="-1.5731540">
        <ele>379.308014</ele>
        <time>2017-10-20T16:06:29.000Z</time>
      </trkpt>
      <trkpt lat="43.1105850" lon="-1.5731850">
        <ele>379.813995</ele>
        <time>2017-10-20T16:06:27.000Z</time>
      </trkpt>
      <trkpt lat="43.1107260" lon="-1.5732140">
        <ele>379.868011</ele>
        <time>2017-10-20T16:06:25.000Z</time>
      </trkpt>
      <trkpt lat="43.1108650" lon="-1.5732690">
        <ele>379.864990</ele>
        <time>2017-10-20T16:06:23.000Z</time>
      </trkpt>
      <trkpt lat="43.1109910" lon="-1.5733520">
        <ele>380.354004</ele>
        <time>2017-10-20T16:06:21.000Z</time>
      </trkpt>
      <trkpt lat="43.1111060" lon="-1.5734450">
        <ele>379.826019</ele>
        <time>2017-10-20T16:06:19.000Z</time>
      </trkpt>
      <trkpt lat="43.1112200" lon="-1.5735370">
        <ele>380.371979</ele>
        <time>2017-10-20T16:06:17.000Z</time>
      </trkpt>
      <trkpt lat="43.1113220" lon="-1.5736520">
        <ele>380.339020</ele>
        <time>2017-10-20T16:06:15.000Z</time>
      </trkpt>
      <trkpt lat="43.1114200" lon="-1.5737920">
        <ele>380.347992</ele>
        <time>2017-10-20T16:06:13.000Z</time>
      </trkpt>
      <trkpt lat="43.1115140" lon="-1.5739320">
        <ele>380.386017</ele>
        <time>2017-10-20T16:06:11.000Z</time>
      </trkpt>
      <trkpt lat="43.1115920" lon="-1.5740680">
        <ele>380.351990</ele>
        <time>2017-10-20T16:06:09.000Z</time>
      </trkpt>
      <trkpt lat="43.1116590" lon="-1.5742210">
        <ele>379.343994</ele>
        <time>2017-10-20T16:06:07.000Z</time>
      </trkpt>
      <trkpt lat="43.1117280" lon="-1.5743770">
        <ele>379.308014</ele>
        <time>2017-10-20T16:06:05.000Z</time>
      </trkpt>
      <trkpt lat="43.1118070" lon="-1.5745590">
        <ele>379.317017</ele>
        <time>2017-10-20T16:06:03.000Z</time>
      </trkpt>
      <trkpt lat="43.1118920" lon="-1.5747470">
        <ele>378.988983</ele>
        <time>2017-10-20T16:06:01.000Z</time>
      </trkpt>
      <trkpt lat="43.1119880" lon="-1.5749420">
        <ele>379.828003</ele>
        <time>2017-10-20T16:05:59.000Z</time>
      </trkpt>
      <trkpt lat="43.1120800" lon="-1.5751480">
        <ele>380.888000</ele>
        <time>2017-10-20T16:05:57.000Z</time>
      </trkpt>
      <trkpt lat="43.1121750" lon="-1.5753460">
        <ele>380.880005</ele>
        <time>2017-10-20T16:05:55.000Z</time>
      </trkpt>
      <trkpt lat="43.1122640" lon="-1.5755370">
        <ele>382.236023</ele>
        <time>2017-10-20T16:05:53.000Z</time>
      </trkpt>
      <trkpt lat="43.1123490" lon="-1.5757250">
        <ele>383.292999</ele>
        <time>2017-10-20T16:05:51.000Z</time>
      </trkpt>
      <trkpt lat="43.1124320" lon="-1.5759120">
        <ele>384.141998</ele>
        <time>2017-10-20T16:05:49.000Z</time>
      </trkpt>
      <trkpt lat="43.1125100" lon="-1.5760920">
        <ele>385.119995</ele>
        <time>2017-10-20T16:05:47.000Z</time>
      </trkpt>
      <trkpt lat="43.1125830" lon="-1.5762680">
        <ele>386.565979</ele>
        <time>2017-10-20T16:05:45.000Z</time>
      </trkpt>
      <trkpt lat="43.1126220" lon="-1.5764470">
        <ele>387.578003</ele>
        <time>2017-10-20T16:05:43.000Z</time>
      </trkpt>
      <trkpt lat="43.1126160" lon="-1.5766050">
        <ele>388.007996</ele>
        <time>2017-10-20T16:05:41.000Z</time>
      </trkpt>
      <trkpt lat="43.1125910" lon="-1.5767520">
        <ele>388.514008</ele>
        <time>2017-10-20T16:05:39.000Z</time>
      </trkpt>
      <trkpt lat="43.1125580" lon="-1.5768980">
        <ele>388.967987</ele>
        <time>2017-10-20T16:05:37.000Z</time>
      </trkpt>
      <trkpt lat="43.1125200" lon="-1.5770390">
        <ele>388.964996</ele>
        <time>2017-10-20T16:05:35.000Z</time>
      </trkpt>
      <trkpt lat="43.1124890" lon="-1.5771730">
        <ele>388.990997</ele>
        <time>2017-10-20T16:05:33.000Z</time>
      </trkpt>
      <trkpt lat="43.1124620" lon="-1.5773080">
        <ele>389.473022</ele>
        <time>2017-10-20T16:05:31.000Z</time>
      </trkpt>
      <trkpt lat="43.1124400" lon="-1.5774470">
        <ele>389.949005</ele>
        <time>2017-10-20T16:05:29.000Z</time>
      </trkpt>
      <trkpt lat="43.1123970" lon="-1.5776180">
        <ele>390.476013</ele>
        <time>2017-10-20T16:05:26.000Z</time>
      </trkpt>
      <trkpt lat="43.1123660" lon="-1.5777490">
        <ele>390.925018</ele>
        <time>2017-10-20T16:05:23.000Z</time>
      </trkpt>
      <trkpt lat="43.1123330" lon="-1.5778650">
        <ele>390.983032</ele>
        <time>2017-10-20T16:05:20.000Z</time>
      </trkpt>
      <trkpt lat="43.1122950" lon="-1.5779860">
        <ele>390.949005</ele>
        <time>2017-10-20T16:05:17.000Z</time>
      </trkpt>
      <trkpt lat="43.1122500" lon="-1.5781020">
        <ele>390.981018</ele>
        <time>2017-10-20T16:05:14.000Z</time>
      </trkpt>
      <trkpt lat="43.1121970" lon="-1.5782420">
        <ele>390.908020</ele>
        <time>2017-10-20T16:05:10.000Z</time>
      </trkpt>
      <trkpt lat="43.1121490" lon="-1.5783840">
        <ele>390.923004</ele>
        <time>2017-10-20T16:05:06.000Z</time>
      </trkpt>
      <trkpt lat="43.1120970" lon="-1.5785140">
        <ele>390.448975</ele>
        <time>2017-10-20T16:05:01.000Z</time>
      </trkpt>
      <trkpt lat="43.1120590" lon="-1.5786510">
        <ele>389.494995</ele>
        <time>2017-10-20T16:04:56.000Z</time>
      </trkpt>
      <trkpt lat="43.1120090" lon="-1.5787750">
        <ele>388.954010</ele>
        <time>2017-10-20T16:04:51.000Z</time>
      </trkpt>
      <trkpt lat="43.1119670" lon="-1.5788990">
        <ele>388.046021</ele>
        <time>2017-10-20T16:04:46.000Z</time>
      </trkpt>
      <trkpt lat="43.1119240" lon="-1.5790270">
        <ele>387.592010</ele>
        <time>2017-10-20T16:04:41.000Z</time>
      </trkpt>
      <trkpt lat="43.1118800" lon="-1.5791450">
        <ele>387.018982</ele>
        <time>2017-10-20T16:04:36.000Z</time>
      </trkpt>
      <trkpt lat="43.1118380" lon="-1.5792720">
        <ele>386.187988</ele>
        <time>2017-10-20T16:04:31.000Z</time>
      </trkpt>
      <trkpt lat="43.1117970" lon="-1.5793930">
        <ele>385.195984</ele>
        <time>2017-10-20T16:04:26.000Z</time>
      </trkpt>
      <trkpt lat="43.1117470" lon="-1.5795140">
        <ele>384.661987</ele>
        <time>2017-10-20T16:04:21.000Z</time>
      </trkpt>
      <trkpt lat="43.1117070" lon="-1.5796290">
        <ele>383.793976</ele>
        <time>2017-10-20T16:04:16.000Z</time>
      </trkpt>
      <trkpt lat="43.1116650" lon="-1.5797470">
        <ele>383.208008</ele>
        <time>2017-10-20T16:04:11.000Z</time>
      </trkpt>
      <trkpt lat="43.1116300" lon="-1.5798690">
        <ele>382.220032</ele>
        <time>2017-10-20T16:04:06.000Z</time>
      </trkpt>
      <trkpt lat="43.1115800" lon="-1.5799840">
        <ele>381.700012</ele>
        <time>2017-10-20T16:04:01.000Z</time>
      </trkpt>
      <trkpt lat="43.1115330" lon="-1.5800970">
        <ele>381.328979</ele>
        <time>2017-10-20T16:03:56.000Z</time>
      </trkpt>
      <trkpt lat="43.1114820" lon="-1.5802260">
        <ele>380.846008</ele>
        <time>2017-10-20T16:03:51.000Z</time>
      </trkpt>
      <trkpt lat="43.1114170" lon="-1.5803470">
        <ele>380.838013</ele>
        <time>2017-10-20T16:03:46.000Z</time>
      </trkpt>
      <trkpt lat="43.1113530" lon="-1.5804690">
        <ele>380.314026</ele>
        <time>2017-10-20T16:03:41.000Z</time>
      </trkpt>
      <trkpt lat="43.1112790" lon="-1.5805760">
        <ele>379.891022</ele>
        <time>2017-10-20T16:03:36.000Z</time>
      </trkpt>
      <trkpt lat="43.1112160" lon="-1.5806660">
        <ele>379.350006</ele>
        <time>2017-10-20T16:03:32.000Z</time>
      </trkpt>
      <trkpt lat="43.1111470" lon="-1.5807630">
        <ele>379.367981</ele>
        <time>2017-10-20T16:03:28.000Z</time>
      </trkpt>
      <trkpt lat="43.1110670" lon="-1.5808550">
        <ele>378.953979</ele>
        <time>2017-10-20T16:03:24.000Z</time>
      </trkpt>
      <trkpt lat="43.1109810" lon="-1.5809750">
        <ele>378.466003</ele>
        <time>2017-10-20T16:03:19.000Z</time>
      </trkpt>
      <trkpt lat="43.1109000" lon="-1.5810550">
        <ele>377.907990</ele>
        <time>2017-10-20T16:03:14.000Z</time>
      </trkpt>
      <trkpt lat="43.1108040" lon="-1.5811180">
        <ele>377.411011</ele>
        <time>2017-10-20T16:03:09.000Z</time>
      </trkpt>
      <trkpt lat="43.1107000" lon="-1.5811300">
        <ele>376.946991</ele>
        <time>2017-10-20T16:03:04.000Z</time>
      </trkpt>
      <trkpt lat="43.1105980" lon="-1.5811290">
        <ele>376.445007</ele>
        <time>2017-10-20T16:02:59.000Z</time>
      </trkpt>
      <trkpt lat="43.1104990" lon="-1.5811140">
        <ele>376.098022</ele>
        <time>2017-10-20T16:02:54.000Z</time>
      </trkpt>
      <trkpt lat="43.1103870" lon="-1.5810920">
        <ele>375.010010</ele>
        <time>2017-10-20T16:02:48.000Z</time>
      </trkpt>
      <trkpt lat="43.1102860" lon="-1.5810800">
        <ele>374.556000</ele>
        <time>2017-10-20T16:02:43.000Z</time>
      </trkpt>
      <trkpt lat="43.1101750" lon="-1.5810660">
        <ele>374.092987</ele>
        <time>2017-10-20T16:02:37.000Z</time>
      </trkpt>
      <trkpt lat="43.1100690" lon="-1.5810590">
        <ele>373.671997</ele>
        <time>2017-10-20T16:02:31.000Z</time>
      </trkpt>
      <trkpt lat="43.1099630" lon="-1.5810380">
        <ele>372.639984</ele>
        <time>2017-10-20T16:02:26.000Z</time>
      </trkpt>
      <trkpt lat="43.1098520" lon="-1.5810210">
        <ele>372.166016</ele>
        <time>2017-10-20T16:02:21.000Z</time>
      </trkpt>
      <trkpt lat="43.1097580" lon="-1.5810050">
        <ele>371.648010</ele>
        <time>2017-10-20T16:02:16.000Z</time>
      </trkpt>
      <trkpt lat="43.1096470" lon="-1.5809960">
        <ele>370.708008</ele>
        <time>2017-10-20T16:02:11.000Z</time>
      </trkpt>
      <trkpt lat="43.1095520" lon="-1.5809920">
        <ele>370.721008</ele>
        <time>2017-10-20T16:02:07.000Z</time>
      </trkpt>
      <trkpt lat="43.1094480" lon="-1.5809940">
        <ele>370.229004</ele>
        <time>2017-10-20T16:01:58.000Z</time>
      </trkpt>
      <trkpt lat="43.1093070" lon="-1.5810700">
        <ele>366.466003</ele>
        <time>2017-10-20T16:01:36.000Z</time>
      </trkpt>
      <trkpt lat="43.1092090" lon="-1.5811500">
        <ele>364.498016</ele>
        <time>2017-10-20T16:01:28.000Z</time>
      </trkpt>
      <trkpt lat="43.1090780" lon="-1.5812380">
        <ele>363.040009</ele>
        <time>2017-10-20T16:01:20.000Z</time>
      </trkpt>
      <trkpt lat="43.1089540" lon="-1.5813340">
        <ele>361.596008</ele>
        <time>2017-10-20T16:01:11.000Z</time>
      </trkpt>
      <trkpt lat="43.1088220" lon="-1.5814150">
        <ele>359.113007</ele>
        <time>2017-10-20T16:01:02.000Z</time>
      </trkpt>
      <trkpt lat="43.1086840" lon="-1.5814350">
        <ele>356.732025</ele>
        <time>2017-10-20T16:00:50.000Z</time>
      </trkpt>
      <trkpt lat="43.1085110" lon="-1.5813850">
        <ele>354.860016</ele>
        <time>2017-10-20T16:00:27.000Z</time>
      </trkpt>
      <trkpt lat="43.1083910" lon="-1.5813520">
        <ele>353.436005</ele>
        <time>2017-10-20T16:00:17.000Z</time>
      </trkpt>
      <trkpt lat="43.1083230" lon="-1.5813350">
        <ele>353.998016</ele>
        <time>2017-10-20T16:00:05.000Z</time>
      </trkpt>
      <trkpt lat="43.1082640" lon="-1.5812190">
        <ele>355.307983</ele>
        <time>2017-10-20T15:59:51.000Z</time>
      </trkpt>
      <trkpt lat="43.1081120" lon="-1.5813210">
        <ele>354.324005</ele>
        <time>2017-10-20T15:59:37.000Z</time>
      </trkpt>
      <trkpt lat="43.1080500" lon="-1.5814390">
        <ele>354.303986</ele>
        <time>2017-10-20T15:59:34.000Z</time>
      </trkpt>
      <trkpt lat="43.1080160" lon="-1.5815780">
        <ele>355.369019</ele>
        <time>2017-10-20T15:59:32.000Z</time>
      </trkpt>
      <trkpt lat="43.1079720" lon="-1.5817030">
        <ele>356.710999</ele>
        <time>2017-10-20T15:59:30.000Z</time>
      </trkpt>
      <trkpt lat="43.1079050" lon="-1.5817880">
        <ele>358.712982</ele>
        <time>2017-10-20T15:59:28.000Z</time>
      </trkpt>
      <trkpt lat="43.1077830" lon="-1.5818210">
        <ele>361.149017</ele>
        <time>2017-10-20T15:59:25.000Z</time>
      </trkpt>
      <trkpt lat="43.1076810" lon="-1.5818340">
        <ele>360.625977</ele>
        <time>2017-10-20T15:59:22.000Z</time>
      </trkpt>
      <trkpt lat="43.1075680" lon="-1.5818680">
        <ele>360.154999</ele>
        <time>2017-10-20T15:59:18.000Z</time>
      </trkpt>
      <trkpt lat="43.1074390" lon="-1.5819010">
        <ele>360.132996</ele>
        <time>2017-10-20T15:59:13.000Z</time>
      </trkpt>
      <trkpt lat="43.1073360" lon="-1.5819170">
        <ele>359.628998</ele>
        <time>2017-10-20T15:59:09.000Z</time>
      </trkpt>
      <trkpt lat="43.1072250" lon="-1.5819190">
        <ele>359.131012</ele>
        <time>2017-10-20T15:59:05.000Z</time>
      </trkpt>
      <trkpt lat="43.1071060" lon="-1.5819160">
        <ele>358.708008</ele>
        <time>2017-10-20T15:59:01.000Z</time>
      </trkpt>
      <trkpt lat="43.1070170" lon="-1.5819200">
        <ele>358.720978</ele>
        <time>2017-10-20T15:58:58.000Z</time>
      </trkpt>
      <trkpt lat="43.1069070" lon="-1.5819330">
        <ele>358.265015</ele>
        <time>2017-10-20T15:58:54.000Z</time>
      </trkpt>
      <trkpt lat="43.1067910" lon="-1.5819510">
        <ele>357.292969</ele>
        <time>2017-10-20T15:58:50.000Z</time>
      </trkpt>
      <trkpt lat="43.1066840" lon="-1.5819820">
        <ele>356.750977</ele>
        <time>2017-10-20T15:58:46.000Z</time>
      </trkpt>
      <trkpt lat="43.1065750" lon="-1.5820590">
        <ele>356.393005</ele>
        <time>2017-10-20T15:58:42.000Z</time>
      </trkpt>
      <trkpt lat="43.1065080" lon="-1.5822360">
        <ele>355.889008</ele>
        <time>2017-10-20T15:58:38.000Z</time>
      </trkpt>
      <trkpt lat="43.1064410" lon="-1.5823850">
        <ele>355.325989</ele>
        <time>2017-10-20T15:58:35.000Z</time>
      </trkpt>
      <trkpt lat="43.1064180" lon="-1.5825600">
        <ele>355.314972</ele>
        <time>2017-10-20T15:58:32.000Z</time>
      </trkpt>
      <trkpt lat="43.1064490" lon="-1.5826800">
        <ele>355.363007</ele>
        <time>2017-10-20T15:58:30.000Z</time>
      </trkpt>
      <trkpt lat="43.1065400" lon="-1.5828240">
        <ele>355.398987</ele>
        <time>2017-10-20T15:58:27.000Z</time>
      </trkpt>
      <trkpt lat="43.1066270" lon="-1.5829600">
        <ele>355.881012</ele>
        <time>2017-10-20T15:58:24.000Z</time>
      </trkpt>
      <trkpt lat="43.1067270" lon="-1.5830890">
        <ele>356.308014</ele>
        <time>2017-10-20T15:58:21.000Z</time>
      </trkpt>
      <trkpt lat="43.1068000" lon="-1.5832140">
        <ele>356.322998</ele>
        <time>2017-10-20T15:58:18.000Z</time>
      </trkpt>
      <trkpt lat="43.1068440" lon="-1.5833720">
        <ele>356.348999</ele>
        <time>2017-10-20T15:58:15.000Z</time>
      </trkpt>
      <trkpt lat="43.1068290" lon="-1.5835720">
        <ele>357.795013</ele>
        <time>2017-10-20T15:58:12.000Z</time>
      </trkpt>
      <trkpt lat="43.1068150" lon="-1.5837190">
        <ele>359.613983</ele>
        <time>2017-10-20T15:58:10.000Z</time>
      </trkpt>
      <trkpt lat="43.1068260" lon="-1.5838670">
        <ele>360.625977</ele>
        <time>2017-10-20T15:58:08.000Z</time>
      </trkpt>
      <trkpt lat="43.1068810" lon="-1.5839870">
        <ele>361.532013</ele>
        <time>2017-10-20T15:58:06.000Z</time>
      </trkpt>
      <trkpt lat="43.1069480" lon="-1.5841000">
        <ele>362.558990</ele>
        <time>2017-10-20T15:58:04.000Z</time>
      </trkpt>
      <trkpt lat="43.1070160" lon="-1.5842160">
        <ele>363.548004</ele>
        <time>2017-10-20T15:58:02.000Z</time>
      </trkpt>
      <trkpt lat="43.1071040" lon="-1.5843090">
        <ele>363.516022</ele>
        <time>2017-10-20T15:58:00.000Z</time>
      </trkpt>
      <trkpt lat="43.1071850" lon="-1.5844120">
        <ele>363.511993</ele>
        <time>2017-10-20T15:57:58.000Z</time>
      </trkpt>
      <trkpt lat="43.1072460" lon="-1.5845600">
        <ele>363.524017</ele>
        <time>2017-10-20T15:57:56.000Z</time>
      </trkpt>
      <trkpt lat="43.1072880" lon="-1.5847030">
        <ele>364.007996</ele>
        <time>2017-10-20T15:57:54.000Z</time>
      </trkpt>
      <trkpt lat="43.1073050" lon="-1.5848670">
        <ele>364.419983</ele>
        <time>2017-10-20T15:57:52.000Z</time>
      </trkpt>
      <trkpt lat="43.1073000" lon="-1.5850490">
        <ele>364.899994</ele>
        <time>2017-10-20T15:57:50.000Z</time>
      </trkpt>
      <trkpt lat="43.1072660" lon="-1.5852290">
        <ele>365.429016</ele>
        <time>2017-10-20T15:57:48.000Z</time>
      </trkpt>
      <trkpt lat="43.1072060" lon="-1.5854080">
        <ele>365.926971</ele>
        <time>2017-10-20T15:57:46.000Z</time>
      </trkpt>
      <trkpt lat="43.1071380" lon="-1.5855730">
        <ele>367.389008</ele>
        <time>2017-10-20T15:57:44.000Z</time>
      </trkpt>
      <trkpt lat="43.1070700" lon="-1.5856990">
        <ele>368.854980</ele>
        <time>2017-10-20T15:57:42.000Z</time>
      </trkpt>
      <trkpt lat="43.1069830" lon="-1.5858370">
        <ele>370.212006</ele>
        <time>2017-10-20T15:57:39.000Z</time>
      </trkpt>
      <trkpt lat="43.1069150" lon="-1.5859660">
        <ele>370.280975</ele>
        <time>2017-10-20T15:57:36.000Z</time>
      </trkpt>
      <trkpt lat="43.1068330" lon="-1.5860570">
        <ele>370.789001</ele>
        <time>2017-10-20T15:57:33.000Z</time>
      </trkpt>
      <trkpt lat="43.1067420" lon="-1.5861070">
        <ele>370.744995</ele>
        <time>2017-10-20T15:57:30.000Z</time>
      </trkpt>
      <trkpt lat="43.1066490" lon="-1.5861220">
        <ele>371.237000</ele>
        <time>2017-10-20T15:57:09.000Z</time>
      </trkpt>
      <trkpt lat="43.1065560" lon="-1.5861290">
        <ele>370.207977</ele>
        <time>2017-10-20T15:57:05.000Z</time>
      </trkpt>
      <trkpt lat="43.1064590" lon="-1.5860700">
        <ele>370.720001</ele>
        <time>2017-10-20T15:57:02.000Z</time>
      </trkpt>
      <trkpt lat="43.1063600" lon="-1.5860200">
        <ele>370.700012</ele>
        <time>2017-10-20T15:56:59.000Z</time>
      </trkpt>
      <trkpt lat="43.1062690" lon="-1.5859850">
        <ele>371.257019</ele>
        <time>2017-10-20T15:56:56.000Z</time>
      </trkpt>
      <trkpt lat="43.1061760" lon="-1.5859470">
        <ele>371.276031</ele>
        <time>2017-10-20T15:56:52.000Z</time>
      </trkpt>
      <trkpt lat="43.1060790" lon="-1.5859700">
        <ele>369.768005</ele>
        <time>2017-10-20T15:56:48.000Z</time>
      </trkpt>
      <trkpt lat="43.1059850" lon="-1.5860400">
        <ele>369.213989</ele>
        <time>2017-10-20T15:56:44.000Z</time>
      </trkpt>
      <trkpt lat="43.1058970" lon="-1.5861080">
        <ele>368.360992</ele>
        <time>2017-10-20T15:56:40.000Z</time>
      </trkpt>
      <trkpt lat="43.1058120" lon="-1.5861620">
        <ele>366.839996</ele>
        <time>2017-10-20T15:56:37.000Z</time>
      </trkpt>
      <trkpt lat="43.1057170" lon="-1.5862150">
        <ele>365.947998</ele>
        <time>2017-10-20T15:56:34.000Z</time>
      </trkpt>
      <trkpt lat="43.1056270" lon="-1.5862630">
        <ele>365.444000</ele>
        <time>2017-10-20T15:56:32.000Z</time>
      </trkpt>
      <trkpt lat="43.1055400" lon="-1.5863640">
        <ele>365.446014</ele>
        <time>2017-10-20T15:56:30.000Z</time>
      </trkpt>
      <trkpt lat="43.1054940" lon="-1.5865070">
        <ele>366.407990</ele>
        <time>2017-10-20T15:56:28.000Z</time>
      </trkpt>
      <trkpt lat="43.1054580" lon="-1.5866420">
        <ele>367.313995</ele>
        <time>2017-10-20T15:56:26.000Z</time>
      </trkpt>
      <trkpt lat="43.1054310" lon="-1.5867680">
        <ele>367.822021</ele>
        <time>2017-10-20T15:56:24.000Z</time>
      </trkpt>
      <trkpt lat="43.1054080" lon="-1.5869450">
        <ele>368.842010</ele>
        <time>2017-10-20T15:56:21.000Z</time>
      </trkpt>
      <trkpt lat="43.1053930" lon="-1.5871200">
        <ele>368.881012</ele>
        <time>2017-10-20T15:56:18.000Z</time>
      </trkpt>
      <trkpt lat="43.1053780" lon="-1.5872860">
        <ele>368.893005</ele>
        <time>2017-10-20T15:56:15.000Z</time>
      </trkpt>
      <trkpt lat="43.1053700" lon="-1.5874480">
        <ele>369.298981</ele>
        <time>2017-10-20T15:56:12.000Z</time>
      </trkpt>
      <trkpt lat="43.1053620" lon="-1.5876140">
        <ele>369.266022</ele>
        <time>2017-10-20T15:56:09.000Z</time>
      </trkpt>
      <trkpt lat="43.1053590" lon="-1.5877650">
        <ele>369.234985</ele>
        <time>2017-10-20T15:56:06.000Z</time>
      </trkpt>
      <trkpt lat="43.1053590" lon="-1.5878990">
        <ele>368.863007</ele>
        <time>2017-10-20T15:56:03.000Z</time>
      </trkpt>
      <trkpt lat="43.1053240" lon="-1.5880410">
        <ele>368.398987</ele>
        <time>2017-10-20T15:56:00.000Z</time>
      </trkpt>
      <trkpt lat="43.1052620" lon="-1.5881670">
        <ele>367.860992</ele>
        <time>2017-10-20T15:55:57.000Z</time>
      </trkpt>
      <trkpt lat="43.1051820" lon="-1.5882960">
        <ele>367.807983</ele>
        <time>2017-10-20T15:55:54.000Z</time>
      </trkpt>
      <trkpt lat="43.1051260" lon="-1.5883960">
        <ele>368.820007</ele>
        <time>2017-10-20T15:55:52.000Z</time>
      </trkpt>
      <trkpt lat="43.1050300" lon="-1.5885060">
        <ele>369.273010</ele>
        <time>2017-10-20T15:55:48.000Z</time>
      </trkpt>
      <trkpt lat="43.1049410" lon="-1.5885760">
        <ele>370.291992</ele>
        <time>2017-10-20T15:55:39.000Z</time>
      </trkpt>
      <trkpt lat="43.1048290" lon="-1.5886640">
        <ele>370.795013</ele>
        <time>2017-10-20T15:55:36.000Z</time>
      </trkpt>
      <trkpt lat="43.1047560" lon="-1.5887400">
        <ele>371.286987</ele>
        <time>2017-10-20T15:55:34.000Z</time>
      </trkpt>
      <trkpt lat="43.1046840" lon="-1.5888310">
        <ele>371.642975</ele>
        <time>2017-10-20T15:55:32.000Z</time>
      </trkpt>
      <trkpt lat="43.1046090" lon="-1.5889230">
        <ele>371.609985</ele>
        <time>2017-10-20T15:55:30.000Z</time>
      </trkpt>
      <trkpt lat="43.1045220" lon="-1.5890140">
        <ele>372.648987</ele>
        <time>2017-10-20T15:55:28.000Z</time>
      </trkpt>
      <trkpt lat="43.1044290" lon="-1.5891010">
        <ele>372.666992</ele>
        <time>2017-10-20T15:55:26.000Z</time>
      </trkpt>
      <trkpt lat="43.1043430" lon="-1.5891760">
        <ele>373.692993</ele>
        <time>2017-10-20T15:55:24.000Z</time>
      </trkpt>
      <trkpt lat="43.1042300" lon="-1.5892850">
        <ele>374.535004</ele>
        <time>2017-10-20T15:55:21.000Z</time>
      </trkpt>
      <trkpt lat="43.1041280" lon="-1.5894020">
        <ele>375.007996</ele>
        <time>2017-10-20T15:55:18.000Z</time>
      </trkpt>
      <trkpt lat="43.1039730" lon="-1.5895110">
        <ele>422.718018</ele>
        <time>2018-05-17T20:25:31.000Z</time>
      </trkpt>
      <trkpt lat="43.1026310" lon="-1.5897720">
        <ele>439.936005</ele>
        <time>2018-05-17T20:25:03.000Z</time>
      </trkpt>
      <trkpt lat="43.1017510" lon="-1.5896500">
        <ele>454.007996</ele>
        <time>2018-05-17T20:24:46.000Z</time>
      </trkpt>
      <trkpt lat="43.1012530" lon="-1.5897600">
        <ele>461.011017</ele>
        <time>2018-05-17T20:24:39.000Z</time>
      </trkpt>
      <trkpt lat="43.1000980" lon="-1.5890640">
        <ele>476.246979</ele>
        <time>2018-05-17T20:24:20.000Z</time>
      </trkpt>
      <trkpt lat="43.1000460" lon="-1.5887510">
        <ele>477.945007</ele>
        <time>2018-05-17T20:24:15.000Z</time>
      </trkpt>
      <trkpt lat="43.1005400" lon="-1.5883930">
        <ele>483.985016</ele>
        <time>2018-05-17T20:24:04.000Z</time>
      </trkpt>
      <trkpt lat="43.1006600" lon="-1.5880370">
        <ele>486.598999</ele>
        <time>2018-05-17T20:23:58.000Z</time>
      </trkpt>
      <trkpt lat="43.1006000" lon="-1.5870380">
        <ele>486.657990</ele>
        <time>2018-05-17T20:23:43.000Z</time>
      </trkpt>
      <trkpt lat="43.1003040" lon="-1.5866580">
        <ele>486.412994</ele>
        <time>2018-05-17T20:23:33.000Z</time>
      </trkpt>
      <trkpt lat="43.1001450" lon="-1.5857180">
        <ele>485.824005</ele>
        <time>2018-05-17T20:23:02.000Z</time>
      </trkpt>
      <trkpt lat="43.0985460" lon="-1.5853250">
        <ele>488.885986</ele>
        <time>2018-05-17T20:22:29.000Z</time>
      </trkpt>
      <trkpt lat="43.0974610" lon="-1.5843760">
        <ele>487.760986</ele>
        <time>2018-05-17T20:22:06.000Z</time>
      </trkpt>
      <trkpt lat="43.0970690" lon="-1.5845440">
        <ele>489.868988</ele>
        <time>2018-05-17T20:22:00.000Z</time>
      </trkpt>
      <trkpt lat="43.0967520" lon="-1.5844670">
        <ele>488.908020</ele>
        <time>2018-05-17T20:21:52.000Z</time>
      </trkpt>
      <trkpt lat="43.0969970" lon="-1.5856950">
        <ele>494.713989</ele>
        <time>2018-05-17T20:21:22.000Z</time>
      </trkpt>
      <trkpt lat="43.0965260" lon="-1.5875200">
        <ele>496.413025</ele>
        <time>2018-05-17T20:20:56.000Z</time>
      </trkpt>
      <trkpt lat="43.0962370" lon="-1.5880730">
        <ele>495.971985</ele>
        <time>2018-05-17T20:20:48.000Z</time>
      </trkpt>
      <trkpt lat="43.0962840" lon="-1.5891660">
        <ele>503.151978</ele>
        <time>2018-05-17T20:20:30.000Z</time>
      </trkpt>
      <trkpt lat="43.0956200" lon="-1.5902600">
        <ele>513.026001</ele>
        <time>2018-05-17T20:20:05.000Z</time>
      </trkpt>
      <trkpt lat="43.0950320" lon="-1.5902210">
        <ele>522.645020</ele>
        <time>2018-05-17T20:19:53.000Z</time>
      </trkpt>
      <trkpt lat="43.0948400" lon="-1.5896160">
        <ele>528.469971</ele>
        <time>2018-05-17T20:19:42.000Z</time>
      </trkpt>
      <trkpt lat="43.0951800" lon="-1.5892870">
        <ele>532.841003</ele>
        <time>2018-05-17T20:19:29.000Z</time>
      </trkpt>
      <trkpt lat="43.0955940" lon="-1.5885120">
        <ele>537.283020</ele>
        <time>2018-05-17T20:19:13.000Z</time>
      </trkpt>
      <trkpt lat="43.0955080" lon="-1.5868090">
        <ele>547.987976</ele>
        <time>2018-05-17T20:18:50.000Z</time>
      </trkpt>
      <trkpt lat="43.0952940" lon="-1.5873280">
        <ele>552.316040</ele>
        <time>2018-05-17T20:18:36.000Z</time>
      </trkpt>
      <trkpt lat="43.0947630" lon="-1.5879180">
        <ele>558.007996</ele>
        <time>2018-05-17T20:18:22.000Z</time>
      </trkpt>
      <trkpt lat="43.0935450" lon="-1.5888230">
        <ele>567.416016</ele>
        <time>2018-05-17T20:17:56.000Z</time>
      </trkpt>
      <trkpt lat="43.0933750" lon="-1.5888590">
        <ele>570.187988</ele>
        <time>2018-05-17T20:17:52.000Z</time>
      </trkpt>
      <trkpt lat="43.0932960" lon="-1.5887090">
        <ele>571.545959</ele>
        <time>2018-05-17T20:17:48.000Z</time>
      </trkpt>
      <trkpt lat="43.0940350" lon="-1.5869240">
        <ele>584.948975</ele>
        <time>2018-05-17T20:17:10.000Z</time>
      </trkpt>
      <trkpt lat="43.0940530" lon="-1.5854600">
        <ele>599.223022</ele>
        <time>2018-05-17T20:16:44.000Z</time>
      </trkpt>
      <trkpt lat="43.0933910" lon="-1.5862780">
        <ele>617.992004</ele>
        <time>2018-05-17T20:16:19.000Z</time>
      </trkpt>
      <trkpt lat="43.0928300" lon="-1.5865970">
        <ele>626.096985</ele>
        <time>2018-05-17T20:16:07.000Z</time>
      </trkpt>
      <trkpt lat="43.0921660" lon="-1.5868170">
        <ele>642.648010</ele>
        <time>2018-05-17T20:15:55.000Z</time>
      </trkpt>
      <trkpt lat="43.0912260" lon="-1.5868350">
        <ele>664.520020</ele>
        <time>2018-05-17T20:15:35.000Z</time>
      </trkpt>
      <trkpt lat="43.0926160" lon="-1.5848070">
        <ele>718.934998</ele>
        <time>2018-05-17T20:14:37.000Z</time>
      </trkpt>
      <trkpt lat="43.0927530" lon="-1.5839960">
        <ele>726.313049</ele>
        <time>2018-05-17T20:14:25.000Z</time>
      </trkpt>
      <trkpt lat="43.0926390" lon="-1.5829990">
        <ele>724.107971</ele>
        <time>2018-05-17T20:14:07.000Z</time>
      </trkpt>
      <trkpt lat="43.0923780" lon="-1.5829570">
        <ele>725.002991</ele>
        <time>2018-05-17T20:13:36.000Z</time>
      </trkpt>
      <trkpt lat="43.0920000" lon="-1.5834840">
        <ele>738.120972</ele>
        <time>2018-05-17T20:13:20.000Z</time>
      </trkpt>
      <trkpt lat="43.0900190" lon="-1.5851530">
        <ele>771.411011</ele>
        <time>2018-05-17T20:12:17.000Z</time>
      </trkpt>
      <trkpt lat="43.0897030" lon="-1.5852840">
        <ele>773.592957</ele>
        <time>2018-05-17T20:11:28.000Z</time>
      </trkpt>
      <trkpt lat="43.0894710" lon="-1.5855970">
        <ele>779.866943</ele>
        <time>2018-05-17T20:10:55.000Z</time>
      </trkpt>
      <trkpt lat="43.0892740" lon="-1.5856390">
        <ele>779.566040</ele>
        <time>2018-05-17T20:10:42.000Z</time>
      </trkpt>
      <trkpt lat="43.0885510" lon="-1.5851690">
        <ele>761.841003</ele>
        <time>2018-05-17T20:09:40.000Z</time>
      </trkpt>
      <trkpt lat="43.0882280" lon="-1.5852440">
        <ele>761.552002</ele>
        <time>2018-05-17T20:07:24.000Z</time>
      </trkpt>
      <trkpt lat="43.0880390" lon="-1.5840010">
        <ele>772.533997</ele>
        <time>2018-05-17T20:05:01.000Z</time>
      </trkpt>
      <trkpt lat="43.0873760" lon="-1.5823980">
        <ele>771.658997</ele>
        <time>2018-05-17T20:03:22.000Z</time>
      </trkpt>
      <trkpt lat="43.0863450" lon="-1.5817290">
        <ele>777.356995</ele>
        <time>2018-05-17T20:00:59.000Z</time>
      </trkpt>
      <trkpt lat="43.0856640" lon="-1.5801020">
        <ele>773.808044</ele>
        <time>2018-05-17T19:58:36.000Z</time>
      </trkpt>
      <trkpt lat="43.0849270" lon="-1.5792590">
        <ele>775.414001</ele>
        <time>2018-05-17T19:57:07.000Z</time>
      </trkpt>
      <trkpt lat="43.0842460" lon="-1.5777740">
        <ele>777.103943</ele>
        <time>2018-05-17T19:54:05.000Z</time>
      </trkpt>
      <trkpt lat="43.0839180" lon="-1.5777420">
        <ele>787.953003</ele>
        <time>2018-05-17T19:52:52.000Z</time>
      </trkpt>
      <trkpt lat="43.0835430" lon="-1.5773440">
        <ele>788.590942</ele>
        <time>2018-05-17T19:51:06.000Z</time>
      </trkpt>
      <trkpt lat="43.0828630" lon="-1.5779010">
        <ele>780.895020</ele>
        <time>2018-05-17T19:48:00.000Z</time>
      </trkpt>
      <trkpt lat="43.0836400" lon="-1.5773700">
        <ele>791.934021</ele>
        <time>2018-05-17T19:44:50.000Z</time>
      </trkpt>
      <trkpt lat="43.0831450" lon="-1.5778300">
        <ele>784.898987</ele>
        <time>2018-05-17T19:42:31.000Z</time>
      </trkpt>
      <trkpt lat="43.0823270" lon="-1.5780180">
        <ele>792.459961</ele>
        <time>2018-05-17T19:38:38.000Z</time>
      </trkpt>
      <trkpt lat="43.0821540" lon="-1.5775060">
        <ele>787.242004</ele>
        <time>2018-05-17T19:28:44.000Z</time>
      </trkpt>
      <trkpt lat="43.0816460" lon="-1.5770350">
        <ele>773.366943</ele>
        <time>2018-05-17T19:26:27.000Z</time>
      </trkpt>
      <trkpt lat="43.0814950" lon="-1.5771930">
        <ele>778.914978</ele>
        <time>2018-05-17T19:23:55.000Z</time>
      </trkpt>
      <trkpt lat="43.0817250" lon="-1.5772500">
        <ele>784.807983</ele>
        <time>2018-05-17T19:22:55.000Z</time>
      </trkpt>
      <trkpt lat="43.0814660" lon="-1.5771580">
        <ele>775.613953</ele>
        <time>2018-05-17T19:22:26.000Z</time>
      </trkpt>
      <trkpt lat="43.0812230" lon="-1.5773350">
        <ele>785.585999</ele>
        <time>2018-05-17T19:19:14.000Z</time>
      </trkpt>
      <trkpt lat="43.0808080" lon="-1.5772590">
        <ele>793.635010</ele>
        <time>2018-05-17T19:18:10.000Z</time>
      </trkpt>
      <trkpt lat="43.0799230" lon="-1.5777700">
        <ele>786.637024</ele>
        <time>2018-05-17T19:16:39.000Z</time>
      </trkpt>
      <trkpt lat="43.0793520" lon="-1.5776170">
        <ele>770.690979</ele>
        <time>2018-05-17T19:13:58.000Z</time>
      </trkpt>
      <trkpt lat="43.0791830" lon="-1.5758510">
        <ele>766.889954</ele>
        <time>2018-05-17T19:09:33.000Z</time>
      </trkpt>
      <trkpt lat="43.0792680" lon="-1.5742640">
        <ele>781.714966</ele>
        <time>2018-05-17T19:08:02.000Z</time>
      </trkpt>
      <trkpt lat="43.0791470" lon="-1.5738710">
        <ele>787.096008</ele>
        <time>2018-05-17T19:07:38.000Z</time>
      </trkpt>
      <trkpt lat="43.0791460" lon="-1.5727000">
        <ele>797.547974</ele>
        <time>2018-05-17T19:06:44.000Z</time>
      </trkpt>
      <trkpt lat="43.0794190" lon="-1.5716090">
        <ele>787.992981</ele>
        <time>2018-05-17T19:05:57.000Z</time>
      </trkpt>
      <trkpt lat="43.0798650" lon="-1.5712380">
        <ele>798.130981</ele>
        <time>2018-05-17T19:02:57.000Z</time>
      </trkpt>
      <trkpt lat="43.0799110" lon="-1.5716480">
        <ele>803.707947</ele>
        <time>2018-05-17T18:58:22.000Z</time>
      </trkpt>
      <trkpt lat="43.0799500" lon="-1.5712310">
        <ele>801.519958</ele>
        <time>2018-05-17T18:57:30.000Z</time>
      </trkpt>
      <trkpt lat="43.0798300" lon="-1.5710370">
        <ele>800.773010</ele>
        <time>2018-05-17T18:56:36.000Z</time>
      </trkpt>
      <trkpt lat="43.0799110" lon="-1.5718000">
        <ele>802.892029</ele>
        <time>2018-05-17T18:53:27.000Z</time>
      </trkpt>
      <trkpt lat="43.0797720" lon="-1.5715310">
        <ele>815.647034</ele>
        <time>2018-05-17T18:36:42.000Z</time>
      </trkpt>
      <trkpt lat="43.0798880" lon="-1.5712690">
        <ele>812.070984</ele>
        <time>2018-05-17T18:36:14.000Z</time>
      </trkpt>
      <trkpt lat="43.0797790" lon="-1.5706480">
        <ele>819.779968</ele>
        <time>2018-05-17T18:35:50.000Z</time>
      </trkpt>
      <trkpt lat="43.0794600" lon="-1.5704930">
        <ele>818.994995</ele>
        <time>2018-05-17T18:34:56.000Z</time>
      </trkpt>
      <trkpt lat="43.0789560" lon="-1.5707530">
        <ele>824.825989</ele>
        <time>2018-05-17T18:34:17.000Z</time>
      </trkpt>
      <trkpt lat="43.0779050" lon="-1.5706710">
        <ele>838.998047</ele>
        <time>2018-05-17T18:32:43.000Z</time>
      </trkpt>
      <trkpt lat="43.0778100" lon="-1.5708520">
        <ele>841.523010</ele>
        <time>2018-05-17T18:32:06.000Z</time>
      </trkpt>
      <trkpt lat="43.0775830" lon="-1.5709060">
        <ele>844.371033</ele>
        <time>2018-05-17T18:31:48.000Z</time>
      </trkpt>
      <trkpt lat="43.0769080" lon="-1.5703160">
        <ele>843.708008</ele>
        <time>2018-05-17T18:31:21.000Z</time>
      </trkpt>
      <trkpt lat="43.0764060" lon="-1.5702810">
        <ele>843.526978</ele>
        <time>2018-05-17T18:31:04.000Z</time>
      </trkpt>
      <trkpt lat="43.0763990" lon="-1.5700710">
        <ele>839.507019</ele>
        <time>2018-05-17T18:30:30.000Z</time>
      </trkpt>
      <trkpt lat="43.0763580" lon="-1.5713220">
        <ele>850.299011</ele>
        <time>2018-05-17T18:29:53.000Z</time>
      </trkpt>
      <trkpt lat="43.0760530" lon="-1.5721480">
        <ele>847.250977</ele>
        <time>2018-05-17T18:29:08.000Z</time>
      </trkpt>
      <trkpt lat="43.0757720" lon="-1.5724440">
        <ele>849.164978</ele>
        <time>2018-05-17T18:28:54.000Z</time>
      </trkpt>
      <trkpt lat="43.0748670" lon="-1.5721810">
        <ele>851.583984</ele>
        <time>2018-05-17T18:28:11.000Z</time>
      </trkpt>
      <trkpt lat="43.0744390" lon="-1.5717200">
        <ele>842.458984</ele>
        <time>2018-05-17T18:27:18.000Z</time>
      </trkpt>
      <trkpt lat="43.0734050" lon="-1.5717210">
        <ele>829.630005</ele>
        <time>2018-05-17T18:25:12.000Z</time>
      </trkpt>
      <trkpt lat="43.0732390" lon="-1.5722520">
        <ele>828.471985</ele>
        <time>2018-05-17T18:24:06.000Z</time>
      </trkpt>
      <trkpt lat="43.0735990" lon="-1.5729230">
        <ele>822.927063</ele>
        <time>2018-05-17T18:23:01.000Z</time>
      </trkpt>
      <trkpt lat="43.0735940" lon="-1.5731130">
        <ele>825.075012</ele>
        <time>2018-05-17T18:22:45.000Z</time>
      </trkpt>
      <trkpt lat="43.0734670" lon="-1.5730300">
        <ele>825.408020</ele>
        <time>2018-05-17T18:21:22.000Z</time>
      </trkpt>
      <trkpt lat="43.0736270" lon="-1.5731340">
        <ele>827.214966</ele>
        <time>2018-05-17T18:21:10.000Z</time>
      </trkpt>
      <trkpt lat="43.0735500" lon="-1.5739340">
        <ele>821.023010</ele>
        <time>2018-05-17T18:18:13.000Z</time>
      </trkpt>
      <trkpt lat="43.0736750" lon="-1.5748710">
        <ele>816.232971</ele>
        <time>2018-05-17T18:15:56.000Z</time>
      </trkpt>
      <trkpt lat="43.0740510" lon="-1.5756750">
        <ele>832.476990</ele>
        <time>2018-05-17T18:13:55.000Z</time>
      </trkpt>
      <trkpt lat="43.0740790" lon="-1.5761700">
        <ele>827.791016</ele>
        <time>2018-05-17T18:13:28.000Z</time>
      </trkpt>
      <trkpt lat="43.0737150" lon="-1.5787080">
        <ele>830.960022</ele>
        <time>2018-05-17T18:11:38.000Z</time>
      </trkpt>
      <trkpt lat="43.0732770" lon="-1.5792730">
        <ele>834.244995</ele>
        <time>2018-05-17T18:09:31.000Z</time>
      </trkpt>
      <trkpt lat="43.0721340" lon="-1.5782130">
        <ele>847.945984</ele>
        <time>2018-05-17T18:08:35.000Z</time>
      </trkpt>
      <trkpt lat="43.0726110" lon="-1.5781520">
        <ele>851.567993</ele>
        <time>2018-05-17T18:07:23.000Z</time>
      </trkpt>
      <trkpt lat="43.0726750" lon="-1.5779090">
        <ele>845.183044</ele>
        <time>2018-05-17T18:06:41.000Z</time>
      </trkpt>
      <trkpt lat="43.0725650" lon="-1.5781810">
        <ele>841.670959</ele>
        <time>2018-05-17T18:05:35.000Z</time>
      </trkpt>
      <trkpt lat="43.0726160" lon="-1.5778940">
        <ele>842.208008</ele>
        <time>2018-05-17T18:05:14.000Z</time>
      </trkpt>
      <trkpt lat="43.0723710" lon="-1.5781790">
        <ele>837.120056</ele>
        <time>2018-05-17T18:04:00.000Z</time>
      </trkpt>
      <trkpt lat="43.0726150" lon="-1.5780960">
        <ele>838.572937</ele>
        <time>2018-05-17T18:03:48.000Z</time>
      </trkpt>
      <trkpt lat="43.0725300" lon="-1.5782590">
        <ele>839.791992</ele>
        <time>2018-05-17T18:03:39.000Z</time>
      </trkpt>
      <trkpt lat="43.0721870" lon="-1.5782120">
        <ele>840.891052</ele>
        <time>2018-05-17T18:03:22.000Z</time>
      </trkpt>
      <trkpt lat="43.0723330" lon="-1.5781390">
        <ele>844.385010</ele>
        <time>2018-05-17T17:59:26.000Z</time>
      </trkpt>
      <trkpt lat="43.0721710" lon="-1.5782400">
        <ele>850.523987</ele>
        <time>2018-05-17T17:57:00.000Z</time>
      </trkpt>
      <trkpt lat="43.0720830" lon="-1.5779060">
        <ele>862.289001</ele>
        <time>2018-05-17T17:56:14.000Z</time>
      </trkpt>
      <trkpt lat="43.0717970" lon="-1.5776010">
        <ele>865.479980</ele>
        <time>2018-05-17T17:55:50.000Z</time>
      </trkpt>
      <trkpt lat="43.0707740" lon="-1.5771210">
        <ele>862.412048</ele>
        <time>2018-05-17T17:55:26.000Z</time>
      </trkpt>
      <trkpt lat="43.0682860" lon="-1.5782190">
        <ele>866.946960</ele>
        <time>2018-05-17T17:54:20.000Z</time>
      </trkpt>
      <trkpt lat="43.0679560" lon="-1.5781580">
        <ele>865.745056</ele>
        <time>2018-05-17T17:54:09.000Z</time>
      </trkpt>
      <trkpt lat="43.0668330" lon="-1.5774140">
        <ele>850.807983</ele>
        <time>2018-05-17T17:51:57.000Z</time>
      </trkpt>
      <trkpt lat="43.0661050" lon="-1.5773570">
        <ele>834.216980</ele>
        <time>2018-05-17T17:50:14.000Z</time>
      </trkpt>
      <trkpt lat="43.0649130" lon="-1.5763280">
        <ele>818.369995</ele>
        <time>2018-05-17T17:47:11.000Z</time>
      </trkpt>
      <trkpt lat="43.0648220" lon="-1.5755920">
        <ele>807.537964</ele>
        <time>2018-05-17T17:45:12.000Z</time>
      </trkpt>
      <trkpt lat="43.0647630" lon="-1.5757060">
        <ele>805.270020</ele>
        <time>2018-05-17T17:44:41.000Z</time>
      </trkpt>
      <trkpt lat="43.0647190" lon="-1.5756240">
        <ele>808.093994</ele>
        <time>2018-05-17T17:38:27.000Z</time>
      </trkpt>
      <trkpt lat="43.0648540" lon="-1.5755170">
        <ele>796.483032</ele>
        <time>2018-05-17T17:37:38.000Z</time>
      </trkpt>
      <trkpt lat="43.0646110" lon="-1.5751090">
        <ele>795.528015</ele>
        <time>2018-05-17T17:37:10.000Z</time>
      </trkpt>
      <trkpt lat="43.0641950" lon="-1.5754790">
        <ele>798.968994</ele>
        <time>2018-05-17T17:36:51.000Z</time>
      </trkpt>
      <trkpt lat="43.0629430" lon="-1.5754310">
        <ele>791.190979</ele>
        <time>2018-05-17T17:34:52.000Z</time>
      </trkpt>
      <trkpt lat="43.0625270" lon="-1.5759040">
        <ele>795.715942</ele>
        <time>2018-05-17T17:33:36.000Z</time>
      </trkpt>
      <trkpt lat="43.0621100" lon="-1.5759090">
        <ele>798.393982</ele>
        <time>2018-05-17T17:32:39.000Z</time>
      </trkpt>
      <trkpt lat="43.0614810" lon="-1.5762950">
        <ele>795.908020</ele>
        <time>2018-05-17T17:32:19.000Z</time>
      </trkpt>
      <trkpt lat="43.0617240" lon="-1.5762930">
        <ele>797.210999</ele>
        <time>2018-05-17T17:31:52.000Z</time>
      </trkpt>
      <trkpt lat="43.0625410" lon="-1.5770240">
        <ele>806.647034</ele>
        <time>2018-05-17T17:31:23.000Z</time>
      </trkpt>
      <trkpt lat="43.0629430" lon="-1.5770680">
        <ele>810.925964</ele>
        <time>2018-05-17T17:31:14.000Z</time>
      </trkpt>
      <trkpt lat="43.0631810" lon="-1.5772540">
        <ele>813.734985</ele>
        <time>2018-05-17T17:31:08.000Z</time>
      </trkpt>
      <trkpt lat="43.0634610" lon="-1.5790050">
        <ele>817.349060</ele>
        <time>2018-05-17T17:30:24.000Z</time>
      </trkpt>
      <trkpt lat="43.0632290" lon="-1.5796490">
        <ele>811.488037</ele>
        <time>2018-05-17T17:30:09.000Z</time>
      </trkpt>
      <trkpt lat="43.0632980" lon="-1.5800590">
        <ele>809.093018</ele>
        <time>2018-05-17T17:30:00.000Z</time>
      </trkpt>
      <trkpt lat="43.0637070" lon="-1.5803750">
        <ele>806.294006</ele>
        <time>2018-05-17T17:29:49.000Z</time>
      </trkpt>
      <trkpt lat="43.0642510" lon="-1.5803530">
        <ele>806.545959</ele>
        <time>2018-05-17T17:29:13.000Z</time>
      </trkpt>
      <trkpt lat="43.0649920" lon="-1.5810130">
        <ele>810.070984</ele>
        <time>2018-05-17T17:27:14.000Z</time>
      </trkpt>
      <trkpt lat="43.0653160" lon="-1.5816080">
        <ele>794.129028</ele>
        <time>2018-05-17T17:26:51.000Z</time>
      </trkpt>
      <trkpt lat="43.0652320" lon="-1.5822560">
        <ele>798.808044</ele>
        <time>2018-05-17T17:26:28.000Z</time>
      </trkpt>
      <trkpt lat="43.0657320" lon="-1.5826820">
        <ele>796.815002</ele>
        <time>2018-05-17T17:26:07.000Z</time>
      </trkpt>
      <trkpt lat="43.0663310" lon="-1.5835100">
        <ele>796.341003</ele>
        <time>2018-05-17T17:25:37.000Z</time>
      </trkpt>
      <trkpt lat="43.0669850" lon="-1.5839040">
        <ele>795.671021</ele>
        <time>2018-05-17T17:25:17.000Z</time>
      </trkpt>
      <trkpt lat="43.0673110" lon="-1.5848790">
        <ele>791.867004</ele>
        <time>2018-05-17T17:24:47.000Z</time>
      </trkpt>
      <trkpt lat="43.0682400" lon="-1.5855900">
        <ele>791.481018</ele>
        <time>2018-05-17T17:24:14.000Z</time>
      </trkpt>
      <trkpt lat="43.0682140" lon="-1.5858940">
        <ele>792.950012</ele>
        <time>2018-05-17T17:24:05.000Z</time>
      </trkpt>
      <trkpt lat="43.0678470" lon="-1.5863180">
        <ele>787.275024</ele>
        <time>2018-05-17T17:23:45.000Z</time>
      </trkpt>
      <trkpt lat="43.0676860" lon="-1.5871940">
        <ele>793.185974</ele>
        <time>2018-05-17T17:23:09.000Z</time>
      </trkpt>
      <trkpt lat="43.0670270" lon="-1.5886320">
        <ele>811.737976</ele>
        <time>2018-05-17T17:22:29.000Z</time>
      </trkpt>
      <trkpt lat="43.0661720" lon="-1.5891000">
        <ele>823.252991</ele>
        <time>2018-05-17T17:21:57.000Z</time>
      </trkpt>
      <trkpt lat="43.0658610" lon="-1.5899630">
        <ele>820.381042</ele>
        <time>2018-05-17T17:21:45.000Z</time>
      </trkpt>
      <trkpt lat="43.0653250" lon="-1.5908110">
        <ele>814.708008</ele>
        <time>2018-05-17T17:21:29.000Z</time>
      </trkpt>
      <trkpt lat="43.0651790" lon="-1.5914360">
        <ele>806.820984</ele>
        <time>2018-05-17T17:19:05.000Z</time>
      </trkpt>
      <trkpt lat="43.0649090" lon="-1.5915750">
        <ele>810.964966</ele>
        <time>2018-05-17T17:18:32.000Z</time>
      </trkpt>
      <trkpt lat="43.0648400" lon="-1.5919280">
        <ele>806.093018</ele>
        <time>2018-05-17T17:18:17.000Z</time>
      </trkpt>
      <trkpt lat="43.0645310" lon="-1.5923070">
        <ele>806.665039</ele>
        <time>2018-05-17T17:18:03.000Z</time>
      </trkpt>
      <trkpt lat="43.0645210" lon="-1.5928690">
        <ele>804.888977</ele>
        <time>2018-05-17T17:17:43.000Z</time>
      </trkpt>
      <trkpt lat="43.0638020" lon="-1.5944900">
        <ele>809.668030</ele>
        <time>2018-05-17T17:17:06.000Z</time>
      </trkpt>
      <trkpt lat="43.0634720" lon="-1.5957300">
        <ele>810.773010</ele>
        <time>2018-05-17T17:16:45.000Z</time>
      </trkpt>
      <trkpt lat="43.0633900" lon="-1.5967610">
        <ele>795.794006</ele>
        <time>2018-05-17T17:16:02.000Z</time>
      </trkpt>
      <trkpt lat="43.0629800" lon="-1.5978190">
        <ele>793.476013</ele>
        <time>2018-05-17T17:15:37.000Z</time>
      </trkpt>
      <trkpt lat="43.0630120" lon="-1.5987670">
        <ele>793.680969</ele>
        <time>2018-05-17T17:14:20.000Z</time>
      </trkpt>
      <trkpt lat="43.0634380" lon="-1.5987950">
        <ele>798.729004</ele>
        <time>2018-05-17T17:14:06.000Z</time>
      </trkpt>
      <trkpt lat="43.0635740" lon="-1.5984370">
        <ele>799.708008</ele>
        <time>2018-05-17T17:12:44.000Z</time>
      </trkpt>
      <trkpt lat="43.0634150" lon="-1.5994440">
        <ele>826.424988</ele>
        <time>2018-05-17T17:10:01.000Z</time>
      </trkpt>
      <trkpt lat="43.0630070" lon="-1.5994790">
        <ele>834.504944</ele>
        <time>2018-05-17T17:09:32.000Z</time>
      </trkpt>
      <trkpt lat="43.0624940" lon="-1.5998720">
        <ele>834.878967</ele>
        <time>2018-05-17T17:09:02.000Z</time>
      </trkpt>
      <trkpt lat="43.0616630" lon="-1.6001180">
        <ele>859.495972</ele>
        <time>2018-05-17T17:07:54.000Z</time>
      </trkpt>
      <trkpt lat="43.0616730" lon="-1.6008800">
        <ele>876.030029</ele>
        <time>2018-05-17T17:06:39.000Z</time>
      </trkpt>
      <trkpt lat="43.0622020" lon="-1.6013630">
        <ele>894.468994</ele>
        <time>2018-05-17T17:04:02.000Z</time>
      </trkpt>
      <trkpt lat="43.0622120" lon="-1.6018620">
        <ele>903.424011</ele>
        <time>2018-05-17T17:03:29.000Z</time>
      </trkpt>
      <trkpt lat="43.0617790" lon="-1.6022540">
        <ele>911.794983</ele>
        <time>2018-05-17T17:02:36.000Z</time>
      </trkpt>
      <trkpt lat="43.0616650" lon="-1.6027170">
        <ele>911.336975</ele>
        <time>2018-05-17T17:01:55.000Z</time>
      </trkpt>
      <trkpt lat="43.0608970" lon="-1.6039530">
        <ele>939.552002</ele>
        <time>2018-05-17T16:59:59.000Z</time>
      </trkpt>
      <trkpt lat="43.0605050" lon="-1.6049840">
        <ele>938.489990</ele>
        <time>2018-05-17T16:58:57.000Z</time>
      </trkpt>
      <trkpt lat="43.0597920" lon="-1.6041960">
        <ele>934.208008</ele>
        <time>2018-05-17T16:55:49.000Z</time>
      </trkpt>
      <trkpt lat="43.0593710" lon="-1.6045050">
        <ele>933.817017</ele>
        <time>2018-05-17T16:53:53.000Z</time>
      </trkpt>
      <trkpt lat="43.0596700" lon="-1.6036240">
        <ele>928.342957</ele>
        <time>2018-05-17T16:52:45.000Z</time>
      </trkpt>
      <trkpt lat="43.0594910" lon="-1.6032270">
        <ele>930.682007</ele>
        <time>2018-05-17T16:51:46.000Z</time>
      </trkpt>
      <trkpt lat="43.0593730" lon="-1.6034580">
        <ele>927.851013</ele>
        <time>2018-05-17T16:50:13.000Z</time>
      </trkpt>
      <trkpt lat="43.0592150" lon="-1.6048920">
        <ele>939.445007</ele>
        <time>2018-05-17T16:49:32.000Z</time>
      </trkpt>
      <trkpt lat="43.0599310" lon="-1.6057050">
        <ele>941.514038</ele>
        <time>2018-05-17T16:49:05.000Z</time>
      </trkpt>
      <trkpt lat="43.0600280" lon="-1.6060670">
        <ele>942.439026</ele>
        <time>2018-05-17T16:48:19.000Z</time>
      </trkpt>
      <trkpt lat="43.0596820" lon="-1.6066780">
        <ele>932.760010</ele>
        <time>2018-05-17T16:46:40.000Z</time>
      </trkpt>
      <trkpt lat="43.0592430" lon="-1.6072030">
        <ele>927.762024</ele>
        <time>2018-05-17T16:46:02.000Z</time>
      </trkpt>
      <trkpt lat="43.0588180" lon="-1.6073390">
        <ele>925.836975</ele>
        <time>2018-05-17T16:45:38.000Z</time>
      </trkpt>
      <trkpt lat="43.0579790" lon="-1.6074330">
        <ele>918.855042</ele>
        <time>2018-05-17T16:45:12.000Z</time>
      </trkpt>
      <trkpt lat="43.0576060" lon="-1.6074460">
        <ele>891.813965</ele>
        <time>2013-09-05T10:14:52.000Z</time>
      </trkpt>
      <trkpt lat="43.0566150" lon="-1.6073810">
        <ele>892.768005</ele>
        <time>2013-09-05T10:13:38.000Z</time>
      </trkpt>
      <trkpt lat="43.0540730" lon="-1.6085210">
        <ele>899.527039</ele>
        <time>2013-09-05T10:12:25.000Z</time>
      </trkpt>
      <trkpt lat="43.0534010" lon="-1.6086140">
        <ele>900.984985</ele>
        <time>2013-09-05T10:12:09.000Z</time>
      </trkpt>
      <trkpt lat="43.0529480" lon="-1.6084750">
        <ele>908.182983</ele>
        <time>2013-09-05T10:11:57.000Z</time>
      </trkpt>
      <trkpt lat="43.0522150" lon="-1.6087580">
        <ele>909.135010</ele>
        <time>2013-09-05T10:11:37.000Z</time>
      </trkpt>
      <trkpt lat="43.0519530" lon="-1.6087190">
        <ele>908.197021</ele>
        <time>2013-09-05T10:11:33.000Z</time>
      </trkpt>
      <trkpt lat="43.0515530" lon="-1.6082900">
        <ele>924.589966</ele>
        <time>2013-09-05T10:11:23.000Z</time>
      </trkpt>
      <trkpt lat="43.0509250" lon="-1.6080380">
        <ele>929.721985</ele>
        <time>2013-09-05T10:11:02.000Z</time>
      </trkpt>
      <trkpt lat="43.0506740" lon="-1.6077540">
        <ele>928.843994</ele>
        <time>2013-09-05T10:10:49.000Z</time>
      </trkpt>
      <trkpt lat="43.0505500" lon="-1.6077940">
        <ele>927.306946</ele>
        <time>2013-09-05T10:10:42.000Z</time>
      </trkpt>
      <trkpt lat="43.0501990" lon="-1.6081700">
        <ele>932.122009</ele>
        <time>2013-09-05T10:10:28.000Z</time>
      </trkpt>
      <trkpt lat="43.0501350" lon="-1.6085790">
        <ele>936.557007</ele>
        <time>2013-09-05T10:10:15.000Z</time>
      </trkpt>
      <trkpt lat="43.0495180" lon="-1.6094580">
        <ele>934.593994</ele>
        <time>2013-09-05T10:09:35.000Z</time>
      </trkpt>
      <trkpt lat="43.0480090" lon="-1.6101740">
        <ele>925.976990</ele>
        <time>2013-09-05T10:08:16.000Z</time>
      </trkpt>
      <trkpt lat="43.0479960" lon="-1.6104290">
        <ele>925.976990</ele>
        <time>2013-09-05T10:08:16.000Z</time>
      </trkpt>
      <trkpt lat="43.0483980" lon="-1.6108340">
        <ele>925.976990</ele>
        <time>2013-09-05T10:07:56.000Z</time>
      </trkpt>
      <trkpt lat="43.0485570" lon="-1.6112320">
        <ele>925.976990</ele>
        <time>2013-09-05T10:07:21.000Z</time>
      </trkpt>
      <trkpt lat="43.0483900" lon="-1.6116120">
        <ele>925.976990</ele>
        <time>2013-09-05T10:05:56.000Z</time>
      </trkpt>
      <trkpt lat="43.0460790" lon="-1.6141910">
        <ele>925.976990</ele>
        <time>2013-09-05T10:05:33.000Z</time>
      </trkpt>
      <trkpt lat="43.0445550" lon="-1.6156160">
        <ele>925.976990</ele>
        <time>2013-09-05T10:03:33.000Z</time>
      </trkpt>
      <trkpt lat="43.0433950" lon="-1.6161370">
        <ele>925.976990</ele>
        <time>2013-09-05T10:02:21.000Z</time>
      </trkpt>
      <trkpt lat="43.0431834" lon="-1.6162095">
        <ele>925.976990</ele>
        <time>2013-09-05T10:01:27.000Z</time>
      </trkpt>
      <trkpt lat="43.0429482" lon="-1.6162309">
        <ele>925.976990</ele>
        <time>2020-04-10T10:39:50.418Z</time>
      </trkpt>
      <trkpt lat="43.0428541" lon="-1.6161451">
        <ele>925.976990</ele>
        <time>2020-04-10T10:39:51.120Z</time>
      </trkpt>
      <trkpt lat="43.0428384" lon="-1.6158661">
        <ele>925.976990</ele>
        <time>2020-04-10T10:39:51.729Z</time>
      </trkpt>
      <trkpt lat="43.0426659" lon="-1.6157588">
        <ele>925.976990</ele>
        <time>2020-04-10T10:39:52.306Z</time>
      </trkpt>
      <trkpt lat="43.0424464" lon="-1.6156301">
        <ele>925.976990</ele>
        <time>2020-04-10T10:39:53.991Z</time>
      </trkpt>
      <trkpt lat="43.0423052" lon="-1.6155657">
        <ele>925.976990</ele>
        <time>2020-04-10T10:39:54.584Z</time>
      </trkpt>
      <trkpt lat="43.0421965" lon="-1.6155228">
        <ele>925.976990</ele>
        <time>2020-04-10T10:39:55.052Z</time>
      </trkpt>
      <trkpt lat="43.0421102" lon="-1.6155872">
        <ele>925.976990</ele>
        <time>2020-04-10T10:40:16.377Z</time>
      </trkpt>
      <trkpt lat="43.0420710" lon="-1.6157052">
        <ele>925.976990</ele>
        <time>2020-04-10T10:40:17.266Z</time>
      </trkpt>
      <trkpt lat="43.0419926" lon="-1.6157696">
        <ele>925.976990</ele>
        <time>2020-04-10T10:40:18.639Z</time>
      </trkpt>
      <trkpt lat="43.0419534" lon="-1.6156194">
        <ele>925.976990</ele>
        <time>2020-04-10T10:40:19.388Z</time>
      </trkpt>
      <trkpt lat="43.0419299" lon="-1.6154799">
        <ele>925.976990</ele>
        <time>2020-04-10T10:40:43.786Z</time>
      </trkpt>
      <trkpt lat="43.0419220" lon="-1.6153512">
        <ele>925.976990</ele>
        <time>2020-04-10T10:40:41.493Z</time>
      </trkpt>
      <trkpt lat="43.0418671" lon="-1.6153619">
        <ele>925.976990</ele>
        <time>2020-04-10T10:40:45.284Z</time>
      </trkpt>
      <trkpt lat="43.0417809" lon="-1.6153833">
        <ele>925.976990</ele>
        <time>2020-04-10T10:40:39.652Z</time>
      </trkpt>
      <trkpt lat="43.0417260" lon="-1.6155228">
        <ele>925.976990</ele>
        <time>2020-04-10T10:40:46.719Z</time>
      </trkpt>
      <trkpt lat="43.0416946" lon="-1.6156945">
        <ele>925.976990</ele>
        <time>2020-04-10T10:40:47.624Z</time>
      </trkpt>
      <trkpt lat="43.0416476" lon="-1.6158340">
        <ele>925.976990</ele>
        <time>2020-04-10T10:40:33.786Z</time>
      </trkpt>
      <trkpt lat="43.0415692" lon="-1.6159520">
        <ele>925.976990</ele>
        <time>2020-04-10T10:40:48.965Z</time>
      </trkpt>
      <trkpt lat="43.0414672" lon="-1.6160700">
        <ele>925.976990</ele>
        <time>2020-04-10T10:40:50.385Z</time>
      </trkpt>
      <trkpt lat="43.0414045" lon="-1.6161451">
        <ele>925.976990</ele>
        <time>2020-04-10T10:40:51.149Z</time>
      </trkpt>
      <trkpt lat="43.0413183" lon="-1.6161665">
        <ele>925.976990</ele>
        <time>2020-04-10T10:40:51.804Z</time>
      </trkpt>
      <trkpt lat="43.0412320" lon="-1.6161665">
        <ele>925.976990</ele>
        <time>2020-04-10T10:40:53.286Z</time>
      </trkpt>
      <trkpt lat="43.0411457" lon="-1.6161773">
        <ele>925.976990</ele>
        <time>2020-04-10T10:40:54.004Z</time>
      </trkpt>
      <trkpt lat="43.0410673" lon="-1.6162738">
        <ele>925.976990</ele>
        <time>2020-04-10T10:40:54.862Z</time>
      </trkpt>
      <trkpt lat="43.0409575" lon="-1.6162953">
        <ele>925.976990</ele>
        <time>2020-04-10T10:40:55.455Z</time>
      </trkpt>
      <trkpt lat="43.0409262" lon="-1.6162416">
        <ele>925.976990</ele>
        <time>2020-04-10T10:40:56.141Z</time>
      </trkpt>
      <trkpt lat="43.0409262" lon="-1.6161236">
        <ele>925.976990</ele>
        <time>2020-04-10T10:40:57.296Z</time>
      </trkpt>
      <trkpt lat="43.0409575" lon="-1.6159949">
        <ele>925.976990</ele>
        <time>2020-04-10T10:40:58.044Z</time>
      </trkpt>
      <trkpt lat="43.0409654" lon="-1.6158661">
        <ele>925.976990</ele>
        <time>2020-04-10T10:40:59.495Z</time>
      </trkpt>
      <trkpt lat="43.0409968" lon="-1.6157588">
        <ele>925.976990</ele>
        <time>2020-04-10T10:41:00.696Z</time>
      </trkpt>
      <trkpt lat="43.0410046" lon="-1.6156730">
        <ele>925.976990</ele>
        <time>2020-04-10T10:41:01.461Z</time>
      </trkpt>
      <trkpt lat="43.0409654" lon="-1.6156086">
        <ele>925.976990</ele>
        <time>2020-04-10T10:41:02.225Z</time>
      </trkpt>
      <trkpt lat="43.0408870" lon="-1.6156408">
        <ele>925.976990</ele>
        <time>2020-04-10T10:41:03.395Z</time>
      </trkpt>
      <trkpt lat="43.0408242" lon="-1.6156730">
        <ele>925.976990</ele>
        <time>2020-04-10T10:41:04.565Z</time>
      </trkpt>
      <trkpt lat="43.0407810" lon="-1.6156920">
        <ele>898.690002</ele>
        <time>2014-10-04T11:53:49.000Z</time>
      </trkpt>
      <trkpt lat="43.0408850" lon="-1.6144590">
        <ele>894.832031</ele>
        <time>2014-10-04T11:55:03.000Z</time>
      </trkpt>
      <trkpt lat="43.0404870" lon="-1.6140710">
        <ele>904.386047</ele>
        <time>2014-10-04T12:01:27.000Z</time>
      </trkpt>
      <trkpt lat="43.0405720" lon="-1.6139840">
        <ele>872.466980</ele>
        <time>2014-10-04T12:06:23.000Z</time>
      </trkpt>
      <trkpt lat="43.0405720" lon="-1.6140990">
        <ele>866.354980</ele>
        <time>2014-10-04T12:09:04.000Z</time>
      </trkpt>
      <trkpt lat="43.0399610" lon="-1.6144640">
        <ele>854.674011</ele>
        <time>2014-10-04T12:09:58.000Z</time>
      </trkpt>
      <trkpt lat="43.0398430" lon="-1.6148410">
        <ele>854.375977</ele>
        <time>2014-10-04T12:10:06.000Z</time>
      </trkpt>
      <trkpt lat="43.0395330" lon="-1.6150970">
        <ele>857.364990</ele>
        <time>2014-10-04T12:10:26.000Z</time>
      </trkpt>
      <trkpt lat="43.0396320" lon="-1.6136710">
        <ele>877.668030</ele>
        <time>2014-10-04T12:12:13.000Z</time>
      </trkpt>
      <trkpt lat="43.0395330" lon="-1.6134600">
        <ele>883.114014</ele>
        <time>2014-10-04T12:12:29.000Z</time>
      </trkpt>
      <trkpt lat="43.0388760" lon="-1.6140700">
        <ele>899.906982</ele>
        <time>2014-10-04T12:13:20.000Z</time>
      </trkpt>
      <trkpt lat="43.0384200" lon="-1.6150610">
        <ele>910.293030</ele>
        <time>2014-10-04T12:14:22.000Z</time>
      </trkpt>
      <trkpt lat="43.0375910" lon="-1.6156910">
        <ele>914.655029</ele>
        <time>2014-10-04T12:14:47.000Z</time>
      </trkpt>
      <trkpt lat="43.0365600" lon="-1.6169530">
        <ele>923.359009</ele>
        <time>2014-10-04T12:15:41.000Z</time>
      </trkpt>
      <trkpt lat="43.0355890" lon="-1.6175000">
        <ele>920.010010</ele>
        <time>2014-10-04T12:17:00.000Z</time>
      </trkpt>
      <trkpt lat="43.0345140" lon="-1.6177710">
        <ele>914.447998</ele>
        <time>2014-10-04T12:17:59.000Z</time>
      </trkpt>
      <trkpt lat="43.0330990" lon="-1.6184440">
        <ele>923.466980</ele>
        <time>2014-10-04T12:19:18.000Z</time>
      </trkpt>
      <trkpt lat="43.0323040" lon="-1.6185970">
        <ele>929.379028</ele>
        <time>2014-10-04T12:20:06.000Z</time>
      </trkpt>
      <trkpt lat="43.0314200" lon="-1.6185710">
        <ele>935.898987</ele>
        <time>2014-10-04T12:20:54.000Z</time>
      </trkpt>
      <trkpt lat="43.0293340" lon="-1.6189480">
        <ele>948.406982</ele>
        <time>2014-10-04T12:22:30.000Z</time>
      </trkpt>
      <trkpt lat="43.0287340" lon="-1.6188890">
        <ele>950.327026</ele>
        <time>2014-10-04T12:22:58.000Z</time>
      </trkpt>
      <trkpt lat="43.0280940" lon="-1.6185420">
        <ele>952.207031</ele>
        <time>2014-10-04T12:23:38.000Z</time>
      </trkpt>
      <trkpt lat="43.0275080" lon="-1.6184140">
        <ele>955.515991</ele>
        <time>2014-10-04T12:24:07.000Z</time>
      </trkpt>
      <trkpt lat="43.0268760" lon="-1.6187920">
        <ele>961.117981</ele>
        <time>2014-10-04T12:24:47.000Z</time>
      </trkpt>
      <trkpt lat="43.0256770" lon="-1.6185230">
        <ele>963.332031</ele>
        <time>2014-10-04T12:25:50.000Z</time>
      </trkpt>
      <trkpt lat="43.0253090" lon="-1.6182220">
        <ele>965.652954</ele>
        <time>2014-10-04T12:26:05.000Z</time>
      </trkpt>
      <trkpt lat="43.0246760" lon="-1.6180460">
        <ele>963.491028</ele>
        <time>2014-10-04T12:26:21.000Z</time>
      </trkpt>
      <trkpt lat="43.0239840" lon="-1.6180550">
        <ele>951.840027</ele>
        <time>2014-10-04T12:26:34.000Z</time>
      </trkpt>
      <trkpt lat="43.0235480" lon="-1.6177530">
        <ele>939.692017</ele>
        <time>2014-10-04T12:26:45.000Z</time>
      </trkpt>
      <trkpt lat="43.0232460" lon="-1.6171260">
        <ele>921.686035</ele>
        <time>2014-10-04T12:26:59.000Z</time>
      </trkpt>
      <trkpt lat="43.0229680" lon="-1.6169250">
        <ele>913.959961</ele>
        <time>2014-10-04T12:27:09.000Z</time>
      </trkpt>
      <trkpt lat="43.0222430" lon="-1.6173890">
        <ele>908.425964</ele>
        <time>2014-10-04T12:27:27.000Z</time>
      </trkpt>
      <trkpt lat="43.0218880" lon="-1.6181860">
        <ele>896.306946</ele>
        <time>2014-10-04T12:27:43.000Z</time>
      </trkpt>
      <trkpt lat="43.0209060" lon="-1.6193860">
        <ele>882.314941</ele>
        <time>2014-10-04T12:28:07.000Z</time>
      </trkpt>
      <trkpt lat="43.0193370" lon="-1.6196780">
        <ele>882.666992</ele>
        <time>2014-10-04T12:29:15.000Z</time>
      </trkpt>
      <trkpt lat="43.0188030" lon="-1.6195020">
        <ele>878.960999</ele>
        <time>2014-10-04T12:29:37.000Z</time>
      </trkpt>
      <trkpt lat="43.0181920" lon="-1.6189760">
        <ele>878.252014</ele>
        <time>2014-10-04T12:30:05.000Z</time>
      </trkpt>
      <trkpt lat="43.0177070" lon="-1.6181550">
        <ele>877.950012</ele>
        <time>2014-10-04T12:30:26.000Z</time>
      </trkpt>
      <trkpt lat="43.0172410" lon="-1.6165490">
        <ele>837.479004</ele>
        <time>2014-10-04T12:31:11.000Z</time>
      </trkpt>
      <trkpt lat="43.0164600" lon="-1.6154750">
        <ele>842.890991</ele>
        <time>2014-10-04T12:32:03.000Z</time>
      </trkpt>
      <trkpt lat="43.0160870" lon="-1.6152040">
        <ele>842.911011</ele>
        <time>2014-10-04T12:32:21.000Z</time>
      </trkpt>
      <trkpt lat="43.0153670" lon="-1.6153260">
        <ele>845.920959</ele>
        <time>2014-10-04T12:32:46.000Z</time>
      </trkpt>
      <trkpt lat="43.0146620" lon="-1.6152280">
        <ele>842.603027</ele>
        <time>2014-10-04T12:33:11.000Z</time>
      </trkpt>
      <trkpt lat="43.0142430" lon="-1.6155610">
        <ele>841.807007</ele>
        <time>2014-10-04T12:33:43.000Z</time>
      </trkpt>
      <trkpt lat="43.0139360" lon="-1.6161220">
        <ele>842.297974</ele>
        <time>2014-10-04T12:34:07.000Z</time>
      </trkpt>
      <trkpt lat="43.0127130" lon="-1.6166800">
        <ele>834.109985</ele>
        <time>2014-10-04T12:35:09.000Z</time>
      </trkpt>
      <trkpt lat="43.0116400" lon="-1.6162270">
        <ele>829.193970</ele>
        <time>2014-10-04T12:36:01.000Z</time>
      </trkpt>
      <trkpt lat="43.0110140" lon="-1.6161400">
        <ele>826.815002</ele>
        <time>2014-10-04T12:36:21.000Z</time>
      </trkpt>
      <trkpt lat="43.0096640" lon="-1.6165690">
        <ele>817.883057</ele>
        <time>2014-10-04T12:37:00.000Z</time>
      </trkpt>
      <trkpt lat="43.0092000" lon="-1.6168840">
        <ele>807.252014</ele>
        <time>2014-10-04T12:37:10.000Z</time>
      </trkpt>
      <trkpt lat="43.0088950" lon="-1.6179940">
        <ele>799.744019</ele>
        <time>2014-10-04T12:37:32.000Z</time>
      </trkpt>
      <trkpt lat="43.0070820" lon="-1.6181570">
        <ele>789.212036</ele>
        <time>2014-10-04T12:38:24.000Z</time>
      </trkpt>
      <trkpt lat="43.0063310" lon="-1.6188200">
        <ele>777.132019</ele>
        <time>2014-10-04T12:38:41.000Z</time>
      </trkpt>
      <trkpt lat="43.0046340" lon="-1.6181720">
        <ele>764.904968</ele>
        <time>2014-10-04T12:39:10.000Z</time>
      </trkpt>
      <trkpt lat="43.0041730" lon="-1.6182230">
        <ele>763.407043</ele>
        <time>2014-10-04T12:39:18.000Z</time>
      </trkpt>
      <trkpt lat="43.0037910" lon="-1.6185960">
        <ele>759.287964</ele>
        <time>2014-10-04T12:39:26.000Z</time>
      </trkpt>
      <trkpt lat="43.0027350" lon="-1.6202850">
        <ele>727.760010</ele>
        <time>2014-10-04T12:39:47.000Z</time>
      </trkpt>
      <trkpt lat="43.0022140" lon="-1.6203770">
        <ele>718.784058</ele>
        <time>2014-10-04T12:39:55.000Z</time>
      </trkpt>
      <trkpt lat="43.0017120" lon="-1.6206680">
        <ele>708.164978</ele>
        <time>2014-10-04T12:40:03.000Z</time>
      </trkpt>
      <trkpt lat="43.0009090" lon="-1.6202960">
        <ele>697.793030</ele>
        <time>2014-10-04T12:40:15.000Z</time>
      </trkpt>
      <trkpt lat="43.0001540" lon="-1.6201920">
        <ele>688.592041</ele>
        <time>2014-10-04T12:40:27.000Z</time>
      </trkpt>
      <trkpt lat="42.9991170" lon="-1.6194330">
        <ele>690.283997</ele>
        <time>2014-10-04T12:41:00.000Z</time>
      </trkpt>
      <trkpt lat="42.9988398" lon="-1.6196892">
        <ele>690.283997</ele>
        <time>2014-10-04T12:41:00.000Z</time>
      </trkpt>
      <trkpt lat="42.9986627" lon="-1.6199385">
        <ele>690.283997</ele>
        <time>2020-04-10T14:25:48.691Z</time>
      </trkpt>
      <trkpt lat="42.9984841" lon="-1.6200652">
        <ele>690.283997</ele>
        <time>2020-04-10T14:25:49.783Z</time>
      </trkpt>
      <trkpt lat="42.9982598" lon="-1.6201316">
        <ele>690.283997</ele>
        <time>2020-04-10T14:25:51.296Z</time>
      </trkpt>
      <trkpt lat="42.9983520" lon="-1.6203135">
        <ele>634.000000</ele>
        <time>2020-04-08T16:37:11.000Z</time>
      </trkpt>
      <trkpt lat="42.9976640" lon="-1.6202940">
        <ele>632.505981</ele>
        <time>2018-08-18T13:22:44.000Z</time>
      </trkpt>
      <trkpt lat="42.9976990" lon="-1.6203680">
        <ele>632.864014</ele>
        <time>2018-08-18T13:22:42.000Z</time>
      </trkpt>
      <trkpt lat="42.9977180" lon="-1.6204480">
        <ele>632.770020</ele>
        <time>2018-08-18T13:22:40.000Z</time>
      </trkpt>
      <trkpt lat="42.9977580" lon="-1.6205330">
        <ele>632.450012</ele>
        <time>2018-08-18T13:22:38.000Z</time>
      </trkpt>
      <trkpt lat="42.9977400" lon="-1.6205990">
        <ele>632.222046</ele>
        <time>2018-08-18T13:22:36.000Z</time>
      </trkpt>
      <trkpt lat="42.9977610" lon="-1.6206690">
        <ele>632.497009</ele>
        <time>2018-08-18T13:22:34.000Z</time>
      </trkpt>
      <trkpt lat="42.9978070" lon="-1.6206990">
        <ele>632.532043</ele>
        <time>2018-08-18T13:22:32.000Z</time>
      </trkpt>
      <trkpt lat="42.9978480" lon="-1.6207800">
        <ele>632.528992</ele>
        <time>2018-08-18T13:22:30.000Z</time>
      </trkpt>
      <trkpt lat="42.9978800" lon="-1.6208360">
        <ele>632.598999</ele>
        <time>2018-08-18T13:22:29.000Z</time>
      </trkpt>
      <trkpt lat="42.9979170" lon="-1.6208780">
        <ele>632.694031</ele>
        <time>2018-08-18T13:22:28.000Z</time>
      </trkpt>
      <trkpt lat="42.9979490" lon="-1.6209350">
        <ele>632.608032</ele>
        <time>2018-08-18T13:22:27.000Z</time>
      </trkpt>
      <trkpt lat="42.9979840" lon="-1.6209980">
        <ele>632.610962</ele>
        <time>2018-08-18T13:22:26.000Z</time>
      </trkpt>
      <trkpt lat="42.9980250" lon="-1.6210430">
        <ele>632.646973</ele>
        <time>2018-08-18T13:22:25.000Z</time>
      </trkpt>
      <trkpt lat="42.9980700" lon="-1.6210750">
        <ele>632.626038</ele>
        <time>2018-08-18T13:22:24.000Z</time>
      </trkpt>
      <trkpt lat="42.9981100" lon="-1.6211130">
        <ele>632.672974</ele>
        <time>2018-08-18T13:22:23.000Z</time>
      </trkpt>
      <trkpt lat="42.9981490" lon="-1.6211530">
        <ele>632.513000</ele>
        <time>2018-08-18T13:22:22.000Z</time>
      </trkpt>
      <trkpt lat="42.9981950" lon="-1.6211910">
        <ele>632.645020</ele>
        <time>2018-08-18T13:22:21.000Z</time>
      </trkpt>
      <trkpt lat="42.9982450" lon="-1.6212150">
        <ele>632.750000</ele>
        <time>2018-08-18T13:22:20.000Z</time>
      </trkpt>
      <trkpt lat="42.9982960" lon="-1.6212560">
        <ele>632.815002</ele>
        <time>2018-08-18T13:22:19.000Z</time>
      </trkpt>
      <trkpt lat="42.9983770" lon="-1.6213280">
        <ele>633.262024</ele>
        <time>2018-08-18T13:22:17.000Z</time>
      </trkpt>
      <trkpt lat="42.9984150" lon="-1.6213650">
        <ele>633.342041</ele>
        <time>2018-08-18T13:22:16.000Z</time>
      </trkpt>
      <trkpt lat="42.9984510" lon="-1.6214040">
        <ele>633.447021</ele>
        <time>2018-08-18T13:22:15.000Z</time>
      </trkpt>
      <trkpt lat="42.9984910" lon="-1.6214380">
        <ele>633.607971</ele>
        <time>2018-08-18T13:22:14.000Z</time>
      </trkpt>
      <trkpt lat="42.9985240" lon="-1.6214880">
        <ele>633.611023</ele>
        <time>2018-08-18T13:22:13.000Z</time>
      </trkpt>
      <trkpt lat="42.9985970" lon="-1.6215550">
        <ele>633.801025</ele>
        <time>2018-08-18T13:22:11.000Z</time>
      </trkpt>
      <trkpt lat="42.9986290" lon="-1.6215980">
        <ele>633.951050</ele>
        <time>2018-08-18T13:22:10.000Z</time>
      </trkpt>
      <trkpt lat="42.9986850" lon="-1.6216670">
        <ele>634.081055</ele>
        <time>2018-08-18T13:22:08.000Z</time>
      </trkpt>
      <trkpt lat="42.9987220" lon="-1.6217310">
        <ele>634.411011</ele>
        <time>2018-08-18T13:22:06.000Z</time>
      </trkpt>
      <trkpt lat="42.9987660" lon="-1.6217990">
        <ele>635.513000</ele>
        <time>2018-08-18T13:22:04.000Z</time>
      </trkpt>
      <trkpt lat="42.9987850" lon="-1.6218690">
        <ele>637.378052</ele>
        <time>2018-08-18T13:22:02.000Z</time>
      </trkpt>
      <trkpt lat="42.9987980" lon="-1.6219290">
        <ele>638.243042</ele>
        <time>2018-08-18T13:22:01.000Z</time>
      </trkpt>
      <trkpt lat="42.9988250" lon="-1.6219940">
        <ele>639.270020</ele>
        <time>2018-08-18T13:22:00.000Z</time>
      </trkpt>
      <trkpt lat="42.9988370" lon="-1.6220960">
        <ele>640.139954</ele>
        <time>2018-08-18T13:21:59.000Z</time>
      </trkpt>
      <trkpt lat="42.9988460" lon="-1.6222170">
        <ele>641.075012</ele>
        <time>2018-08-18T13:21:58.000Z</time>
      </trkpt>
      <trkpt lat="42.9988490" lon="-1.6223480">
        <ele>642.007996</ele>
        <time>2018-08-18T13:21:57.000Z</time>
      </trkpt>
      <trkpt lat="42.9988320" lon="-1.6224960">
        <ele>643.109985</ele>
        <time>2018-08-18T13:21:56.000Z</time>
      </trkpt>
      <trkpt lat="42.9988420" lon="-1.6226170">
        <ele>644.154968</ele>
        <time>2018-08-18T13:21:55.000Z</time>
      </trkpt>
      <trkpt lat="42.9987920" lon="-1.6227280">
        <ele>644.934021</ele>
        <time>2018-08-18T13:21:54.000Z</time>
      </trkpt>
      <trkpt lat="42.9987540" lon="-1.6228200">
        <ele>645.565002</ele>
        <time>2018-08-18T13:21:53.000Z</time>
      </trkpt>
      <trkpt lat="42.9987130" lon="-1.6229090">
        <ele>645.845032</ele>
        <time>2018-08-18T13:21:52.000Z</time>
      </trkpt>
      <trkpt lat="42.9986690" lon="-1.6230010">
        <ele>645.997009</ele>
        <time>2018-08-18T13:21:51.000Z</time>
      </trkpt>
      <trkpt lat="42.9986160" lon="-1.6230900">
        <ele>645.992004</ele>
        <time>2018-08-18T13:21:50.000Z</time>
      </trkpt>
      <trkpt lat="42.9985800" lon="-1.6231610">
        <ele>645.947021</ele>
        <time>2018-08-18T13:21:49.000Z</time>
      </trkpt>
      <trkpt lat="42.9985230" lon="-1.6232750">
        <ele>646.174011</ele>
        <time>2018-08-18T13:21:47.000Z</time>
      </trkpt>
      <trkpt lat="42.9984510" lon="-1.6233810">
        <ele>646.513977</ele>
        <time>2018-08-18T13:21:45.000Z</time>
      </trkpt>
      <trkpt lat="42.9983800" lon="-1.6234290">
        <ele>646.848999</ele>
        <time>2018-08-18T13:21:44.000Z</time>
      </trkpt>
      <trkpt lat="42.9982970" lon="-1.6235110">
        <ele>647.108032</ele>
        <time>2018-08-18T13:21:43.000Z</time>
      </trkpt>
      <trkpt lat="42.9982300" lon="-1.6235440">
        <ele>647.524963</ele>
        <time>2018-08-18T13:21:42.000Z</time>
      </trkpt>
      <trkpt lat="42.9981650" lon="-1.6235910">
        <ele>648.005005</ele>
        <time>2018-08-18T13:21:41.000Z</time>
      </trkpt>
      <trkpt lat="42.9981030" lon="-1.6236410">
        <ele>648.578979</ele>
        <time>2018-08-18T13:21:40.000Z</time>
      </trkpt>
      <trkpt lat="42.9980130" lon="-1.6237220">
        <ele>649.577026</ele>
        <time>2018-08-18T13:21:38.000Z</time>
      </trkpt>
      <trkpt lat="42.9979590" lon="-1.6237630">
        <ele>650.067017</ele>
        <time>2018-08-18T13:21:37.000Z</time>
      </trkpt>
      <trkpt lat="42.9979140" lon="-1.6238100">
        <ele>650.319031</ele>
        <time>2018-08-18T13:21:36.000Z</time>
      </trkpt>
      <trkpt lat="42.9978580" lon="-1.6238450">
        <ele>650.513977</ele>
        <time>2018-08-18T13:21:35.000Z</time>
      </trkpt>
      <trkpt lat="42.9978200" lon="-1.6238780">
        <ele>650.898987</ele>
        <time>2018-08-18T13:21:34.000Z</time>
      </trkpt>
      <trkpt lat="42.9977550" lon="-1.6239430">
        <ele>651.046021</ele>
        <time>2018-08-18T13:21:32.000Z</time>
      </trkpt>
      <trkpt lat="42.9976980" lon="-1.6240050">
        <ele>651.015991</ele>
        <time>2018-08-18T13:21:30.000Z</time>
      </trkpt>
      <trkpt lat="42.9976580" lon="-1.6240470">
        <ele>650.861023</ele>
        <time>2018-08-18T13:21:28.000Z</time>
      </trkpt>
      <trkpt lat="42.9976300" lon="-1.6241060">
        <ele>650.107971</ele>
        <time>2018-08-18T13:20:51.000Z</time>
      </trkpt>
      <trkpt lat="42.9976360" lon="-1.6241670">
        <ele>650.823975</ele>
        <time>2018-08-18T13:20:22.000Z</time>
      </trkpt>
      <trkpt lat="42.9975950" lon="-1.6242110">
        <ele>650.830994</ele>
        <time>2018-08-18T13:20:18.000Z</time>
      </trkpt>
      <trkpt lat="42.9975550" lon="-1.6242480">
        <ele>651.696045</ele>
        <time>2018-08-18T13:20:11.000Z</time>
      </trkpt>
      <trkpt lat="42.9975190" lon="-1.6242990">
        <ele>651.847046</ele>
        <time>2018-08-18T13:20:09.000Z</time>
      </trkpt>
      <trkpt lat="42.9974830" lon="-1.6243620">
        <ele>651.827026</ele>
        <time>2018-08-18T13:20:07.000Z</time>
      </trkpt>
      <trkpt lat="42.9974460" lon="-1.6244240">
        <ele>651.749023</ele>
        <time>2018-08-18T13:20:05.000Z</time>
      </trkpt>
      <trkpt lat="42.9974110" lon="-1.6244960">
        <ele>651.774048</ele>
        <time>2018-08-18T13:20:03.000Z</time>
      </trkpt>
      <trkpt lat="42.9973810" lon="-1.6245710">
        <ele>651.849060</ele>
        <time>2018-08-18T13:20:01.000Z</time>
      </trkpt>
      <trkpt lat="42.9973530" lon="-1.6246470">
        <ele>651.885986</ele>
        <time>2018-08-18T13:19:59.000Z</time>
      </trkpt>
      <trkpt lat="42.9973260" lon="-1.6247130">
        <ele>651.716003</ele>
        <time>2018-08-18T13:19:57.000Z</time>
      </trkpt>
      <trkpt lat="42.9972990" lon="-1.6247850">
        <ele>651.430969</ele>
        <time>2018-08-18T13:19:55.000Z</time>
      </trkpt>
      <trkpt lat="42.9972700" lon="-1.6248590">
        <ele>651.208008</ele>
        <time>2018-08-18T13:19:53.000Z</time>
      </trkpt>
      <trkpt lat="42.9972410" lon="-1.6249270">
        <ele>651.222961</ele>
        <time>2018-08-18T13:19:51.000Z</time>
      </trkpt>
      <trkpt lat="42.9972100" lon="-1.6249880">
        <ele>651.448975</ele>
        <time>2018-08-18T13:19:49.000Z</time>
      </trkpt>
      <trkpt lat="42.9971840" lon="-1.6250500">
        <ele>651.594971</ele>
        <time>2018-08-18T13:19:47.000Z</time>
      </trkpt>
      <trkpt lat="42.9971610" lon="-1.6251170">
        <ele>651.533020</ele>
        <time>2018-08-18T13:19:45.000Z</time>
      </trkpt>
      <trkpt lat="42.9971380" lon="-1.6251920">
        <ele>651.573059</ele>
        <time>2018-08-18T13:19:43.000Z</time>
      </trkpt>
      <trkpt lat="42.9971150" lon="-1.6252690">
        <ele>651.774963</ele>
        <time>2018-08-18T13:19:41.000Z</time>
      </trkpt>
      <trkpt lat="42.9970930" lon="-1.6253390">
        <ele>651.809937</ele>
        <time>2018-08-18T13:19:39.000Z</time>
      </trkpt>
      <trkpt lat="42.9970700" lon="-1.6254130">
        <ele>651.955017</ele>
        <time>2018-08-18T13:19:37.000Z</time>
      </trkpt>
      <trkpt lat="42.9970420" lon="-1.6254780">
        <ele>652.082031</ele>
        <time>2018-08-18T13:19:35.000Z</time>
      </trkpt>
      <trkpt lat="42.9970120" lon="-1.6255390">
        <ele>652.062012</ele>
        <time>2018-08-18T13:19:33.000Z</time>
      </trkpt>
      <trkpt lat="42.9969870" lon="-1.6256000">
        <ele>651.977051</ele>
        <time>2018-08-18T13:19:31.000Z</time>
      </trkpt>
      <trkpt lat="42.9969590" lon="-1.6256720">
        <ele>651.808044</ele>
        <time>2018-08-18T13:19:29.000Z</time>
      </trkpt>
      <trkpt lat="42.9969180" lon="-1.6257530">
        <ele>651.813965</ele>
        <time>2018-08-18T13:19:27.000Z</time>
      </trkpt>
      <trkpt lat="42.9968740" lon="-1.6258330">
        <ele>651.804016</ele>
        <time>2018-08-18T13:19:25.000Z</time>
      </trkpt>
      <trkpt lat="42.9968330" lon="-1.6259120">
        <ele>651.753052</ele>
        <time>2018-08-18T13:19:23.000Z</time>
      </trkpt>
      <trkpt lat="42.9967990" lon="-1.6259840">
        <ele>651.891968</ele>
        <time>2018-08-18T13:19:21.000Z</time>
      </trkpt>
      <trkpt lat="42.9967700" lon="-1.6260450">
        <ele>652.262024</ele>
        <time>2018-08-18T13:19:19.000Z</time>
      </trkpt>
      <trkpt lat="42.9967350" lon="-1.6261130">
        <ele>652.723999</ele>
        <time>2018-08-18T13:19:16.000Z</time>
      </trkpt>
      <trkpt lat="42.9967060" lon="-1.6261610">
        <ele>652.958984</ele>
        <time>2018-08-18T13:19:14.000Z</time>
      </trkpt>
      <trkpt lat="42.9966830" lon="-1.6262150">
        <ele>653.093994</ele>
        <time>2018-08-18T13:19:12.000Z</time>
      </trkpt>
      <trkpt lat="42.9966650" lon="-1.6262740">
        <ele>653.041016</ele>
        <time>2018-08-18T13:19:10.000Z</time>
      </trkpt>
      <trkpt lat="42.9966440" lon="-1.6263400">
        <ele>653.111023</ele>
        <time>2018-08-18T13:19:08.000Z</time>
      </trkpt>
      <trkpt lat="42.9966240" lon="-1.6263980">
        <ele>653.325989</ele>
        <time>2018-08-18T13:19:06.000Z</time>
      </trkpt>
      <trkpt lat="42.9965930" lon="-1.6264760">
        <ele>653.608032</ele>
        <time>2018-08-18T13:19:03.000Z</time>
      </trkpt>
      <trkpt lat="42.9965700" lon="-1.6265300">
        <ele>653.820984</ele>
        <time>2018-08-18T13:19:01.000Z</time>
      </trkpt>
      <trkpt lat="42.9965440" lon="-1.6265870">
        <ele>653.928955</ele>
        <time>2018-08-18T13:18:59.000Z</time>
      </trkpt>
      <trkpt lat="42.9965150" lon="-1.6266470">
        <ele>653.946960</ele>
        <time>2018-08-18T13:18:57.000Z</time>
      </trkpt>
      <trkpt lat="42.9964830" lon="-1.6267040">
        <ele>653.921997</ele>
        <time>2018-08-18T13:18:55.000Z</time>
      </trkpt>
      <trkpt lat="42.9964520" lon="-1.6267600">
        <ele>653.911987</ele>
        <time>2018-08-18T13:18:53.000Z</time>
      </trkpt>
      <trkpt lat="42.9964210" lon="-1.6268200">
        <ele>654.023987</ele>
        <time>2018-08-18T13:18:51.000Z</time>
      </trkpt>
      <trkpt lat="42.9963930" lon="-1.6268770">
        <ele>654.158997</ele>
        <time>2018-08-18T13:18:49.000Z</time>
      </trkpt>
      <trkpt lat="42.9963670" lon="-1.6269330">
        <ele>654.274048</ele>
        <time>2018-08-18T13:18:47.000Z</time>
      </trkpt>
      <trkpt lat="42.9963380" lon="-1.6269870">
        <ele>654.311035</ele>
        <time>2018-08-18T13:18:45.000Z</time>
      </trkpt>
      <trkpt lat="42.9963050" lon="-1.6270440">
        <ele>654.430969</ele>
        <time>2018-08-18T13:18:43.000Z</time>
      </trkpt>
      <trkpt lat="42.9962680" lon="-1.6271240">
        <ele>654.466003</ele>
        <time>2018-08-18T13:18:40.000Z</time>
      </trkpt>
      <trkpt lat="42.9962390" lon="-1.6271990">
        <ele>654.208008</ele>
        <time>2018-08-18T13:18:37.000Z</time>
      </trkpt>
      <trkpt lat="42.9961950" lon="-1.6272640">
        <ele>653.916992</ele>
        <time>2018-08-18T13:18:34.000Z</time>
      </trkpt>
      <trkpt lat="42.9961430" lon="-1.6273080">
        <ele>653.661011</ele>
        <time>2018-08-18T13:18:31.000Z</time>
      </trkpt>
      <trkpt lat="42.9961020" lon="-1.6273330">
        <ele>653.447937</ele>
        <time>2018-08-18T13:18:29.000Z</time>
      </trkpt>
      <trkpt lat="42.9960610" lon="-1.6273590">
        <ele>653.357056</ele>
        <time>2018-08-18T13:18:27.000Z</time>
      </trkpt>
      <trkpt lat="42.9960000" lon="-1.6273800">
        <ele>653.447021</ele>
        <time>2018-08-18T13:18:24.000Z</time>
      </trkpt>
      <trkpt lat="42.9959430" lon="-1.6274070">
        <ele>653.319031</ele>
        <time>2018-08-18T13:18:21.000Z</time>
      </trkpt>
      <trkpt lat="42.9958890" lon="-1.6274420">
        <ele>653.244019</ele>
        <time>2018-08-18T13:18:18.000Z</time>
      </trkpt>
      <trkpt lat="42.9958380" lon="-1.6274900">
        <ele>653.278992</ele>
        <time>2018-08-18T13:18:15.000Z</time>
      </trkpt>
      <trkpt lat="42.9957940" lon="-1.6275400">
        <ele>653.285950</ele>
        <time>2018-08-18T13:18:12.000Z</time>
      </trkpt>
      <trkpt lat="42.9957490" lon="-1.6275880">
        <ele>653.366028</ele>
        <time>2018-08-18T13:18:09.000Z</time>
      </trkpt>
      <trkpt lat="42.9957030" lon="-1.6276130">
        <ele>653.371033</ele>
        <time>2018-08-18T13:18:06.000Z</time>
      </trkpt>
      <trkpt lat="42.9956550" lon="-1.6276320">
        <ele>653.107971</ele>
        <time>2018-08-18T13:18:03.000Z</time>
      </trkpt>
      <trkpt lat="42.9956030" lon="-1.6276690">
        <ele>651.820007</ele>
        <time>2018-08-18T13:17:25.000Z</time>
      </trkpt>
      <trkpt lat="42.9955660" lon="-1.6277050">
        <ele>651.872986</ele>
        <time>2018-08-18T13:17:22.000Z</time>
      </trkpt>
      <trkpt lat="42.9955120" lon="-1.6277420">
        <ele>651.692017</ele>
        <time>2018-08-18T13:17:19.000Z</time>
      </trkpt>
      <trkpt lat="42.9954530" lon="-1.6277760">
        <ele>651.252014</ele>
        <time>2018-08-18T13:17:16.000Z</time>
      </trkpt>
      <trkpt lat="42.9954090" lon="-1.6278060">
        <ele>651.031982</ele>
        <time>2018-08-18T13:17:13.000Z</time>
      </trkpt>
      <trkpt lat="42.9953720" lon="-1.6278500">
        <ele>650.763977</ele>
        <time>2018-08-18T13:17:10.000Z</time>
      </trkpt>
      <trkpt lat="42.9953240" lon="-1.6278970">
        <ele>649.919006</ele>
        <time>2018-08-18T13:17:06.000Z</time>
      </trkpt>
      <trkpt lat="42.9952790" lon="-1.6279420">
        <ele>649.264038</ele>
        <time>2018-08-18T13:17:02.000Z</time>
      </trkpt>
      <trkpt lat="42.9952350" lon="-1.6279860">
        <ele>648.881042</ele>
        <time>2018-08-18T13:16:59.000Z</time>
      </trkpt>
      <trkpt lat="42.9952010" lon="-1.6280320">
        <ele>648.571045</ele>
        <time>2018-08-18T13:16:56.000Z</time>
      </trkpt>
      <trkpt lat="42.9951610" lon="-1.6280800">
        <ele>648.195984</ele>
        <time>2018-08-18T13:16:53.000Z</time>
      </trkpt>
      <trkpt lat="42.9951220" lon="-1.6281140">
        <ele>647.307983</ele>
        <time>2018-08-18T13:16:50.000Z</time>
      </trkpt>
      <trkpt lat="42.9950730" lon="-1.6281550">
        <ele>646.309998</ele>
        <time>2018-08-18T13:16:46.000Z</time>
      </trkpt>
      <trkpt lat="42.9950380" lon="-1.6281970">
        <ele>645.763977</ele>
        <time>2018-08-18T13:16:43.000Z</time>
      </trkpt>
      <trkpt lat="42.9949990" lon="-1.6282450">
        <ele>645.143005</ele>
        <time>2018-08-18T13:16:40.000Z</time>
      </trkpt>
      <trkpt lat="42.9949640" lon="-1.6283030">
        <ele>644.777039</ele>
        <time>2018-08-18T13:16:37.000Z</time>
      </trkpt>
      <trkpt lat="42.9949320" lon="-1.6283790">
        <ele>644.567017</ele>
        <time>2018-08-18T13:16:34.000Z</time>
      </trkpt>
      <trkpt lat="42.9949130" lon="-1.6284350">
        <ele>644.378967</ele>
        <time>2018-08-18T13:16:32.000Z</time>
      </trkpt>
      <trkpt lat="42.9948970" lon="-1.6285160">
        <ele>644.114014</ele>
        <time>2018-08-18T13:16:29.000Z</time>
      </trkpt>
      <trkpt lat="42.9948880" lon="-1.6285930">
        <ele>643.799011</ele>
        <time>2018-08-18T13:16:26.000Z</time>
      </trkpt>
      <trkpt lat="42.9948740" lon="-1.6286630">
        <ele>643.365967</ele>
        <time>2018-08-18T13:16:23.000Z</time>
      </trkpt>
      <trkpt lat="42.9948350" lon="-1.6287170">
        <ele>643.255981</ele>
        <time>2018-08-18T13:16:20.000Z</time>
      </trkpt>
      <trkpt lat="42.9947850" lon="-1.6287440">
        <ele>642.370972</ele>
        <time>2018-08-18T13:16:17.000Z</time>
      </trkpt>
      <trkpt lat="42.9947330" lon="-1.6287540">
        <ele>641.608032</ele>
        <time>2018-08-18T13:16:14.000Z</time>
      </trkpt>
      <trkpt lat="42.9946870" lon="-1.6287480">
        <ele>641.519043</ele>
        <time>2018-08-18T13:16:11.000Z</time>
      </trkpt>
      <trkpt lat="42.9946380" lon="-1.6287510">
        <ele>641.280945</ele>
        <time>2018-08-18T13:16:08.000Z</time>
      </trkpt>
      <trkpt lat="42.9945830" lon="-1.6287510">
        <ele>640.791016</ele>
        <time>2018-08-18T13:16:05.000Z</time>
      </trkpt>
      <trkpt lat="42.9945230" lon="-1.6287530">
        <ele>640.315979</ele>
        <time>2018-08-18T13:16:02.000Z</time>
      </trkpt>
      <trkpt lat="42.9944710" lon="-1.6287880">
        <ele>639.776001</ele>
        <time>2018-08-18T13:15:59.000Z</time>
      </trkpt>
      <trkpt lat="42.9944180" lon="-1.6287980">
        <ele>639.288025</ele>
        <time>2018-08-18T13:15:56.000Z</time>
      </trkpt>
      <trkpt lat="42.9943640" lon="-1.6288110">
        <ele>638.722961</ele>
        <time>2018-08-18T13:15:53.000Z</time>
      </trkpt>
      <trkpt lat="42.9943180" lon="-1.6288180">
        <ele>638.298035</ele>
        <time>2018-08-18T13:15:50.000Z</time>
      </trkpt>
      <trkpt lat="42.9942600" lon="-1.6288220">
        <ele>637.654968</ele>
        <time>2018-08-18T13:15:46.000Z</time>
      </trkpt>
      <trkpt lat="42.9942020" lon="-1.6288220">
        <ele>637.364990</ele>
        <time>2018-08-18T13:15:42.000Z</time>
      </trkpt>
      <trkpt lat="42.9941440" lon="-1.6288210">
        <ele>636.869995</ele>
        <time>2018-08-18T13:15:38.000Z</time>
      </trkpt>
      <trkpt lat="42.9940920" lon="-1.6288140">
        <ele>636.607971</ele>
        <time>2018-08-18T13:15:35.000Z</time>
      </trkpt>
      <trkpt lat="42.9940410" lon="-1.6288200">
        <ele>635.726013</ele>
        <time>2018-08-18T13:15:32.000Z</time>
      </trkpt>
      <trkpt lat="42.9939820" lon="-1.6288260">
        <ele>635.206055</ele>
        <time>2018-08-18T13:15:29.000Z</time>
      </trkpt>
      <trkpt lat="42.9939260" lon="-1.6288380">
        <ele>634.889038</ele>
        <time>2018-08-18T13:15:26.000Z</time>
      </trkpt>
      <trkpt lat="42.9938650" lon="-1.6288500">
        <ele>634.591003</ele>
        <time>2018-08-18T13:15:23.000Z</time>
      </trkpt>
      <trkpt lat="42.9938100" lon="-1.6288620">
        <ele>634.210938</ele>
        <time>2018-08-18T13:15:20.000Z</time>
      </trkpt>
      <trkpt lat="42.9937510" lon="-1.6288710">
        <ele>634.052979</ele>
        <time>2018-08-18T13:15:17.000Z</time>
      </trkpt>
      <trkpt lat="42.9936860" lon="-1.6288810">
        <ele>634.138062</ele>
        <time>2018-08-18T13:15:14.000Z</time>
      </trkpt>
      <trkpt lat="42.9936400" lon="-1.6288900">
        <ele>634.273010</ele>
        <time>2018-08-18T13:15:12.000Z</time>
      </trkpt>
      <trkpt lat="42.9935960" lon="-1.6289030">
        <ele>634.260010</ele>
        <time>2018-08-18T13:15:10.000Z</time>
      </trkpt>
      <trkpt lat="42.9935330" lon="-1.6289230">
        <ele>634.020020</ele>
        <time>2018-08-18T13:15:07.000Z</time>
      </trkpt>
      <trkpt lat="42.9934750" lon="-1.6289410">
        <ele>633.864990</ele>
        <time>2018-08-18T13:15:03.000Z</time>
      </trkpt>
      <trkpt lat="42.9934300" lon="-1.6289720">
        <ele>633.007996</ele>
        <time>2018-08-18T13:14:59.000Z</time>
      </trkpt>
      <trkpt lat="42.9933910" lon="-1.6290080">
        <ele>632.018005</ele>
        <time>2018-08-18T13:14:55.000Z</time>
      </trkpt>
      <trkpt lat="42.9933550" lon="-1.6290570">
        <ele>630.817017</ele>
        <time>2018-08-18T13:14:51.000Z</time>
      </trkpt>
      <trkpt lat="42.9933160" lon="-1.6291040">
        <ele>629.335999</ele>
        <time>2018-08-18T13:14:47.000Z</time>
      </trkpt>
      <trkpt lat="42.9932730" lon="-1.6291360">
        <ele>628.339050</ele>
        <time>2018-08-18T13:14:43.000Z</time>
      </trkpt>
      <trkpt lat="42.9932370" lon="-1.6291930">
        <ele>627.189026</ele>
        <time>2018-08-18T13:14:39.000Z</time>
      </trkpt>
      <trkpt lat="42.9932250" lon="-1.6292550">
        <ele>626.361023</ele>
        <time>2018-08-18T13:14:36.000Z</time>
      </trkpt>
      <trkpt lat="42.9932340" lon="-1.6293350">
        <ele>625.536011</ele>
        <time>2018-08-18T13:14:32.000Z</time>
      </trkpt>
      <trkpt lat="42.9932690" lon="-1.6293950">
        <ele>624.611023</ele>
        <time>2018-08-18T13:14:28.000Z</time>
      </trkpt>
      <trkpt lat="42.9932980" lon="-1.6294440">
        <ele>623.918030</ele>
        <time>2018-08-18T13:14:25.000Z</time>
      </trkpt>
      <trkpt lat="42.9933340" lon="-1.6295030">
        <ele>623.037964</ele>
        <time>2018-08-18T13:14:21.000Z</time>
      </trkpt>
      <trkpt lat="42.9933630" lon="-1.6295510">
        <ele>622.523010</ele>
        <time>2018-08-18T13:14:18.000Z</time>
      </trkpt>
      <trkpt lat="42.9933930" lon="-1.6296090">
        <ele>622.107971</ele>
        <time>2018-08-18T13:14:15.000Z</time>
      </trkpt>
      <trkpt lat="42.9934330" lon="-1.6296640">
        <ele>621.804993</ele>
        <time>2018-08-18T13:14:12.000Z</time>
      </trkpt>
      <trkpt lat="42.9934700" lon="-1.6297230">
        <ele>621.432007</ele>
        <time>2018-08-18T13:14:09.000Z</time>
      </trkpt>
      <trkpt lat="42.9934990" lon="-1.6297870">
        <ele>621.011963</ele>
        <time>2018-08-18T13:14:06.000Z</time>
      </trkpt>
      <trkpt lat="42.9935070" lon="-1.6298510">
        <ele>620.723022</ele>
        <time>2018-08-18T13:14:03.000Z</time>
      </trkpt>
      <trkpt lat="42.9935230" lon="-1.6299130">
        <ele>620.043030</ele>
        <time>2018-08-18T13:14:00.000Z</time>
      </trkpt>
      <trkpt lat="42.9935410" lon="-1.6299770">
        <ele>619.364990</ele>
        <time>2018-08-18T13:13:57.000Z</time>
      </trkpt>
      <trkpt lat="42.9935490" lon="-1.6300440">
        <ele>618.760010</ele>
        <time>2018-08-18T13:13:54.000Z</time>
      </trkpt>
      <trkpt lat="42.9935600" lon="-1.6301110">
        <ele>618.114990</ele>
        <time>2018-08-18T13:13:51.000Z</time>
      </trkpt>
      <trkpt lat="42.9935590" lon="-1.6301750">
        <ele>617.541992</ele>
        <time>2018-08-18T13:13:48.000Z</time>
      </trkpt>
      <trkpt lat="42.9935480" lon="-1.6302420">
        <ele>617.071960</ele>
        <time>2018-08-18T13:13:45.000Z</time>
      </trkpt>
      <trkpt lat="42.9935490" lon="-1.6303080">
        <ele>616.546997</ele>
        <time>2018-08-18T13:13:42.000Z</time>
      </trkpt>
      <trkpt lat="42.9935550" lon="-1.6303810">
        <ele>616.107971</ele>
        <time>2018-08-18T13:13:39.000Z</time>
      </trkpt>
      <trkpt lat="42.9935540" lon="-1.6304570">
        <ele>615.507996</ele>
        <time>2018-08-18T13:13:36.000Z</time>
      </trkpt>
      <trkpt lat="42.9935460" lon="-1.6305380">
        <ele>615.252991</ele>
        <time>2018-08-18T13:13:33.000Z</time>
      </trkpt>
      <trkpt lat="42.9935190" lon="-1.6305900">
        <ele>615.351990</ele>
        <time>2018-08-18T13:13:31.000Z</time>
      </trkpt>
      <trkpt lat="42.9934490" lon="-1.6306450">
        <ele>615.957031</ele>
        <time>2018-08-18T13:13:29.000Z</time>
      </trkpt>
      <trkpt lat="42.9934070" lon="-1.6306740">
        <ele>615.967041</ele>
        <time>2018-08-18T13:13:28.000Z</time>
      </trkpt>
      <trkpt lat="42.9933680" lon="-1.6307070">
        <ele>616.169006</ele>
        <time>2018-08-18T13:13:27.000Z</time>
      </trkpt>
      <trkpt lat="42.9933030" lon="-1.6307880">
        <ele>616.533997</ele>
        <time>2018-08-18T13:13:25.000Z</time>
      </trkpt>
      <trkpt lat="42.9932600" lon="-1.6308690">
        <ele>616.639038</ele>
        <time>2018-08-18T13:13:23.000Z</time>
      </trkpt>
      <trkpt lat="42.9932390" lon="-1.6309250">
        <ele>616.666016</ele>
        <time>2018-08-18T13:13:21.000Z</time>
      </trkpt>
      <trkpt lat="42.9932180" lon="-1.6309950">
        <ele>616.526001</ele>
        <time>2018-08-18T13:13:18.000Z</time>
      </trkpt>
      <trkpt lat="42.9932310" lon="-1.6310570">
        <ele>616.911011</ele>
        <time>2018-08-18T13:13:12.000Z</time>
      </trkpt>
      <trkpt lat="42.9932470" lon="-1.6309890">
        <ele>616.907959</ele>
        <time>2018-08-18T13:13:08.000Z</time>
      </trkpt>
      <trkpt lat="42.9932580" lon="-1.6309250">
        <ele>616.024963</ele>
        <time>2018-08-18T13:13:04.000Z</time>
      </trkpt>
      <trkpt lat="42.9932790" lon="-1.6308540">
        <ele>615.222961</ele>
        <time>2018-08-18T13:13:00.000Z</time>
      </trkpt>
      <trkpt lat="42.9933160" lon="-1.6307890">
        <ele>615.497009</ele>
        <time>2018-08-18T13:12:57.000Z</time>
      </trkpt>
      <trkpt lat="42.9933620" lon="-1.6307340">
        <ele>615.359985</ele>
        <time>2018-08-18T13:12:54.000Z</time>
      </trkpt>
      <trkpt lat="42.9934140" lon="-1.6306940">
        <ele>615.289978</ele>
        <time>2018-08-18T13:12:51.000Z</time>
      </trkpt>
      <trkpt lat="42.9934750" lon="-1.6306670">
        <ele>615.291992</ele>
        <time>2018-08-18T13:12:48.000Z</time>
      </trkpt>
      <trkpt lat="42.9935250" lon="-1.6306720">
        <ele>614.257019</ele>
        <time>2018-08-18T13:12:36.000Z</time>
      </trkpt>
      <trkpt lat="42.9935190" lon="-1.6307400">
        <ele>613.552002</ele>
        <time>2018-08-18T13:12:33.000Z</time>
      </trkpt>
      <trkpt lat="42.9935150" lon="-1.6308090">
        <ele>612.989014</ele>
        <time>2018-08-18T13:12:30.000Z</time>
      </trkpt>
      <trkpt lat="42.9935070" lon="-1.6308740">
        <ele>612.368958</ele>
        <time>2018-08-18T13:12:27.000Z</time>
      </trkpt>
      <trkpt lat="42.9934980" lon="-1.6309350">
        <ele>611.873962</ele>
        <time>2018-08-18T13:12:24.000Z</time>
      </trkpt>
      <trkpt lat="42.9934860" lon="-1.6310120">
        <ele>610.908020</ele>
        <time>2018-08-18T13:12:20.000Z</time>
      </trkpt>
      <trkpt lat="42.9934770" lon="-1.6310870">
        <ele>610.119995</ele>
        <time>2018-08-18T13:12:16.000Z</time>
      </trkpt>
      <trkpt lat="42.9934750" lon="-1.6311590">
        <ele>609.500000</ele>
        <time>2018-08-18T13:12:12.000Z</time>
      </trkpt>
      <trkpt lat="42.9934650" lon="-1.6312270">
        <ele>608.428955</ele>
        <time>2018-08-18T13:12:08.000Z</time>
      </trkpt>
      <trkpt lat="42.9934590" lon="-1.6312960">
        <ele>607.413025</ele>
        <time>2018-08-18T13:12:04.000Z</time>
      </trkpt>
      <trkpt lat="42.9934560" lon="-1.6313770">
        <ele>606.993042</ele>
        <time>2018-08-18T13:12:00.000Z</time>
      </trkpt>
      <trkpt lat="42.9934590" lon="-1.6314560">
        <ele>606.554993</ele>
        <time>2018-08-18T13:11:56.000Z</time>
      </trkpt>
      <trkpt lat="42.9934540" lon="-1.6315350">
        <ele>605.779968</ele>
        <time>2018-08-18T13:11:52.000Z</time>
      </trkpt>
      <trkpt lat="42.9934360" lon="-1.6316060">
        <ele>605.455017</ele>
        <time>2018-08-18T13:11:49.000Z</time>
      </trkpt>
      <trkpt lat="42.9934210" lon="-1.6316800">
        <ele>605.142029</ele>
        <time>2018-08-18T13:11:46.000Z</time>
      </trkpt>
      <trkpt lat="42.9934170" lon="-1.6317430">
        <ele>604.841980</ele>
        <time>2018-08-18T13:11:44.000Z</time>
      </trkpt>
      <trkpt lat="42.9934130" lon="-1.6318180">
        <ele>604.677002</ele>
        <time>2018-08-18T13:11:42.000Z</time>
      </trkpt>
      <trkpt lat="42.9934170" lon="-1.6318860">
        <ele>604.307983</ele>
        <time>2018-08-18T13:11:40.000Z</time>
      </trkpt>
      <trkpt lat="42.9934350" lon="-1.6319430">
        <ele>604.019958</ele>
        <time>2018-08-18T13:11:38.000Z</time>
      </trkpt>
      <trkpt lat="42.9934670" lon="-1.6320180">
        <ele>603.900024</ele>
        <time>2018-08-18T13:11:21.000Z</time>
      </trkpt>
      <trkpt lat="42.9935160" lon="-1.6320190">
        <ele>603.856995</ele>
        <time>2018-08-18T13:11:18.000Z</time>
      </trkpt>
      <trkpt lat="42.9935580" lon="-1.6320430">
        <ele>603.741028</ele>
        <time>2018-08-18T13:11:16.000Z</time>
      </trkpt>
      <trkpt lat="42.9936010" lon="-1.6320640">
        <ele>603.531006</ele>
        <time>2018-08-18T13:11:14.000Z</time>
      </trkpt>
      <trkpt lat="42.9936500" lon="-1.6320880">
        <ele>603.173035</ele>
        <time>2018-08-18T13:11:12.000Z</time>
      </trkpt>
      <trkpt lat="42.9936990" lon="-1.6321170">
        <ele>602.737976</ele>
        <time>2018-08-18T13:11:10.000Z</time>
      </trkpt>
      <trkpt lat="42.9937500" lon="-1.6321510">
        <ele>602.322998</ele>
        <time>2018-08-18T13:11:08.000Z</time>
      </trkpt>
      <trkpt lat="42.9938070" lon="-1.6321810">
        <ele>601.940002</ele>
        <time>2018-08-18T13:11:06.000Z</time>
      </trkpt>
      <trkpt lat="42.9938660" lon="-1.6322120">
        <ele>601.510010</ele>
        <time>2018-08-18T13:11:04.000Z</time>
      </trkpt>
      <trkpt lat="42.9939210" lon="-1.6322270">
        <ele>601.125000</ele>
        <time>2018-08-18T13:11:02.000Z</time>
      </trkpt>
      <trkpt lat="42.9939810" lon="-1.6322620">
        <ele>601.007996</ele>
        <time>2018-08-18T13:11:00.000Z</time>
      </trkpt>
      <trkpt lat="42.9940390" lon="-1.6322990">
        <ele>600.918030</ele>
        <time>2018-08-18T13:10:58.000Z</time>
      </trkpt>
      <trkpt lat="42.9941120" lon="-1.6323240">
        <ele>600.916992</ele>
        <time>2018-08-18T13:10:56.000Z</time>
      </trkpt>
      <trkpt lat="42.9941570" lon="-1.6323420">
        <ele>600.735962</ele>
        <time>2018-08-18T13:10:55.000Z</time>
      </trkpt>
      <trkpt lat="42.9942030" lon="-1.6323610">
        <ele>600.565979</ele>
        <time>2018-08-18T13:10:54.000Z</time>
      </trkpt>
      <trkpt lat="42.9942930" lon="-1.6324030">
        <ele>599.835999</ele>
        <time>2018-08-18T13:10:52.000Z</time>
      </trkpt>
      <trkpt lat="42.9943450" lon="-1.6324290">
        <ele>599.527954</ele>
        <time>2018-08-18T13:10:51.000Z</time>
      </trkpt>
      <trkpt lat="42.9943960" lon="-1.6324540">
        <ele>599.233032</ele>
        <time>2018-08-18T13:10:50.000Z</time>
      </trkpt>
      <trkpt lat="42.9944430" lon="-1.6324860">
        <ele>599.038025</ele>
        <time>2018-08-18T13:10:49.000Z</time>
      </trkpt>
      <trkpt lat="42.9944870" lon="-1.6325140">
        <ele>598.774963</ele>
        <time>2018-08-18T13:10:48.000Z</time>
      </trkpt>
      <trkpt lat="42.9945410" lon="-1.6325470">
        <ele>598.465027</ele>
        <time>2018-08-18T13:10:47.000Z</time>
      </trkpt>
      <trkpt lat="42.9945890" lon="-1.6325790">
        <ele>598.190002</ele>
        <time>2018-08-18T13:10:46.000Z</time>
      </trkpt>
      <trkpt lat="42.9946440" lon="-1.6326040">
        <ele>597.807983</ele>
        <time>2018-08-18T13:10:45.000Z</time>
      </trkpt>
      <trkpt lat="42.9947030" lon="-1.6326330">
        <ele>597.416992</ele>
        <time>2018-08-18T13:10:44.000Z</time>
      </trkpt>
      <trkpt lat="42.9947610" lon="-1.6326610">
        <ele>596.924988</ele>
        <time>2018-08-18T13:10:43.000Z</time>
      </trkpt>
      <trkpt lat="42.9948130" lon="-1.6326950">
        <ele>596.583008</ele>
        <time>2018-08-18T13:10:42.000Z</time>
      </trkpt>
      <trkpt lat="42.9948700" lon="-1.6327220">
        <ele>596.044006</ele>
        <time>2018-08-18T13:10:41.000Z</time>
      </trkpt>
      <trkpt lat="42.9949200" lon="-1.6327570">
        <ele>595.563965</ele>
        <time>2018-08-18T13:10:40.000Z</time>
      </trkpt>
      <trkpt lat="42.9949910" lon="-1.6327850">
        <ele>594.925964</ele>
        <time>2018-08-18T13:10:39.000Z</time>
      </trkpt>
      <trkpt lat="42.9950540" lon="-1.6328040">
        <ele>594.450989</ele>
        <time>2018-08-18T13:10:38.000Z</time>
      </trkpt>
      <trkpt lat="42.9951260" lon="-1.6328350">
        <ele>593.895996</ele>
        <time>2018-08-18T13:10:37.000Z</time>
      </trkpt>
      <trkpt lat="42.9951950" lon="-1.6328700">
        <ele>593.553040</ele>
        <time>2018-08-18T13:10:36.000Z</time>
      </trkpt>
      <trkpt lat="42.9952720" lon="-1.6329090">
        <ele>593.322998</ele>
        <time>2018-08-18T13:10:35.000Z</time>
      </trkpt>
      <trkpt lat="42.9953490" lon="-1.6329440">
        <ele>593.277954</ele>
        <time>2018-08-18T13:10:34.000Z</time>
      </trkpt>
      <trkpt lat="42.9954330" lon="-1.6329890">
        <ele>593.208008</ele>
        <time>2018-08-18T13:10:33.000Z</time>
      </trkpt>
      <trkpt lat="42.9955230" lon="-1.6330260">
        <ele>593.221008</ele>
        <time>2018-08-18T13:10:32.000Z</time>
      </trkpt>
      <trkpt lat="42.9956080" lon="-1.6330760">
        <ele>593.328979</ele>
        <time>2018-08-18T13:10:31.000Z</time>
      </trkpt>
      <trkpt lat="42.9956960" lon="-1.6331250">
        <ele>593.565979</ele>
        <time>2018-08-18T13:10:30.000Z</time>
      </trkpt>
      <trkpt lat="42.9957840" lon="-1.6331730">
        <ele>593.833984</ele>
        <time>2018-08-18T13:10:29.000Z</time>
      </trkpt>
      <trkpt lat="42.9958730" lon="-1.6332210">
        <ele>594.124023</ele>
        <time>2018-08-18T13:10:28.000Z</time>
      </trkpt>
      <trkpt lat="42.9959610" lon="-1.6332540">
        <ele>594.476013</ele>
        <time>2018-08-18T13:10:27.000Z</time>
      </trkpt>
      <trkpt lat="42.9960500" lon="-1.6333030">
        <ele>594.751038</ele>
        <time>2018-08-18T13:10:26.000Z</time>
      </trkpt>
      <trkpt lat="42.9961390" lon="-1.6333580">
        <ele>595.045959</ele>
        <time>2018-08-18T13:10:25.000Z</time>
      </trkpt>
      <trkpt lat="42.9962250" lon="-1.6334070">
        <ele>595.353027</ele>
        <time>2018-08-18T13:10:24.000Z</time>
      </trkpt>
      <trkpt lat="42.9963110" lon="-1.6334460">
        <ele>595.672974</ele>
        <time>2018-08-18T13:10:23.000Z</time>
      </trkpt>
      <trkpt lat="42.9963970" lon="-1.6334790">
        <ele>596.058044</ele>
        <time>2018-08-18T13:10:22.000Z</time>
      </trkpt>
      <trkpt lat="42.9964870" lon="-1.6335110">
        <ele>596.208008</ele>
        <time>2018-08-18T13:10:21.000Z</time>
      </trkpt>
      <trkpt lat="42.9965780" lon="-1.6335450">
        <ele>596.425964</ele>
        <time>2018-08-18T13:10:20.000Z</time>
      </trkpt>
      <trkpt lat="42.9966670" lon="-1.6335870">
        <ele>596.641968</ele>
        <time>2018-08-18T13:10:19.000Z</time>
      </trkpt>
      <trkpt lat="42.9967510" lon="-1.6336250">
        <ele>596.868042</ele>
        <time>2018-08-18T13:10:18.000Z</time>
      </trkpt>
      <trkpt lat="42.9968350" lon="-1.6336670">
        <ele>597.018982</ele>
        <time>2018-08-18T13:10:17.000Z</time>
      </trkpt>
      <trkpt lat="42.9969160" lon="-1.6337040">
        <ele>597.379028</ele>
        <time>2018-08-18T13:10:16.000Z</time>
      </trkpt>
      <trkpt lat="42.9970040" lon="-1.6337430">
        <ele>597.661011</ele>
        <time>2018-08-18T13:10:15.000Z</time>
      </trkpt>
      <trkpt lat="42.9970910" lon="-1.6337810">
        <ele>598.075989</ele>
        <time>2018-08-18T13:10:14.000Z</time>
      </trkpt>
      <trkpt lat="42.9971820" lon="-1.6338200">
        <ele>598.431030</ele>
        <time>2018-08-18T13:10:13.000Z</time>
      </trkpt>
      <trkpt lat="42.9972660" lon="-1.6338450">
        <ele>598.828003</ele>
        <time>2018-08-18T13:10:12.000Z</time>
      </trkpt>
      <trkpt lat="42.9973490" lon="-1.6338690">
        <ele>599.237976</ele>
        <time>2018-08-18T13:10:11.000Z</time>
      </trkpt>
      <trkpt lat="42.9974290" lon="-1.6339130">
        <ele>599.663025</ele>
        <time>2018-08-18T13:10:10.000Z</time>
      </trkpt>
      <trkpt lat="42.9974970" lon="-1.6339540">
        <ele>600.007996</ele>
        <time>2018-08-18T13:10:09.000Z</time>
      </trkpt>
      <trkpt lat="42.9975690" lon="-1.6339840">
        <ele>600.319031</ele>
        <time>2018-08-18T13:10:08.000Z</time>
      </trkpt>
      <trkpt lat="42.9976360" lon="-1.6340240">
        <ele>600.508972</ele>
        <time>2018-08-18T13:10:07.000Z</time>
      </trkpt>
      <trkpt lat="42.9977180" lon="-1.6340520">
        <ele>600.718994</ele>
        <time>2018-08-18T13:10:06.000Z</time>
      </trkpt>
      <trkpt lat="42.9977860" lon="-1.6340820">
        <ele>600.971008</ele>
        <time>2018-08-18T13:10:05.000Z</time>
      </trkpt>
      <trkpt lat="42.9978520" lon="-1.6341100">
        <ele>601.151001</ele>
        <time>2018-08-18T13:10:04.000Z</time>
      </trkpt>
      <trkpt lat="42.9979150" lon="-1.6341370">
        <ele>601.372986</ele>
        <time>2018-08-18T13:10:03.000Z</time>
      </trkpt>
      <trkpt lat="42.9979760" lon="-1.6341640">
        <ele>601.547974</ele>
        <time>2018-08-18T13:10:02.000Z</time>
      </trkpt>
      <trkpt lat="42.9980340" lon="-1.6341880">
        <ele>601.792969</ele>
        <time>2018-08-18T13:10:01.000Z</time>
      </trkpt>
      <trkpt lat="42.9980890" lon="-1.6342100">
        <ele>601.869995</ele>
        <time>2018-08-18T13:10:00.000Z</time>
      </trkpt>
      <trkpt lat="42.9981400" lon="-1.6342300">
        <ele>601.959961</ele>
        <time>2018-08-18T13:09:59.000Z</time>
      </trkpt>
      <trkpt lat="42.9982290" lon="-1.6342660">
        <ele>602.065002</ele>
        <time>2018-08-18T13:09:57.000Z</time>
      </trkpt>
      <trkpt lat="42.9982910" lon="-1.6343040">
        <ele>602.308044</ele>
        <time>2018-08-18T13:09:55.000Z</time>
      </trkpt>
      <trkpt lat="42.9983190" lon="-1.6343570">
        <ele>602.617004</ele>
        <time>2018-08-18T13:09:53.000Z</time>
      </trkpt>
      <trkpt lat="42.9983100" lon="-1.6344370">
        <ele>602.869995</ele>
        <time>2018-08-18T13:09:50.000Z</time>
      </trkpt>
      <trkpt lat="42.9982950" lon="-1.6344990">
        <ele>602.638000</ele>
        <time>2018-08-18T13:09:48.000Z</time>
      </trkpt>
      <trkpt lat="42.9982850" lon="-1.6345720">
        <ele>602.674988</ele>
        <time>2018-08-18T13:09:46.000Z</time>
      </trkpt>
      <trkpt lat="42.9982740" lon="-1.6346530">
        <ele>602.625000</ele>
        <time>2018-08-18T13:09:44.000Z</time>
      </trkpt>
      <trkpt lat="42.9982570" lon="-1.6347290">
        <ele>602.637024</ele>
        <time>2018-08-18T13:09:42.000Z</time>
      </trkpt>
      <trkpt lat="42.9982380" lon="-1.6348000">
        <ele>602.692017</ele>
        <time>2018-08-18T13:09:40.000Z</time>
      </trkpt>
      <trkpt lat="42.9982210" lon="-1.6348730">
        <ele>602.527039</ele>
        <time>2018-08-18T13:09:38.000Z</time>
      </trkpt>
      <trkpt lat="42.9982010" lon="-1.6349490">
        <ele>602.393982</ele>
        <time>2018-08-18T13:09:36.000Z</time>
      </trkpt>
      <trkpt lat="42.9981830" lon="-1.6350220">
        <ele>602.073975</ele>
        <time>2018-08-18T13:09:34.000Z</time>
      </trkpt>
      <trkpt lat="42.9981650" lon="-1.6350980">
        <ele>601.648987</ele>
        <time>2018-08-18T13:09:32.000Z</time>
      </trkpt>
      <trkpt lat="42.9981530" lon="-1.6351720">
        <ele>601.408020</ele>
        <time>2018-08-18T13:09:30.000Z</time>
      </trkpt>
      <trkpt lat="42.9981400" lon="-1.6352450">
        <ele>601.313965</ele>
        <time>2018-08-18T13:09:28.000Z</time>
      </trkpt>
      <trkpt lat="42.9981280" lon="-1.6353190">
        <ele>601.213013</ele>
        <time>2018-08-18T13:09:26.000Z</time>
      </trkpt>
      <trkpt lat="42.9981210" lon="-1.6353980">
        <ele>601.072021</ele>
        <time>2018-08-18T13:09:24.000Z</time>
      </trkpt>
      <trkpt lat="42.9981200" lon="-1.6354730">
        <ele>600.778992</ele>
        <time>2018-08-18T13:09:22.000Z</time>
      </trkpt>
      <trkpt lat="42.9981290" lon="-1.6355440">
        <ele>600.549011</ele>
        <time>2018-08-18T13:09:20.000Z</time>
      </trkpt>
      <trkpt lat="42.9981420" lon="-1.6356170">
        <ele>600.310974</ele>
        <time>2018-08-18T13:09:18.000Z</time>
      </trkpt>
      <trkpt lat="42.9981600" lon="-1.6356930">
        <ele>600.075989</ele>
        <time>2018-08-18T13:09:16.000Z</time>
      </trkpt>
      <trkpt lat="42.9981820" lon="-1.6357660">
        <ele>599.791016</ele>
        <time>2018-08-18T13:09:14.000Z</time>
      </trkpt>
      <trkpt lat="42.9982070" lon="-1.6358350">
        <ele>599.328003</ele>
        <time>2018-08-18T13:09:12.000Z</time>
      </trkpt>
      <trkpt lat="42.9982330" lon="-1.6359000">
        <ele>599.078003</ele>
        <time>2018-08-18T13:09:10.000Z</time>
      </trkpt>
      <trkpt lat="42.9982590" lon="-1.6359600">
        <ele>598.742981</ele>
        <time>2018-08-18T13:09:08.000Z</time>
      </trkpt>
      <trkpt lat="42.9982840" lon="-1.6360240">
        <ele>598.408020</ele>
        <time>2018-08-18T13:09:06.000Z</time>
      </trkpt>
      <trkpt lat="42.9983070" lon="-1.6360890">
        <ele>598.112976</ele>
        <time>2018-08-18T13:09:04.000Z</time>
      </trkpt>
      <trkpt lat="42.9983310" lon="-1.6361550">
        <ele>597.875977</ele>
        <time>2018-08-18T13:09:02.000Z</time>
      </trkpt>
      <trkpt lat="42.9983510" lon="-1.6362180">
        <ele>597.515991</ele>
        <time>2018-08-18T13:09:00.000Z</time>
      </trkpt>
      <trkpt lat="42.9983740" lon="-1.6362810">
        <ele>597.291992</ele>
        <time>2018-08-18T13:08:58.000Z</time>
      </trkpt>
      <trkpt lat="42.9984030" lon="-1.6363430">
        <ele>597.052002</ele>
        <time>2018-08-18T13:08:56.000Z</time>
      </trkpt>
      <trkpt lat="42.9984310" lon="-1.6364070">
        <ele>596.884033</ele>
        <time>2018-08-18T13:08:54.000Z</time>
      </trkpt>
      <trkpt lat="42.9984590" lon="-1.6364760">
        <ele>596.799011</ele>
        <time>2018-08-18T13:08:52.000Z</time>
      </trkpt>
      <trkpt lat="42.9984880" lon="-1.6365500">
        <ele>596.693970</ele>
        <time>2018-08-18T13:08:50.000Z</time>
      </trkpt>
      <trkpt lat="42.9985170" lon="-1.6366290">
        <ele>596.560974</ele>
        <time>2018-08-18T13:08:48.000Z</time>
      </trkpt>
      <trkpt lat="42.9985460" lon="-1.6367120">
        <ele>596.531006</ele>
        <time>2018-08-18T13:08:46.000Z</time>
      </trkpt>
      <trkpt lat="42.9985770" lon="-1.6368030">
        <ele>596.476013</ele>
        <time>2018-08-18T13:08:44.000Z</time>
      </trkpt>
      <trkpt lat="42.9986140" lon="-1.6368950">
        <ele>596.107971</ele>
        <time>2018-08-18T13:08:42.000Z</time>
      </trkpt>
      <trkpt lat="42.9986490" lon="-1.6369910">
        <ele>595.717041</ele>
        <time>2018-08-18T13:08:40.000Z</time>
      </trkpt>
      <trkpt lat="42.9986770" lon="-1.6370960">
        <ele>595.661011</ele>
        <time>2018-08-18T13:08:38.000Z</time>
      </trkpt>
      <trkpt lat="42.9987240" lon="-1.6371940">
        <ele>595.747986</ele>
        <time>2018-08-18T13:08:36.000Z</time>
      </trkpt>
      <trkpt lat="42.9987640" lon="-1.6372900">
        <ele>595.960022</ele>
        <time>2018-08-18T13:08:34.000Z</time>
      </trkpt>
      <trkpt lat="42.9987990" lon="-1.6373880">
        <ele>596.130005</ele>
        <time>2018-08-18T13:08:32.000Z</time>
      </trkpt>
      <trkpt lat="42.9988320" lon="-1.6374470">
        <ele>596.382019</ele>
        <time>2018-08-18T13:08:31.000Z</time>
      </trkpt>
      <trkpt lat="42.9988570" lon="-1.6375000">
        <ele>596.536987</ele>
        <time>2018-08-18T13:08:30.000Z</time>
      </trkpt>
      <trkpt lat="42.9988830" lon="-1.6375510">
        <ele>596.731995</ele>
        <time>2018-08-18T13:08:29.000Z</time>
      </trkpt>
      <trkpt lat="42.9989330" lon="-1.6376500">
        <ele>597.438965</ele>
        <time>2018-08-18T13:08:27.000Z</time>
      </trkpt>
      <trkpt lat="42.9989540" lon="-1.6377060">
        <ele>597.629028</ele>
        <time>2018-08-18T13:08:26.000Z</time>
      </trkpt>
      <trkpt lat="42.9989820" lon="-1.6378200">
        <ele>597.883972</ele>
        <time>2018-08-18T13:08:24.000Z</time>
      </trkpt>
      <trkpt lat="42.9989740" lon="-1.6379290">
        <ele>597.907959</ele>
        <time>2018-08-18T13:08:22.000Z</time>
      </trkpt>
      <trkpt lat="42.9989370" lon="-1.6380020">
        <ele>597.611023</ele>
        <time>2018-08-18T13:08:20.000Z</time>
      </trkpt>
      <trkpt lat="42.9988850" lon="-1.6380480">
        <ele>597.382996</ele>
        <time>2018-08-18T13:08:18.000Z</time>
      </trkpt>
      <trkpt lat="42.9988310" lon="-1.6380900">
        <ele>597.223022</ele>
        <time>2018-08-18T13:08:16.000Z</time>
      </trkpt>
      <trkpt lat="42.9987790" lon="-1.6381320">
        <ele>597.039001</ele>
        <time>2018-08-18T13:08:14.000Z</time>
      </trkpt>
      <trkpt lat="42.9987220" lon="-1.6381750">
        <ele>596.979004</ele>
        <time>2018-08-18T13:08:12.000Z</time>
      </trkpt>
      <trkpt lat="42.9986580" lon="-1.6382220">
        <ele>596.931030</ele>
        <time>2018-08-18T13:08:10.000Z</time>
      </trkpt>
      <trkpt lat="42.9985920" lon="-1.6382730">
        <ele>597.156006</ele>
        <time>2018-08-18T13:08:08.000Z</time>
      </trkpt>
      <trkpt lat="42.9985280" lon="-1.6383250">
        <ele>597.171021</ele>
        <time>2018-08-18T13:08:06.000Z</time>
      </trkpt>
      <trkpt lat="42.9984640" lon="-1.6383800">
        <ele>597.018005</ele>
        <time>2018-08-18T13:08:04.000Z</time>
      </trkpt>
      <trkpt lat="42.9983950" lon="-1.6384310">
        <ele>596.817993</ele>
        <time>2018-08-18T13:08:02.000Z</time>
      </trkpt>
      <trkpt lat="42.9983230" lon="-1.6384750">
        <ele>596.723022</ele>
        <time>2018-08-18T13:08:00.000Z</time>
      </trkpt>
      <trkpt lat="42.9982550" lon="-1.6385170">
        <ele>596.708008</ele>
        <time>2018-08-18T13:07:58.000Z</time>
      </trkpt>
      <trkpt lat="42.9981890" lon="-1.6385610">
        <ele>596.716980</ele>
        <time>2018-08-18T13:07:56.000Z</time>
      </trkpt>
      <trkpt lat="42.9981290" lon="-1.6386100">
        <ele>596.697998</ele>
        <time>2018-08-18T13:07:54.000Z</time>
      </trkpt>
      <trkpt lat="42.9980720" lon="-1.6386580">
        <ele>596.317993</ele>
        <time>2018-08-18T13:07:52.000Z</time>
      </trkpt>
      <trkpt lat="42.9980190" lon="-1.6387170">
        <ele>596.031006</ele>
        <time>2018-08-18T13:07:50.000Z</time>
      </trkpt>
      <trkpt lat="42.9979720" lon="-1.6387860">
        <ele>595.710999</ele>
        <time>2018-08-18T13:07:48.000Z</time>
      </trkpt>
      <trkpt lat="42.9979260" lon="-1.6388640">
        <ele>595.453003</ele>
        <time>2018-08-18T13:07:46.000Z</time>
      </trkpt>
      <trkpt lat="42.9978820" lon="-1.6389440">
        <ele>595.278015</ele>
        <time>2018-08-18T13:07:44.000Z</time>
      </trkpt>
      <trkpt lat="42.9978400" lon="-1.6390290">
        <ele>595.143005</ele>
        <time>2018-08-18T13:07:42.000Z</time>
      </trkpt>
      <trkpt lat="42.9977970" lon="-1.6391120">
        <ele>595.039978</ele>
        <time>2018-08-18T13:07:40.000Z</time>
      </trkpt>
      <trkpt lat="42.9977550" lon="-1.6391940">
        <ele>594.960022</ele>
        <time>2018-08-18T13:07:38.000Z</time>
      </trkpt>
      <trkpt lat="42.9977120" lon="-1.6392800">
        <ele>594.875000</ele>
        <time>2018-08-18T13:07:36.000Z</time>
      </trkpt>
      <trkpt lat="42.9976660" lon="-1.6393690">
        <ele>594.708008</ele>
        <time>2018-08-18T13:07:34.000Z</time>
      </trkpt>
      <trkpt lat="42.9976190" lon="-1.6394620">
        <ele>594.721008</ele>
        <time>2018-08-18T13:07:32.000Z</time>
      </trkpt>
      <trkpt lat="42.9975690" lon="-1.6395600">
        <ele>594.801025</ele>
        <time>2018-08-18T13:07:30.000Z</time>
      </trkpt>
      <trkpt lat="42.9975180" lon="-1.6396590">
        <ele>595.039001</ele>
        <time>2018-08-18T13:07:28.000Z</time>
      </trkpt>
      <trkpt lat="42.9974700" lon="-1.6397610">
        <ele>595.256958</ele>
        <time>2018-08-18T13:07:26.000Z</time>
      </trkpt>
      <trkpt lat="42.9974450" lon="-1.6398130">
        <ele>595.237000</ele>
        <time>2018-08-18T13:07:25.000Z</time>
      </trkpt>
      <trkpt lat="42.9974180" lon="-1.6398630">
        <ele>595.239014</ele>
        <time>2018-08-18T13:07:24.000Z</time>
      </trkpt>
      <trkpt lat="42.9973900" lon="-1.6399110">
        <ele>595.283997</ele>
        <time>2018-08-18T13:07:23.000Z</time>
      </trkpt>
      <trkpt lat="42.9973360" lon="-1.6400030">
        <ele>595.299011</ele>
        <time>2018-08-18T13:07:21.000Z</time>
      </trkpt>
      <trkpt lat="42.9973080" lon="-1.6400520">
        <ele>595.286011</ele>
        <time>2018-08-18T13:07:20.000Z</time>
      </trkpt>
      <trkpt lat="42.9972800" lon="-1.6401020">
        <ele>595.226013</ele>
        <time>2018-08-18T13:07:19.000Z</time>
      </trkpt>
      <trkpt lat="42.9972530" lon="-1.6401510">
        <ele>595.281006</ele>
        <time>2018-08-18T13:07:18.000Z</time>
      </trkpt>
      <trkpt lat="42.9972020" lon="-1.6402430">
        <ele>595.208008</ele>
        <time>2018-08-18T13:07:16.000Z</time>
      </trkpt>
      <trkpt lat="42.9971550" lon="-1.6403260">
        <ele>595.119995</ele>
        <time>2018-08-18T13:07:14.000Z</time>
      </trkpt>
      <trkpt lat="42.9971110" lon="-1.6403970">
        <ele>595.173035</ele>
        <time>2018-08-18T13:07:12.000Z</time>
      </trkpt>
      <trkpt lat="42.9970700" lon="-1.6404600">
        <ele>595.192017</ele>
        <time>2018-08-18T13:07:10.000Z</time>
      </trkpt>
      <trkpt lat="42.9970300" lon="-1.6405150">
        <ele>595.179016</ele>
        <time>2018-08-18T13:07:08.000Z</time>
      </trkpt>
      <trkpt lat="42.9969930" lon="-1.6405660">
        <ele>594.939026</ele>
        <time>2018-08-18T13:07:06.000Z</time>
      </trkpt>
      <trkpt lat="42.9969590" lon="-1.6406150">
        <ele>594.611023</ele>
        <time>2018-08-18T13:07:04.000Z</time>
      </trkpt>
      <trkpt lat="42.9969260" lon="-1.6406620">
        <ele>594.286011</ele>
        <time>2018-08-18T13:07:02.000Z</time>
      </trkpt>
      <trkpt lat="42.9968840" lon="-1.6407090">
        <ele>593.960999</ele>
        <time>2018-08-18T13:07:00.000Z</time>
      </trkpt>
      <trkpt lat="42.9968420" lon="-1.6407620">
        <ele>593.687988</ele>
        <time>2018-08-18T13:06:58.000Z</time>
      </trkpt>
      <trkpt lat="42.9968090" lon="-1.6408080">
        <ele>593.537964</ele>
        <time>2018-08-18T13:06:56.000Z</time>
      </trkpt>
      <trkpt lat="42.9967740" lon="-1.6408540">
        <ele>593.382996</ele>
        <time>2018-08-18T13:06:54.000Z</time>
      </trkpt>
      <trkpt lat="42.9967400" lon="-1.6409040">
        <ele>593.208008</ele>
        <time>2018-08-18T13:06:52.000Z</time>
      </trkpt>
      <trkpt lat="42.9967050" lon="-1.6409470">
        <ele>593.010986</ele>
        <time>2018-08-18T13:06:50.000Z</time>
      </trkpt>
      <trkpt lat="42.9966670" lon="-1.6409860">
        <ele>592.864990</ele>
        <time>2018-08-18T13:06:48.000Z</time>
      </trkpt>
      <trkpt lat="42.9966270" lon="-1.6410280">
        <ele>592.515015</ele>
        <time>2018-08-18T13:06:46.000Z</time>
      </trkpt>
      <trkpt lat="42.9965920" lon="-1.6410700">
        <ele>592.240967</ele>
        <time>2018-08-18T13:06:44.000Z</time>
      </trkpt>
      <trkpt lat="42.9965390" lon="-1.6411270">
        <ele>592.140991</ele>
        <time>2018-08-18T13:06:41.000Z</time>
      </trkpt>
      <trkpt lat="42.9965000" lon="-1.6411650">
        <ele>592.183044</ele>
        <time>2018-08-18T13:06:39.000Z</time>
      </trkpt>
      <trkpt lat="42.9964610" lon="-1.6412050">
        <ele>592.037964</ele>
        <time>2018-08-18T13:06:37.000Z</time>
      </trkpt>
      <trkpt lat="42.9964240" lon="-1.6412450">
        <ele>591.822998</ele>
        <time>2018-08-18T13:06:35.000Z</time>
      </trkpt>
      <trkpt lat="42.9963700" lon="-1.6413000">
        <ele>591.150024</ele>
        <time>2018-08-18T13:06:32.000Z</time>
      </trkpt>
      <trkpt lat="42.9963180" lon="-1.6413550">
        <ele>590.609985</ele>
        <time>2018-08-18T13:06:29.000Z</time>
      </trkpt>
      <trkpt lat="42.9962810" lon="-1.6413930">
        <ele>590.415039</ele>
        <time>2018-08-18T13:06:27.000Z</time>
      </trkpt>
      <trkpt lat="42.9962440" lon="-1.6414300">
        <ele>590.108032</ele>
        <time>2018-08-18T13:06:25.000Z</time>
      </trkpt>
      <trkpt lat="42.9962050" lon="-1.6414680">
        <ele>590.013000</ele>
        <time>2018-08-18T13:06:23.000Z</time>
      </trkpt>
      <trkpt lat="42.9961660" lon="-1.6415110">
        <ele>590.049011</ele>
        <time>2018-08-18T13:06:21.000Z</time>
      </trkpt>
      <trkpt lat="42.9961290" lon="-1.6415550">
        <ele>589.937012</ele>
        <time>2018-08-18T13:06:19.000Z</time>
      </trkpt>
      <trkpt lat="42.9960920" lon="-1.6415960">
        <ele>589.625000</ele>
        <time>2018-08-18T13:06:17.000Z</time>
      </trkpt>
      <trkpt lat="42.9960520" lon="-1.6416340">
        <ele>589.364990</ele>
        <time>2018-08-18T13:06:15.000Z</time>
      </trkpt>
      <trkpt lat="42.9960130" lon="-1.6416710">
        <ele>589.086975</ele>
        <time>2018-08-18T13:06:13.000Z</time>
      </trkpt>
      <trkpt lat="42.9959730" lon="-1.6417080">
        <ele>588.832031</ele>
        <time>2018-08-18T13:06:11.000Z</time>
      </trkpt>
      <trkpt lat="42.9959320" lon="-1.6417500">
        <ele>588.666992</ele>
        <time>2018-08-18T13:06:09.000Z</time>
      </trkpt>
      <trkpt lat="42.9958930" lon="-1.6417900">
        <ele>588.473999</ele>
        <time>2018-08-18T13:06:07.000Z</time>
      </trkpt>
      <trkpt lat="42.9958530" lon="-1.6418270">
        <ele>588.133972</ele>
        <time>2018-08-18T13:06:05.000Z</time>
      </trkpt>
      <trkpt lat="42.9958140" lon="-1.6418660">
        <ele>587.869019</ele>
        <time>2018-08-18T13:06:03.000Z</time>
      </trkpt>
      <trkpt lat="42.9957740" lon="-1.6419040">
        <ele>587.507996</ele>
        <time>2018-08-18T13:06:01.000Z</time>
      </trkpt>
      <trkpt lat="42.9957360" lon="-1.6419420">
        <ele>587.320007</ele>
        <time>2018-08-18T13:05:59.000Z</time>
      </trkpt>
      <trkpt lat="42.9956850" lon="-1.6419970">
        <ele>587.127991</ele>
        <time>2018-08-18T13:05:56.000Z</time>
      </trkpt>
      <trkpt lat="42.9956500" lon="-1.6420350">
        <ele>587.174988</ele>
        <time>2018-08-18T13:05:54.000Z</time>
      </trkpt>
      <trkpt lat="42.9956140" lon="-1.6420760">
        <ele>587.161011</ele>
        <time>2018-08-18T13:05:52.000Z</time>
      </trkpt>
      <trkpt lat="42.9955790" lon="-1.6421190">
        <ele>586.921021</ele>
        <time>2018-08-18T13:05:50.000Z</time>
      </trkpt>
      <trkpt lat="42.9955400" lon="-1.6421600">
        <ele>586.622986</ele>
        <time>2018-08-18T13:05:48.000Z</time>
      </trkpt>
      <trkpt lat="42.9954970" lon="-1.6422030">
        <ele>586.377991</ele>
        <time>2018-08-18T13:05:46.000Z</time>
      </trkpt>
      <trkpt lat="42.9954580" lon="-1.6422460">
        <ele>586.162964</ele>
        <time>2018-08-18T13:05:44.000Z</time>
      </trkpt>
      <trkpt lat="42.9954200" lon="-1.6422840">
        <ele>585.890015</ele>
        <time>2018-08-18T13:05:42.000Z</time>
      </trkpt>
      <trkpt lat="42.9953830" lon="-1.6423200">
        <ele>585.770020</ele>
        <time>2018-08-18T13:05:40.000Z</time>
      </trkpt>
      <trkpt lat="42.9953460" lon="-1.6423550">
        <ele>585.635010</ele>
        <time>2018-08-18T13:05:38.000Z</time>
      </trkpt>
      <trkpt lat="42.9953090" lon="-1.6423910">
        <ele>585.507996</ele>
        <time>2018-08-18T13:05:36.000Z</time>
      </trkpt>
      <trkpt lat="42.9952720" lon="-1.6424290">
        <ele>585.221008</ele>
        <time>2018-08-18T13:05:34.000Z</time>
      </trkpt>
      <trkpt lat="42.9952380" lon="-1.6424720">
        <ele>585.101013</ele>
        <time>2018-08-18T13:05:32.000Z</time>
      </trkpt>
      <trkpt lat="42.9952000" lon="-1.6425160">
        <ele>585.039001</ele>
        <time>2018-08-18T13:05:30.000Z</time>
      </trkpt>
      <trkpt lat="42.9951620" lon="-1.6425580">
        <ele>585.245972</ele>
        <time>2018-08-18T13:05:28.000Z</time>
      </trkpt>
      <trkpt lat="42.9951240" lon="-1.6425990">
        <ele>585.156006</ele>
        <time>2018-08-18T13:05:26.000Z</time>
      </trkpt>
      <trkpt lat="42.9950820" lon="-1.6426380">
        <ele>584.898010</ele>
        <time>2018-08-18T13:05:24.000Z</time>
      </trkpt>
      <trkpt lat="42.9950410" lon="-1.6426730">
        <ele>584.643005</ele>
        <time>2018-08-18T13:05:22.000Z</time>
      </trkpt>
      <trkpt lat="42.9950000" lon="-1.6427090">
        <ele>584.437988</ele>
        <time>2018-08-18T13:05:20.000Z</time>
      </trkpt>
      <trkpt lat="42.9949580" lon="-1.6427470">
        <ele>584.224976</ele>
        <time>2018-08-18T13:05:18.000Z</time>
      </trkpt>
      <trkpt lat="42.9949220" lon="-1.6427870">
        <ele>583.924988</ele>
        <time>2018-08-18T13:05:16.000Z</time>
      </trkpt>
      <trkpt lat="42.9948850" lon="-1.6428250">
        <ele>583.960022</ele>
        <time>2018-08-18T13:05:14.000Z</time>
      </trkpt>
      <trkpt lat="42.9948480" lon="-1.6428640">
        <ele>583.807983</ele>
        <time>2018-08-18T13:05:12.000Z</time>
      </trkpt>
      <trkpt lat="42.9948120" lon="-1.6429060">
        <ele>583.817017</ele>
        <time>2018-08-18T13:05:10.000Z</time>
      </trkpt>
      <trkpt lat="42.9947790" lon="-1.6429490">
        <ele>583.760986</ele>
        <time>2018-08-18T13:05:08.000Z</time>
      </trkpt>
      <trkpt lat="42.9947510" lon="-1.6429980">
        <ele>583.680969</ele>
        <time>2018-08-18T13:05:06.000Z</time>
      </trkpt>
      <trkpt lat="42.9947220" lon="-1.6430530">
        <ele>583.487000</ele>
        <time>2018-08-18T13:05:04.000Z</time>
      </trkpt>
      <trkpt lat="42.9946940" lon="-1.6431050">
        <ele>583.257019</ele>
        <time>2018-08-18T13:05:02.000Z</time>
      </trkpt>
      <trkpt lat="42.9946670" lon="-1.6431560">
        <ele>583.098999</ele>
        <time>2018-08-18T13:05:00.000Z</time>
      </trkpt>
      <trkpt lat="42.9946320" lon="-1.6432270">
        <ele>582.843994</ele>
        <time>2018-08-18T13:04:57.000Z</time>
      </trkpt>
      <trkpt lat="42.9946100" lon="-1.6432980">
        <ele>582.559021</ele>
        <time>2018-08-18T13:04:54.000Z</time>
      </trkpt>
      <trkpt lat="42.9946050" lon="-1.6433610">
        <ele>582.325989</ele>
        <time>2018-08-18T13:04:51.000Z</time>
      </trkpt>
      <trkpt lat="42.9946070" lon="-1.6434440">
        <ele>582.186035</ele>
        <time>2018-08-18T13:04:48.000Z</time>
      </trkpt>
      <trkpt lat="42.9945950" lon="-1.6435040">
        <ele>582.111023</ele>
        <time>2018-08-18T13:04:46.000Z</time>
      </trkpt>
      <trkpt lat="42.9945690" lon="-1.6435640">
        <ele>582.007996</ele>
        <time>2018-08-18T13:04:44.000Z</time>
      </trkpt>
      <trkpt lat="42.9945340" lon="-1.6436220">
        <ele>581.226990</ele>
        <time>2018-08-18T13:04:42.000Z</time>
      </trkpt>
      <trkpt lat="42.9944990" lon="-1.6436840">
        <ele>580.307007</ele>
        <time>2018-08-18T13:04:40.000Z</time>
      </trkpt>
      <trkpt lat="42.9944830" lon="-1.6437450">
        <ele>579.999023</ele>
        <time>2018-08-18T13:04:38.000Z</time>
      </trkpt>
      <trkpt lat="42.9945000" lon="-1.6438300">
        <ele>579.369995</ele>
        <time>2018-08-18T13:04:35.000Z</time>
      </trkpt>
      <trkpt lat="42.9945060" lon="-1.6438910">
        <ele>579.220032</ele>
        <time>2018-08-18T13:04:33.000Z</time>
      </trkpt>
      <trkpt lat="42.9945170" lon="-1.6439540">
        <ele>579.391968</ele>
        <time>2018-08-18T13:04:31.000Z</time>
      </trkpt>
      <trkpt lat="42.9945310" lon="-1.6440150">
        <ele>579.586975</ele>
        <time>2018-08-18T13:04:29.000Z</time>
      </trkpt>
      <trkpt lat="42.9945500" lon="-1.6440780">
        <ele>579.781982</ele>
        <time>2018-08-18T13:04:27.000Z</time>
      </trkpt>
      <trkpt lat="42.9945720" lon="-1.6441430">
        <ele>579.859009</ele>
        <time>2018-08-18T13:04:25.000Z</time>
      </trkpt>
      <trkpt lat="42.9945970" lon="-1.6442020">
        <ele>580.188965</ele>
        <time>2018-08-18T13:04:23.000Z</time>
      </trkpt>
      <trkpt lat="42.9945850" lon="-1.6445590">
        <ele>576.549988</ele>
        <time>2019-05-02T09:18:10.000Z</time>
      </trkpt>
      <trkpt lat="42.9945310" lon="-1.6445880">
        <ele>576.327026</ele>
        <time>2019-05-02T09:18:11.000Z</time>
      </trkpt>
      <trkpt lat="42.9944830" lon="-1.6446400">
        <ele>576.184021</ele>
        <time>2019-05-02T09:18:12.000Z</time>
      </trkpt>
      <trkpt lat="42.9943910" lon="-1.6446910">
        <ele>575.690979</ele>
        <time>2019-05-02T09:18:14.000Z</time>
      </trkpt>
      <trkpt lat="42.9943390" lon="-1.6447110">
        <ele>575.558960</ele>
        <time>2019-05-02T09:18:15.000Z</time>
      </trkpt>
      <trkpt lat="42.9942730" lon="-1.6447300">
        <ele>575.445007</ele>
        <time>2019-05-02T09:18:16.000Z</time>
      </trkpt>
      <trkpt lat="42.9942220" lon="-1.6447600">
        <ele>575.346985</ele>
        <time>2019-05-02T09:18:17.000Z</time>
      </trkpt>
      <trkpt lat="42.9941730" lon="-1.6447880">
        <ele>575.210999</ele>
        <time>2019-05-02T09:18:18.000Z</time>
      </trkpt>
      <trkpt lat="42.9941120" lon="-1.6448030">
        <ele>575.108032</ele>
        <time>2019-05-02T09:18:19.000Z</time>
      </trkpt>
      <trkpt lat="42.9940590" lon="-1.6448140">
        <ele>575.087036</ele>
        <time>2019-05-02T09:18:20.000Z</time>
      </trkpt>
      <trkpt lat="42.9940050" lon="-1.6448290">
        <ele>574.989014</ele>
        <time>2019-05-02T09:18:21.000Z</time>
      </trkpt>
      <trkpt lat="42.9939560" lon="-1.6448520">
        <ele>574.843018</ele>
        <time>2019-05-02T09:18:22.000Z</time>
      </trkpt>
      <trkpt lat="42.9938800" lon="-1.6448740">
        <ele>574.619995</ele>
        <time>2019-05-02T09:18:24.000Z</time>
      </trkpt>
      <trkpt lat="42.9937960" lon="-1.6449240">
        <ele>574.476990</ele>
        <time>2019-05-02T09:18:26.000Z</time>
      </trkpt>
      <trkpt lat="42.9937490" lon="-1.6449490">
        <ele>574.494019</ele>
        <time>2019-05-02T09:18:27.000Z</time>
      </trkpt>
      <trkpt lat="42.9936930" lon="-1.6449600">
        <ele>574.430969</ele>
        <time>2019-05-02T09:18:28.000Z</time>
      </trkpt>
      <trkpt lat="42.9936330" lon="-1.6449710">
        <ele>574.549011</ele>
        <time>2019-05-02T09:18:29.000Z</time>
      </trkpt>
      <trkpt lat="42.9935780" lon="-1.6449840">
        <ele>574.578003</ele>
        <time>2019-05-02T09:18:30.000Z</time>
      </trkpt>
      <trkpt lat="42.9935180" lon="-1.6450010">
        <ele>574.533020</ele>
        <time>2019-05-02T09:18:31.000Z</time>
      </trkpt>
      <trkpt lat="42.9934600" lon="-1.6449950">
        <ele>574.526001</ele>
        <time>2019-05-02T09:18:32.000Z</time>
      </trkpt>
      <trkpt lat="42.9933970" lon="-1.6449900">
        <ele>574.408020</ele>
        <time>2019-05-02T09:18:33.000Z</time>
      </trkpt>
      <trkpt lat="42.9933500" lon="-1.6449670">
        <ele>574.369995</ele>
        <time>2019-05-02T09:18:34.000Z</time>
      </trkpt>
      <trkpt lat="42.9932930" lon="-1.6449560">
        <ele>574.252014</ele>
        <time>2019-05-02T09:18:35.000Z</time>
      </trkpt>
      <trkpt lat="42.9932340" lon="-1.6449440">
        <ele>574.186035</ele>
        <time>2019-05-02T09:18:36.000Z</time>
      </trkpt>
      <trkpt lat="42.9931740" lon="-1.6449360">
        <ele>574.192993</ele>
        <time>2019-05-02T09:18:37.000Z</time>
      </trkpt>
      <trkpt lat="42.9931080" lon="-1.6449310">
        <ele>574.179993</ele>
        <time>2019-05-02T09:18:38.000Z</time>
      </trkpt>
      <trkpt lat="42.9930620" lon="-1.6449150">
        <ele>574.156982</ele>
        <time>2019-05-02T09:18:39.000Z</time>
      </trkpt>
      <trkpt lat="42.9930050" lon="-1.6449060">
        <ele>574.123962</ele>
        <time>2019-05-02T09:18:40.000Z</time>
      </trkpt>
      <trkpt lat="42.9929540" lon="-1.6449000">
        <ele>574.192017</ele>
        <time>2019-05-02T09:18:41.000Z</time>
      </trkpt>
      <trkpt lat="42.9929080" lon="-1.6448880">
        <ele>574.153992</ele>
        <time>2019-05-02T09:18:42.000Z</time>
      </trkpt>
      <trkpt lat="42.9928590" lon="-1.6448760">
        <ele>574.255981</ele>
        <time>2019-05-02T09:18:43.000Z</time>
      </trkpt>
      <trkpt lat="42.9928110" lon="-1.6448620">
        <ele>574.210999</ele>
        <time>2019-05-02T09:18:44.000Z</time>
      </trkpt>
      <trkpt lat="42.9927610" lon="-1.6448560">
        <ele>574.208008</ele>
        <time>2019-05-02T09:18:45.000Z</time>
      </trkpt>
      <trkpt lat="42.9927100" lon="-1.6448420">
        <ele>574.187988</ele>
        <time>2019-05-02T09:18:46.000Z</time>
      </trkpt>
      <trkpt lat="42.9926550" lon="-1.6448260">
        <ele>574.040039</ele>
        <time>2019-05-02T09:18:47.000Z</time>
      </trkpt>
      <trkpt lat="42.9925920" lon="-1.6448240">
        <ele>573.993958</ele>
        <time>2019-05-02T09:18:48.000Z</time>
      </trkpt>
      <trkpt lat="42.9925340" lon="-1.6448020">
        <ele>573.950989</ele>
        <time>2019-05-02T09:18:49.000Z</time>
      </trkpt>
      <trkpt lat="42.9924720" lon="-1.6447990">
        <ele>573.968018</ele>
        <time>2019-05-02T09:18:50.000Z</time>
      </trkpt>
      <trkpt lat="42.9924170" lon="-1.6447790">
        <ele>573.955017</ele>
        <time>2019-05-02T09:18:51.000Z</time>
      </trkpt>
      <trkpt lat="42.9923610" lon="-1.6447720">
        <ele>573.932007</ele>
        <time>2019-05-02T09:18:52.000Z</time>
      </trkpt>
      <trkpt lat="42.9923030" lon="-1.6447600">
        <ele>573.979980</ele>
        <time>2019-05-02T09:18:53.000Z</time>
      </trkpt>
      <trkpt lat="42.9922370" lon="-1.6447540">
        <ele>573.921997</ele>
        <time>2019-05-02T09:18:54.000Z</time>
      </trkpt>
      <trkpt lat="42.9921780" lon="-1.6447420">
        <ele>573.961975</ele>
        <time>2019-05-02T09:18:55.000Z</time>
      </trkpt>
      <trkpt lat="42.9921150" lon="-1.6447220">
        <ele>573.807983</ele>
        <time>2019-05-02T09:18:56.000Z</time>
      </trkpt>
      <trkpt lat="42.9920600" lon="-1.6446760">
        <ele>573.708008</ele>
        <time>2019-05-02T09:18:57.000Z</time>
      </trkpt>
      <trkpt lat="42.9920020" lon="-1.6446470">
        <ele>573.644958</ele>
        <time>2019-05-02T09:18:58.000Z</time>
      </trkpt>
      <trkpt lat="42.9919310" lon="-1.6446350">
        <ele>573.557007</ele>
        <time>2019-05-02T09:18:59.000Z</time>
      </trkpt>
      <trkpt lat="42.9918750" lon="-1.6446290">
        <ele>573.580994</ele>
        <time>2019-05-02T09:19:00.000Z</time>
      </trkpt>
      <trkpt lat="42.9918200" lon="-1.6446040">
        <ele>573.567993</ele>
        <time>2019-05-02T09:19:01.000Z</time>
      </trkpt>
      <trkpt lat="42.9917560" lon="-1.6445800">
        <ele>573.585022</ele>
        <time>2019-05-02T09:19:02.000Z</time>
      </trkpt>
      <trkpt lat="42.9916930" lon="-1.6445490">
        <ele>573.552002</ele>
        <time>2019-05-02T09:19:03.000Z</time>
      </trkpt>
      <trkpt lat="42.9916330" lon="-1.6445280">
        <ele>573.368958</ele>
        <time>2019-05-02T09:19:04.000Z</time>
      </trkpt>
      <trkpt lat="42.9915720" lon="-1.6445060">
        <ele>573.336975</ele>
        <time>2019-05-02T09:19:05.000Z</time>
      </trkpt>
      <trkpt lat="42.9915110" lon="-1.6444840">
        <ele>573.242981</ele>
        <time>2019-05-02T09:19:06.000Z</time>
      </trkpt>
      <trkpt lat="42.9914470" lon="-1.6444600">
        <ele>573.164001</ele>
        <time>2019-05-02T09:19:07.000Z</time>
      </trkpt>
      <trkpt lat="42.9913780" lon="-1.6444340">
        <ele>573.010010</ele>
        <time>2019-05-02T09:19:08.000Z</time>
      </trkpt>
      <trkpt lat="42.9913170" lon="-1.6444160">
        <ele>573.007996</ele>
        <time>2019-05-02T09:19:09.000Z</time>
      </trkpt>
      <trkpt lat="42.9912520" lon="-1.6443960">
        <ele>573.076965</ele>
        <time>2019-05-02T09:19:10.000Z</time>
      </trkpt>
      <trkpt lat="42.9911890" lon="-1.6443700">
        <ele>573.059021</ele>
        <time>2019-05-02T09:19:11.000Z</time>
      </trkpt>
      <trkpt lat="42.9911240" lon="-1.6443450">
        <ele>572.963013</ele>
        <time>2019-05-02T09:19:12.000Z</time>
      </trkpt>
      <trkpt lat="42.9910590" lon="-1.6443230">
        <ele>572.830017</ele>
        <time>2019-05-02T09:19:13.000Z</time>
      </trkpt>
      <trkpt lat="42.9909870" lon="-1.6442970">
        <ele>572.627014</ele>
        <time>2019-05-02T09:19:14.000Z</time>
      </trkpt>
      <trkpt lat="42.9909210" lon="-1.6442780">
        <ele>572.674011</ele>
        <time>2019-05-02T09:19:15.000Z</time>
      </trkpt>
      <trkpt lat="42.9908560" lon="-1.6442550">
        <ele>572.531006</ele>
        <time>2019-05-02T09:19:16.000Z</time>
      </trkpt>
      <trkpt lat="42.9907960" lon="-1.6442350">
        <ele>572.319031</ele>
        <time>2019-05-02T09:19:17.000Z</time>
      </trkpt>
      <trkpt lat="42.9907320" lon="-1.6442210">
        <ele>572.237976</ele>
        <time>2019-05-02T09:19:18.000Z</time>
      </trkpt>
      <trkpt lat="42.9906650" lon="-1.6442110">
        <ele>572.270020</ele>
        <time>2019-05-02T09:19:19.000Z</time>
      </trkpt>
      <trkpt lat="42.9905980" lon="-1.6441920">
        <ele>572.016968</ele>
        <time>2019-05-02T09:19:20.000Z</time>
      </trkpt>
      <trkpt lat="42.9905330" lon="-1.6441970">
        <ele>571.908020</ele>
        <time>2019-05-02T09:19:21.000Z</time>
      </trkpt>
      <trkpt lat="42.9904660" lon="-1.6442020">
        <ele>571.925964</ele>
        <time>2019-05-02T09:19:22.000Z</time>
      </trkpt>
      <trkpt lat="42.9904010" lon="-1.6442200">
        <ele>571.877991</ele>
        <time>2019-05-02T09:19:23.000Z</time>
      </trkpt>
      <trkpt lat="42.9903390" lon="-1.6442560">
        <ele>571.641968</ele>
        <time>2019-05-02T09:19:24.000Z</time>
      </trkpt>
      <trkpt lat="42.9902720" lon="-1.6442810">
        <ele>571.439026</ele>
        <time>2019-05-02T09:19:25.000Z</time>
      </trkpt>
      <trkpt lat="42.9902080" lon="-1.6443120">
        <ele>571.346008</ele>
        <time>2019-05-02T09:19:26.000Z</time>
      </trkpt>
      <trkpt lat="42.9901450" lon="-1.6443460">
        <ele>571.042969</ele>
        <time>2019-05-02T09:19:27.000Z</time>
      </trkpt>
      <trkpt lat="42.9900820" lon="-1.6443800">
        <ele>570.809998</ele>
        <time>2019-05-02T09:19:28.000Z</time>
      </trkpt>
      <trkpt lat="42.9900210" lon="-1.6444190">
        <ele>570.757996</ele>
        <time>2019-05-02T09:19:29.000Z</time>
      </trkpt>
      <trkpt lat="42.9899580" lon="-1.6444540">
        <ele>570.421021</ele>
        <time>2019-05-02T09:19:30.000Z</time>
      </trkpt>
      <trkpt lat="42.9898970" lon="-1.6444950">
        <ele>570.341003</ele>
        <time>2019-05-02T09:19:31.000Z</time>
      </trkpt>
      <trkpt lat="42.9898340" lon="-1.6445350">
        <ele>570.104980</ele>
        <time>2019-05-02T09:19:32.000Z</time>
      </trkpt>
      <trkpt lat="42.9897700" lon="-1.6445730">
        <ele>569.607971</ele>
        <time>2019-05-02T09:19:33.000Z</time>
      </trkpt>
      <trkpt lat="42.9897070" lon="-1.6446120">
        <ele>569.335022</ele>
        <time>2019-05-02T09:19:34.000Z</time>
      </trkpt>
      <trkpt lat="42.9896410" lon="-1.6446430">
        <ele>569.087036</ele>
        <time>2019-05-02T09:19:35.000Z</time>
      </trkpt>
      <trkpt lat="42.9895720" lon="-1.6446750">
        <ele>568.731018</ele>
        <time>2019-05-02T09:19:36.000Z</time>
      </trkpt>
      <trkpt lat="42.9895080" lon="-1.6447210">
        <ele>568.528015</ele>
        <time>2019-05-02T09:19:37.000Z</time>
      </trkpt>
      <trkpt lat="42.9894390" lon="-1.6447460">
        <ele>568.114990</ele>
        <time>2019-05-02T09:19:38.000Z</time>
      </trkpt>
      <trkpt lat="42.9893710" lon="-1.6447720">
        <ele>567.992004</ele>
        <time>2019-05-02T09:19:39.000Z</time>
      </trkpt>
      <trkpt lat="42.9893010" lon="-1.6447860">
        <ele>567.619019</ele>
        <time>2019-05-02T09:19:40.000Z</time>
      </trkpt>
      <trkpt lat="42.9892300" lon="-1.6447910">
        <ele>567.367004</ele>
        <time>2019-05-02T09:19:41.000Z</time>
      </trkpt>
      <trkpt lat="42.9891600" lon="-1.6447850">
        <ele>567.199036</ele>
        <time>2019-05-02T09:19:42.000Z</time>
      </trkpt>
      <trkpt lat="42.9890900" lon="-1.6447780">
        <ele>567.007019</ele>
        <time>2019-05-02T09:19:43.000Z</time>
      </trkpt>
      <trkpt lat="42.9890230" lon="-1.6447620">
        <ele>566.927002</ele>
        <time>2019-05-02T09:19:44.000Z</time>
      </trkpt>
      <trkpt lat="42.9889560" lon="-1.6447620">
        <ele>566.807983</ele>
        <time>2019-05-02T09:19:45.000Z</time>
      </trkpt>
      <trkpt lat="42.9888910" lon="-1.6447770">
        <ele>566.832031</ele>
        <time>2019-05-02T09:19:46.000Z</time>
      </trkpt>
      <trkpt lat="42.9888300" lon="-1.6447810">
        <ele>566.864014</ele>
        <time>2019-05-02T09:19:47.000Z</time>
      </trkpt>
      <trkpt lat="42.9887720" lon="-1.6447710">
        <ele>566.937988</ele>
        <time>2019-05-02T09:19:48.000Z</time>
      </trkpt>
      <trkpt lat="42.9887240" lon="-1.6447500">
        <ele>567.174988</ele>
        <time>2019-05-02T09:19:49.000Z</time>
      </trkpt>
      <trkpt lat="42.9886840" lon="-1.6447170">
        <ele>567.372009</ele>
        <time>2019-05-02T09:19:50.000Z</time>
      </trkpt>
      <trkpt lat="42.9886210" lon="-1.6446400">
        <ele>567.999023</ele>
        <time>2019-05-02T09:19:52.000Z</time>
      </trkpt>
      <trkpt lat="42.9885620" lon="-1.6445850">
        <ele>568.616028</ele>
        <time>2019-05-02T09:19:54.000Z</time>
      </trkpt>
      <trkpt lat="42.9885010" lon="-1.6445530">
        <ele>569.463989</ele>
        <time>2019-05-02T09:19:56.000Z</time>
      </trkpt>
      <trkpt lat="42.9884490" lon="-1.6445100">
        <ele>570.127014</ele>
        <time>2019-05-02T09:19:58.000Z</time>
      </trkpt>
      <trkpt lat="42.9883990" lon="-1.6444610">
        <ele>570.867981</ele>
        <time>2019-05-02T09:20:00.000Z</time>
      </trkpt>
      <trkpt lat="42.9883480" lon="-1.6444080">
        <ele>571.813965</ele>
        <time>2019-05-02T09:20:02.000Z</time>
      </trkpt>
      <trkpt lat="42.9882970" lon="-1.6443580">
        <ele>572.507996</ele>
        <time>2019-05-02T09:20:04.000Z</time>
      </trkpt>
      <trkpt lat="42.9882580" lon="-1.6442800">
        <ele>573.165039</ele>
        <time>2019-05-02T09:20:06.000Z</time>
      </trkpt>
      <trkpt lat="42.9882070" lon="-1.6442230">
        <ele>573.646973</ele>
        <time>2019-05-02T09:20:08.000Z</time>
      </trkpt>
      <trkpt lat="42.9881540" lon="-1.6441690">
        <ele>574.041016</ele>
        <time>2019-05-02T09:20:10.000Z</time>
      </trkpt>
      <trkpt lat="42.9881060" lon="-1.6441110">
        <ele>574.557983</ele>
        <time>2019-05-02T09:20:12.000Z</time>
      </trkpt>
      <trkpt lat="42.9880560" lon="-1.6440550">
        <ele>575.195007</ele>
        <time>2019-05-02T09:20:14.000Z</time>
      </trkpt>
      <trkpt lat="42.9879960" lon="-1.6440230">
        <ele>575.471985</ele>
        <time>2019-05-02T09:20:16.000Z</time>
      </trkpt>
      <trkpt lat="42.9879390" lon="-1.6439670">
        <ele>575.818970</ele>
        <time>2019-05-02T09:20:18.000Z</time>
      </trkpt>
      <trkpt lat="42.9878770" lon="-1.6439610">
        <ele>576.377014</ele>
        <time>2019-05-02T09:20:20.000Z</time>
      </trkpt>
      <trkpt lat="42.9878210" lon="-1.6439700">
        <ele>576.750977</ele>
        <time>2019-05-02T09:20:22.000Z</time>
      </trkpt>
      <trkpt lat="42.9877690" lon="-1.6439640">
        <ele>576.901001</ele>
        <time>2019-05-02T09:20:24.000Z</time>
      </trkpt>
      <trkpt lat="42.9877100" lon="-1.6439680">
        <ele>577.111023</ele>
        <time>2019-05-02T09:20:26.000Z</time>
      </trkpt>
      <trkpt lat="42.9876560" lon="-1.6440010">
        <ele>577.308044</ele>
        <time>2019-05-02T09:20:28.000Z</time>
      </trkpt>
      <trkpt lat="42.9876060" lon="-1.6440110">
        <ele>577.447998</ele>
        <time>2019-05-02T09:20:30.000Z</time>
      </trkpt>
      <trkpt lat="42.9875580" lon="-1.6440280">
        <ele>577.690002</ele>
        <time>2019-05-02T09:20:32.000Z</time>
      </trkpt>
      <trkpt lat="42.9875100" lon="-1.6440440">
        <ele>577.963989</ele>
        <time>2019-05-02T09:20:34.000Z</time>
      </trkpt>
      <trkpt lat="42.9874660" lon="-1.6440690">
        <ele>578.221008</ele>
        <time>2019-05-02T09:20:36.000Z</time>
      </trkpt>
      <trkpt lat="42.9874270" lon="-1.6441000">
        <ele>578.617981</ele>
        <time>2019-05-02T09:20:38.000Z</time>
      </trkpt>
      <trkpt lat="42.9873660" lon="-1.6441060">
        <ele>579.594971</ele>
        <time>2019-05-02T09:20:41.000Z</time>
      </trkpt>
      <trkpt lat="42.9873080" lon="-1.6441280">
        <ele>580.281982</ele>
        <time>2019-05-02T09:20:44.000Z</time>
      </trkpt>
      <trkpt lat="42.9872460" lon="-1.6441300">
        <ele>580.929993</ele>
        <time>2019-05-02T09:20:47.000Z</time>
      </trkpt>
      <trkpt lat="42.9871890" lon="-1.6441450">
        <ele>581.762024</ele>
        <time>2019-05-02T09:20:50.000Z</time>
      </trkpt>
      <trkpt lat="42.9871320" lon="-1.6441490">
        <ele>582.482971</ele>
        <time>2019-05-02T09:20:53.000Z</time>
      </trkpt>
      <trkpt lat="42.9870650" lon="-1.6441560">
        <ele>583.310974</ele>
        <time>2019-05-02T09:20:56.000Z</time>
      </trkpt>
      <trkpt lat="42.9870050" lon="-1.6441580">
        <ele>584.108032</ele>
        <time>2019-05-02T09:20:59.000Z</time>
      </trkpt>
      <trkpt lat="42.9869440" lon="-1.6441530">
        <ele>584.938965</ele>
        <time>2019-05-02T09:21:02.000Z</time>
      </trkpt>
      <trkpt lat="42.9868880" lon="-1.6441920">
        <ele>585.591003</ele>
        <time>2019-05-02T09:21:05.000Z</time>
      </trkpt>
      <trkpt lat="42.9868360" lon="-1.6442190">
        <ele>586.455017</ele>
        <time>2019-05-02T09:21:08.000Z</time>
      </trkpt>
      <trkpt lat="42.9867730" lon="-1.6442310">
        <ele>587.212036</ele>
        <time>2019-05-02T09:21:11.000Z</time>
      </trkpt>
      <trkpt lat="42.9867120" lon="-1.6442570">
        <ele>587.958984</ele>
        <time>2019-05-02T09:21:14.000Z</time>
      </trkpt>
      <trkpt lat="42.9866560" lon="-1.6442700">
        <ele>588.635986</ele>
        <time>2019-05-02T09:21:17.000Z</time>
      </trkpt>
      <trkpt lat="42.9865960" lon="-1.6442550">
        <ele>589.532959</ele>
        <time>2019-05-02T09:21:20.000Z</time>
      </trkpt>
      <trkpt lat="42.9865470" lon="-1.6442450">
        <ele>589.930969</ele>
        <time>2019-05-02T09:21:22.000Z</time>
      </trkpt>
      <trkpt lat="42.9865070" lon="-1.6442880">
        <ele>590.546997</ele>
        <time>2019-05-02T09:21:25.000Z</time>
      </trkpt>
      <trkpt lat="42.9864600" lon="-1.6443010">
        <ele>591.229004</ele>
        <time>2019-05-02T09:21:28.000Z</time>
      </trkpt>
      <trkpt lat="42.9864020" lon="-1.6443090">
        <ele>591.820984</ele>
        <time>2019-05-02T09:21:31.000Z</time>
      </trkpt>
      <trkpt lat="42.9863500" lon="-1.6443470">
        <ele>592.507996</ele>
        <time>2019-05-02T09:21:34.000Z</time>
      </trkpt>
      <trkpt lat="42.9862970" lon="-1.6443880">
        <ele>593.377014</ele>
        <time>2019-05-02T09:21:37.000Z</time>
      </trkpt>
      <trkpt lat="42.9862380" lon="-1.6443890">
        <ele>594.098999</ele>
        <time>2019-05-02T09:21:40.000Z</time>
      </trkpt>
      <trkpt lat="42.9861800" lon="-1.6443810">
        <ele>594.643005</ele>
        <time>2019-05-02T09:21:43.000Z</time>
      </trkpt>
      <trkpt lat="42.9861250" lon="-1.6443520">
        <ele>595.309998</ele>
        <time>2019-05-02T09:21:46.000Z</time>
      </trkpt>
      <trkpt lat="42.9860800" lon="-1.6443340">
        <ele>595.737000</ele>
        <time>2019-05-02T09:21:49.000Z</time>
      </trkpt>
      <trkpt lat="42.9860370" lon="-1.6442950">
        <ele>595.953979</ele>
        <time>2019-05-02T09:21:52.000Z</time>
      </trkpt>
      <trkpt lat="42.9859880" lon="-1.6442820">
        <ele>596.151001</ele>
        <time>2019-05-02T09:21:55.000Z</time>
      </trkpt>
      <trkpt lat="42.9859500" lon="-1.6442420">
        <ele>596.318970</ele>
        <time>2019-05-02T09:21:57.000Z</time>
      </trkpt>
      <trkpt lat="42.9859060" lon="-1.6442520">
        <ele>597.255005</ele>
        <time>2019-05-02T09:22:02.000Z</time>
      </trkpt>
      <trkpt lat="42.9858560" lon="-1.6442580">
        <ele>598.007019</ele>
        <time>2019-05-02T09:22:06.000Z</time>
      </trkpt>
      <trkpt lat="42.9858020" lon="-1.6442580">
        <ele>598.916992</ele>
        <time>2019-05-02T09:22:11.000Z</time>
      </trkpt>
      <trkpt lat="42.9857640" lon="-1.6443200">
        <ele>599.908020</ele>
        <time>2019-05-02T09:22:15.000Z</time>
      </trkpt>
      <trkpt lat="42.9857200" lon="-1.6443340">
        <ele>600.468018</ele>
        <time>2019-05-02T09:22:18.000Z</time>
      </trkpt>
      <trkpt lat="42.9856640" lon="-1.6443200">
        <ele>601.380005</ele>
        <time>2019-05-02T09:22:23.000Z</time>
      </trkpt>
      <trkpt lat="42.9856040" lon="-1.6443300">
        <ele>602.234009</ele>
        <time>2019-05-02T09:22:27.000Z</time>
      </trkpt>
      <trkpt lat="42.9855590" lon="-1.6443510">
        <ele>602.750977</ele>
        <time>2019-05-02T09:22:30.000Z</time>
      </trkpt>
      <trkpt lat="42.9855080" lon="-1.6443420">
        <ele>603.538025</ele>
        <time>2019-05-02T09:22:34.000Z</time>
      </trkpt>
      <trkpt lat="42.9854590" lon="-1.6443630">
        <ele>604.244995</ele>
        <time>2019-05-02T09:22:37.000Z</time>
      </trkpt>
      <trkpt lat="42.9854190" lon="-1.6443910">
        <ele>605.152039</ele>
        <time>2019-05-02T09:22:41.000Z</time>
      </trkpt>
      <trkpt lat="42.9853680" lon="-1.6444130">
        <ele>605.679993</ele>
        <time>2019-05-02T09:22:45.000Z</time>
      </trkpt>
      <trkpt lat="42.9853180" lon="-1.6444190">
        <ele>606.997986</ele>
        <time>2019-05-02T09:22:50.000Z</time>
      </trkpt>
      <trkpt lat="42.9852590" lon="-1.6444270">
        <ele>608.215027</ele>
        <time>2019-05-02T09:22:54.000Z</time>
      </trkpt>
      <trkpt lat="42.9851990" lon="-1.6444120">
        <ele>608.825989</ele>
        <time>2019-05-02T09:22:57.000Z</time>
      </trkpt>
      <trkpt lat="42.9851370" lon="-1.6444000">
        <ele>609.408020</ele>
        <time>2019-05-02T09:23:00.000Z</time>
      </trkpt>
      <trkpt lat="42.9850880" lon="-1.6443930">
        <ele>609.711975</ele>
        <time>2019-05-02T09:23:02.000Z</time>
      </trkpt>
      <trkpt lat="42.9850410" lon="-1.6443340">
        <ele>610.253967</ele>
        <time>2019-05-02T09:23:05.000Z</time>
      </trkpt>
      <trkpt lat="42.9849870" lon="-1.6443280">
        <ele>611.088013</ele>
        <time>2019-05-02T09:23:09.000Z</time>
      </trkpt>
      <trkpt lat="42.9849320" lon="-1.6443820">
        <ele>611.544983</ele>
        <time>2019-05-02T09:23:12.000Z</time>
      </trkpt>
      <trkpt lat="42.9848810" lon="-1.6444000">
        <ele>611.952026</ele>
        <time>2019-05-02T09:23:16.000Z</time>
      </trkpt>
      <trkpt lat="42.9848370" lon="-1.6444180">
        <ele>612.319031</ele>
        <time>2019-05-02T09:23:20.000Z</time>
      </trkpt>
      <trkpt lat="42.9847830" lon="-1.6444310">
        <ele>612.796021</ele>
        <time>2019-05-02T09:23:23.000Z</time>
      </trkpt>
      <trkpt lat="42.9847380" lon="-1.6443920">
        <ele>612.984009</ele>
        <time>2019-05-02T09:23:26.000Z</time>
      </trkpt>
      <trkpt lat="42.9847030" lon="-1.6443530">
        <ele>613.192993</ele>
        <time>2019-05-02T09:23:29.000Z</time>
      </trkpt>
      <trkpt lat="42.9846430" lon="-1.6443420">
        <ele>613.864990</ele>
        <time>2019-05-02T09:23:33.000Z</time>
      </trkpt>
      <trkpt lat="42.9845970" lon="-1.6443330">
        <ele>614.420959</ele>
        <time>2019-05-02T09:23:37.000Z</time>
      </trkpt>
      <trkpt lat="42.9845420" lon="-1.6443240">
        <ele>614.708008</ele>
        <time>2019-05-02T09:23:40.000Z</time>
      </trkpt>
      <trkpt lat="42.9844640" lon="-1.6442930">
        <ele>614.891968</ele>
        <time>2019-05-02T09:23:42.000Z</time>
      </trkpt>
      <trkpt lat="42.9843990" lon="-1.6442540">
        <ele>614.864014</ele>
        <time>2019-05-02T09:23:44.000Z</time>
      </trkpt>
      <trkpt lat="42.9843460" lon="-1.6442410">
        <ele>614.768005</ele>
        <time>2019-05-02T09:23:45.000Z</time>
      </trkpt>
      <trkpt lat="42.9842980" lon="-1.6442310">
        <ele>614.755005</ele>
        <time>2019-05-02T09:23:47.000Z</time>
      </trkpt>
      <trkpt lat="42.9842400" lon="-1.6442020">
        <ele>614.952026</ele>
        <time>2019-05-02T09:23:49.000Z</time>
      </trkpt>
      <trkpt lat="42.9841430" lon="-1.6441870">
        <ele>615.328979</ele>
        <time>2019-05-02T09:23:52.000Z</time>
      </trkpt>
      <trkpt lat="42.9840760" lon="-1.6441740">
        <ele>615.675964</ele>
        <time>2019-05-02T09:23:54.000Z</time>
      </trkpt>
      <trkpt lat="42.9840290" lon="-1.6441530">
        <ele>615.884033</ele>
        <time>2019-05-02T09:23:56.000Z</time>
      </trkpt>
      <trkpt lat="42.9839640" lon="-1.6441000">
        <ele>616.142029</ele>
        <time>2019-05-02T09:23:58.000Z</time>
      </trkpt>
      <trkpt lat="42.9839210" lon="-1.6440470">
        <ele>616.622009</ele>
        <time>2019-05-02T09:24:00.000Z</time>
      </trkpt>
      <trkpt lat="42.9838720" lon="-1.6439970">
        <ele>617.013977</ele>
        <time>2019-05-02T09:24:02.000Z</time>
      </trkpt>
      <trkpt lat="42.9838230" lon="-1.6439350">
        <ele>617.408020</ele>
        <time>2019-05-02T09:24:04.000Z</time>
      </trkpt>
      <trkpt lat="42.9837940" lon="-1.6438750">
        <ele>617.577026</ele>
        <time>2019-05-02T09:24:05.000Z</time>
      </trkpt>
      <trkpt lat="42.9837480" lon="-1.6437980">
        <ele>617.729004</ele>
        <time>2019-05-02T09:24:07.000Z</time>
      </trkpt>
      <trkpt lat="42.9837080" lon="-1.6437330">
        <ele>617.882996</ele>
        <time>2019-05-02T09:24:10.000Z</time>
      </trkpt>
      <trkpt lat="42.9836750" lon="-1.6436690">
        <ele>617.739990</ele>
        <time>2019-05-02T09:24:13.000Z</time>
      </trkpt>
      <trkpt lat="42.9836310" lon="-1.6436360">
        <ele>617.767029</ele>
        <time>2019-05-02T09:24:15.000Z</time>
      </trkpt>
      <trkpt lat="42.9835690" lon="-1.6436320">
        <ele>617.753967</ele>
        <time>2019-05-02T09:24:17.000Z</time>
      </trkpt>
      <trkpt lat="42.9835140" lon="-1.6436430">
        <ele>617.871033</ele>
        <time>2019-05-02T09:24:20.000Z</time>
      </trkpt>
      <trkpt lat="42.9834610" lon="-1.6436430">
        <ele>617.979004</ele>
        <time>2019-05-02T09:24:24.000Z</time>
      </trkpt>
      <trkpt lat="42.9835070" lon="-1.6436720">
        <ele>618.082031</ele>
        <time>2019-05-02T09:24:42.000Z</time>
      </trkpt>
      <trkpt lat="42.9835520" lon="-1.6436800">
        <ele>617.942993</ele>
        <time>2019-05-02T09:24:49.000Z</time>
      </trkpt>
      <trkpt lat="42.9835820" lon="-1.6437340">
        <ele>617.916992</ele>
        <time>2019-05-02T09:24:52.000Z</time>
      </trkpt>
      <trkpt lat="42.9836290" lon="-1.6437450">
        <ele>617.908020</ele>
        <time>2019-05-02T09:24:54.000Z</time>
      </trkpt>
      <trkpt lat="42.9836860" lon="-1.6437660">
        <ele>617.841003</ele>
        <time>2019-05-02T09:24:57.000Z</time>
      </trkpt>
      <trkpt lat="42.9837460" lon="-1.6437970">
        <ele>617.422974</ele>
        <time>2019-05-02T09:25:00.000Z</time>
      </trkpt>
      <trkpt lat="42.9838000" lon="-1.6437880">
        <ele>616.627014</ele>
        <time>2019-05-02T09:25:03.000Z</time>
      </trkpt>
      <trkpt lat="42.9838520" lon="-1.6437490">
        <ele>615.764038</ele>
        <time>2019-05-02T09:25:06.000Z</time>
      </trkpt>
      <trkpt lat="42.9838810" lon="-1.6436910">
        <ele>614.680969</ele>
        <time>2019-05-02T09:25:13.000Z</time>
      </trkpt>
      <trkpt lat="42.9839350" lon="-1.6436930">
        <ele>614.627991</ele>
        <time>2019-05-02T09:25:19.000Z</time>
      </trkpt>
      <trkpt lat="42.9839650" lon="-1.6437430">
        <ele>614.775024</ele>
        <time>2019-05-02T09:25:24.000Z</time>
      </trkpt>
      <trkpt lat="42.9840200" lon="-1.6437340">
        <ele>614.932983</ele>
        <time>2019-05-02T09:25:30.000Z</time>
      </trkpt>
      <trkpt lat="42.9840660" lon="-1.6437190">
        <ele>614.810974</ele>
        <time>2019-05-02T09:25:32.000Z</time>
      </trkpt>
      <trkpt lat="42.9841120" lon="-1.6437690">
        <ele>614.520996</ele>
        <time>2019-05-02T09:25:34.000Z</time>
      </trkpt>
      <trkpt lat="42.9841590" lon="-1.6438040">
        <ele>614.103027</ele>
        <time>2019-05-02T09:25:36.000Z</time>
      </trkpt>
      <trkpt lat="42.9841990" lon="-1.6438660">
        <ele>613.507996</ele>
        <time>2019-05-02T09:25:39.000Z</time>
      </trkpt>
      <trkpt lat="42.9842460" lon="-1.6438830">
        <ele>613.023987</ele>
        <time>2019-05-02T09:25:43.000Z</time>
      </trkpt>
      <trkpt lat="42.9842400" lon="-1.6439450">
        <ele>613.786011</ele>
        <time>2019-05-02T09:25:48.000Z</time>
      </trkpt>
      <trkpt lat="42.9842120" lon="-1.6440260">
        <ele>614.589966</ele>
        <time>2019-05-02T09:25:51.000Z</time>
      </trkpt>
      <trkpt lat="42.9841680" lon="-1.6440480">
        <ele>615.786987</ele>
        <time>2019-05-02T09:25:56.000Z</time>
      </trkpt>
      <trkpt lat="42.9841270" lon="-1.6440760">
        <ele>617.414001</ele>
        <time>2019-05-02T09:26:01.000Z</time>
      </trkpt>
      <trkpt lat="42.9840910" lon="-1.6441200">
        <ele>619.541016</ele>
        <time>2019-05-02T09:26:09.000Z</time>
      </trkpt>
      <trkpt lat="42.9840610" lon="-1.6441780">
        <ele>621.447998</ele>
        <time>2019-05-02T09:26:15.000Z</time>
      </trkpt>
      <trkpt lat="42.9840160" lon="-1.6442150">
        <ele>622.645996</ele>
        <time>2019-05-02T09:26:20.000Z</time>
      </trkpt>
      <trkpt lat="42.9839790" lon="-1.6442500">
        <ele>623.398010</ele>
        <time>2019-05-02T09:26:23.000Z</time>
      </trkpt>
      <trkpt lat="42.9839560" lon="-1.6443170">
        <ele>625.315002</ele>
        <time>2019-05-02T09:26:29.000Z</time>
      </trkpt>
      <trkpt lat="42.9839130" lon="-1.6443410">
        <ele>626.626038</ele>
        <time>2019-05-02T09:26:34.000Z</time>
      </trkpt>
      <trkpt lat="42.9838870" lon="-1.6443980">
        <ele>629.007996</ele>
        <time>2019-05-02T09:26:41.000Z</time>
      </trkpt>
      <trkpt lat="42.9838800" lon="-1.6444650">
        <ele>631.351990</ele>
        <time>2019-05-02T09:26:55.000Z</time>
      </trkpt>
      <trkpt lat="42.9838360" lon="-1.6444970">
        <ele>632.473999</ele>
        <time>2019-05-02T09:27:00.000Z</time>
      </trkpt>
      <trkpt lat="42.9838270" lon="-1.6445590">
        <ele>633.167969</ele>
        <time>2019-05-02T09:27:18.000Z</time>
      </trkpt>
      <trkpt lat="42.9838610" lon="-1.6446090">
        <ele>633.144958</ele>
        <time>2019-05-02T09:27:23.000Z</time>
      </trkpt>
      <trkpt lat="42.9838140" lon="-1.6446420">
        <ele>633.132019</ele>
        <time>2019-05-02T09:27:34.000Z</time>
      </trkpt>
      <trkpt lat="42.9837710" lon="-1.6445910">
        <ele>632.439026</ele>
        <time>2019-05-02T09:28:04.000Z</time>
      </trkpt>
      <trkpt lat="42.9838190" lon="-1.6445800">
        <ele>633.295959</ele>
        <time>2019-05-02T09:28:35.000Z</time>
      </trkpt>
      <trkpt lat="42.9837980" lon="-1.6446400">
        <ele>637.484009</ele>
        <time>2019-05-02T09:29:08.000Z</time>
      </trkpt>
      <trkpt lat="42.9838150" lon="-1.6447010">
        <ele>639.561035</ele>
        <time>2019-05-02T09:29:17.000Z</time>
      </trkpt>
      <trkpt lat="42.9838100" lon="-1.6447790">
        <ele>642.520996</ele>
        <time>2019-05-02T09:29:38.000Z</time>
      </trkpt>
      <trkpt lat="42.9837950" lon="-1.6448400">
        <ele>643.513000</ele>
        <time>2019-05-02T09:29:41.000Z</time>
      </trkpt>
      <trkpt lat="42.9837870" lon="-1.6449030">
        <ele>645.507996</ele>
        <time>2019-05-02T09:29:48.000Z</time>
      </trkpt>
      <trkpt lat="42.9837730" lon="-1.6449620">
        <ele>645.569031</ele>
        <time>2019-05-02T09:30:19.000Z</time>
      </trkpt>
      <trkpt lat="42.9837960" lon="-1.6450170">
        <ele>645.721008</ele>
        <time>2019-05-02T09:30:33.000Z</time>
      </trkpt>
      <trkpt lat="42.9838110" lon="-1.6450790">
        <ele>646.315002</ele>
        <time>2019-05-02T09:30:36.000Z</time>
      </trkpt>
      <trkpt lat="42.9838480" lon="-1.6451210">
        <ele>648.922058</ele>
        <time>2019-05-02T09:31:31.000Z</time>
      </trkpt>
      <trkpt lat="42.9838550" lon="-1.6451910">
        <ele>651.098999</ele>
        <time>2019-05-02T09:31:37.000Z</time>
      </trkpt>
      <trkpt lat="42.9838150" lon="-1.6451640">
        <ele>653.246033</ele>
        <time>2019-05-02T09:31:44.000Z</time>
      </trkpt>
      <trkpt lat="42.9837800" lon="-1.6452090">
        <ele>654.482971</ele>
        <time>2019-05-02T09:31:58.000Z</time>
      </trkpt>
      <trkpt lat="42.9837350" lon="-1.6452230">
        <ele>657.770996</ele>
        <time>2019-05-02T09:32:11.000Z</time>
      </trkpt>
      <trkpt lat="42.9836860" lon="-1.6452230">
        <ele>658.927979</ele>
        <time>2019-05-02T09:32:16.000Z</time>
      </trkpt>
      <trkpt lat="42.9836430" lon="-1.6452420">
        <ele>659.389038</ele>
        <time>2019-05-02T09:32:23.000Z</time>
      </trkpt>
      <trkpt lat="42.9835940" lon="-1.6452650">
        <ele>661.016968</ele>
        <time>2019-05-02T09:32:34.000Z</time>
      </trkpt>
      <trkpt lat="42.9835480" lon="-1.6452600">
        <ele>662.208008</ele>
        <time>2019-05-02T09:32:38.000Z</time>
      </trkpt>
      <trkpt lat="42.9834920" lon="-1.6452720">
        <ele>664.254944</ele>
        <time>2019-05-02T09:32:44.000Z</time>
      </trkpt>
      <trkpt lat="42.9834360" lon="-1.6453000">
        <ele>665.716980</ele>
        <time>2019-05-02T09:32:48.000Z</time>
      </trkpt>
      <trkpt lat="42.9833860" lon="-1.6453030">
        <ele>667.090942</ele>
        <time>2019-05-02T09:32:51.000Z</time>
      </trkpt>
      <trkpt lat="42.9833380" lon="-1.6453040">
        <ele>667.997986</ele>
        <time>2019-05-02T09:32:54.000Z</time>
      </trkpt>
      <trkpt lat="42.9832930" lon="-1.6453300">
        <ele>669.145020</ele>
        <time>2019-05-02T09:32:57.000Z</time>
      </trkpt>
      <trkpt lat="42.9832380" lon="-1.6453500">
        <ele>670.441956</ele>
        <time>2019-05-02T09:33:01.000Z</time>
      </trkpt>
      <trkpt lat="42.9831930" lon="-1.6453770">
        <ele>671.399048</ele>
        <time>2019-05-02T09:33:04.000Z</time>
      </trkpt>
      <trkpt lat="42.9831420" lon="-1.6453890">
        <ele>672.216980</ele>
        <time>2019-05-02T09:33:07.000Z</time>
      </trkpt>
      <trkpt lat="42.9830910" lon="-1.6453960">
        <ele>673.560974</ele>
        <time>2019-05-02T09:33:10.000Z</time>
      </trkpt>
      <trkpt lat="42.9830520" lon="-1.6454660">
        <ele>676.421021</ele>
        <time>2019-05-02T09:34:01.000Z</time>
      </trkpt>
      <trkpt lat="42.9829950" lon="-1.6454750">
        <ele>678.113037</ele>
        <time>2019-05-02T09:34:08.000Z</time>
      </trkpt>
      <trkpt lat="42.9829500" lon="-1.6454900">
        <ele>679.808044</ele>
        <time>2019-05-02T09:34:16.000Z</time>
      </trkpt>
      <trkpt lat="42.9828990" lon="-1.6455150">
        <ele>681.739014</ele>
        <time>2019-05-02T09:34:23.000Z</time>
      </trkpt>
      <trkpt lat="42.9828600" lon="-1.6455450">
        <ele>682.870972</ele>
        <time>2019-05-02T09:34:27.000Z</time>
      </trkpt>
      <trkpt lat="42.9828050" lon="-1.6455630">
        <ele>684.244995</ele>
        <time>2019-05-02T09:34:34.000Z</time>
      </trkpt>
      <trkpt lat="42.9827600" lon="-1.6455830">
        <ele>685.062012</ele>
        <time>2019-05-02T09:34:38.000Z</time>
      </trkpt>
      <trkpt lat="42.9827170" lon="-1.6456090">
        <ele>685.758972</ele>
        <time>2019-05-02T09:34:41.000Z</time>
      </trkpt>
      <trkpt lat="42.9826670" lon="-1.6456040">
        <ele>688.216003</ele>
        <time>2019-05-02T09:35:08.000Z</time>
      </trkpt>
      <trkpt lat="42.9826140" lon="-1.6456070">
        <ele>689.233032</ele>
        <time>2019-05-02T09:35:14.000Z</time>
      </trkpt>
      <trkpt lat="42.9825560" lon="-1.6456140">
        <ele>690.070984</ele>
        <time>2019-05-02T09:35:18.000Z</time>
      </trkpt>
      <trkpt lat="42.9825060" lon="-1.6456200">
        <ele>690.591003</ele>
        <time>2019-05-02T09:35:20.000Z</time>
      </trkpt>
      <trkpt lat="42.9824510" lon="-1.6455890">
        <ele>691.380981</ele>
        <time>2019-05-02T09:35:23.000Z</time>
      </trkpt>
      <trkpt lat="42.9824090" lon="-1.6455410">
        <ele>692.619019</ele>
        <time>2019-05-02T09:35:26.000Z</time>
      </trkpt>
      <trkpt lat="42.9823460" lon="-1.6455990">
        <ele>693.408020</ele>
        <time>2019-05-02T09:35:29.000Z</time>
      </trkpt>
      <trkpt lat="42.9823550" lon="-1.6456620">
        <ele>694.072021</ele>
        <time>2019-05-02T09:35:32.000Z</time>
      </trkpt>
      <trkpt lat="42.9824010" lon="-1.6457020">
        <ele>694.794006</ele>
        <time>2019-05-02T09:35:36.000Z</time>
      </trkpt>
      <trkpt lat="42.9824520" lon="-1.6457170">
        <ele>695.697937</ele>
        <time>2019-05-02T09:35:40.000Z</time>
      </trkpt>
      <trkpt lat="42.9824980" lon="-1.6457420">
        <ele>696.224976</ele>
        <time>2019-05-02T09:35:43.000Z</time>
      </trkpt>
      <trkpt lat="42.9825520" lon="-1.6457710">
        <ele>696.742004</ele>
        <time>2019-05-02T09:35:46.000Z</time>
      </trkpt>
      <trkpt lat="42.9825950" lon="-1.6457950">
        <ele>697.378967</ele>
        <time>2019-05-02T09:35:49.000Z</time>
      </trkpt>
      <trkpt lat="42.9826400" lon="-1.6458310">
        <ele>698.096008</ele>
        <time>2019-05-02T09:35:52.000Z</time>
      </trkpt>
      <trkpt lat="42.9826830" lon="-1.6458520">
        <ele>698.463989</ele>
        <time>2019-05-02T09:35:55.000Z</time>
      </trkpt>
      <trkpt lat="42.9827350" lon="-1.6458890">
        <ele>698.992004</ele>
        <time>2019-05-02T09:36:00.000Z</time>
      </trkpt>
      <trkpt lat="42.9827730" lon="-1.6459240">
        <ele>699.372986</ele>
        <time>2019-05-02T09:36:03.000Z</time>
      </trkpt>
      <trkpt lat="42.9828270" lon="-1.6459470">
        <ele>700.020020</ele>
        <time>2019-05-02T09:36:06.000Z</time>
      </trkpt>
      <trkpt lat="42.9828770" lon="-1.6459720">
        <ele>700.608032</ele>
        <time>2019-05-02T09:36:09.000Z</time>
      </trkpt>
      <trkpt lat="42.9829100" lon="-1.6460320">
        <ele>701.142029</ele>
        <time>2019-05-02T09:36:12.000Z</time>
      </trkpt>
      <trkpt lat="42.9829490" lon="-1.6460740">
        <ele>701.783997</ele>
        <time>2019-05-02T09:36:15.000Z</time>
      </trkpt>
      <trkpt lat="42.9829790" lon="-1.6461220">
        <ele>702.557983</ele>
        <time>2019-05-02T09:36:18.000Z</time>
      </trkpt>
      <trkpt lat="42.9830200" lon="-1.6461850">
        <ele>703.755005</ele>
        <time>2019-05-02T09:36:24.000Z</time>
      </trkpt>
      <trkpt lat="42.9830460" lon="-1.6462530">
        <ele>704.332031</ele>
        <time>2019-05-02T09:36:27.000Z</time>
      </trkpt>
      <trkpt lat="42.9830960" lon="-1.6463080">
        <ele>704.818970</ele>
        <time>2019-05-02T09:36:31.000Z</time>
      </trkpt>
      <trkpt lat="42.9831200" lon="-1.6463600">
        <ele>705.075989</ele>
        <time>2019-05-02T09:36:33.000Z</time>
      </trkpt>
      <trkpt lat="42.9831610" lon="-1.6464470">
        <ele>705.344055</ele>
        <time>2019-05-02T09:36:36.000Z</time>
      </trkpt>
      <trkpt lat="42.9831920" lon="-1.6465210">
        <ele>705.717957</ele>
        <time>2019-05-02T09:36:39.000Z</time>
      </trkpt>
      <trkpt lat="42.9832430" lon="-1.6465420">
        <ele>706.298035</ele>
        <time>2019-05-02T09:36:42.000Z</time>
      </trkpt>
      <trkpt lat="42.9832800" lon="-1.6465880">
        <ele>707.017029</ele>
        <time>2019-05-02T09:36:45.000Z</time>
      </trkpt>
      <trkpt lat="42.9833300" lon="-1.6466150">
        <ele>707.708008</ele>
        <time>2019-05-02T09:36:48.000Z</time>
      </trkpt>
      <trkpt lat="42.9833620" lon="-1.6466700">
        <ele>708.393982</ele>
        <time>2019-05-02T09:36:51.000Z</time>
      </trkpt>
      <trkpt lat="42.9833850" lon="-1.6467290">
        <ele>709.065979</ele>
        <time>2019-05-02T09:36:55.000Z</time>
      </trkpt>
      <trkpt lat="42.9834620" lon="-1.6468170">
        <ele>709.890015</ele>
        <time>2019-05-02T09:36:58.000Z</time>
      </trkpt>
      <trkpt lat="42.9835040" lon="-1.6469090">
        <ele>710.356995</ele>
        <time>2019-05-02T09:37:00.000Z</time>
      </trkpt>
      <trkpt lat="42.9835640" lon="-1.6470010">
        <ele>710.854004</ele>
        <time>2019-05-02T09:37:02.000Z</time>
      </trkpt>
      <trkpt lat="42.9835990" lon="-1.6470570">
        <ele>711.310974</ele>
        <time>2019-05-02T09:37:04.000Z</time>
      </trkpt>
      <trkpt lat="42.9836500" lon="-1.6471180">
        <ele>711.867981</ele>
        <time>2019-05-02T09:37:06.000Z</time>
      </trkpt>
      <trkpt lat="42.9836880" lon="-1.6471540">
        <ele>712.346008</ele>
        <time>2019-05-02T09:37:08.000Z</time>
      </trkpt>
      <trkpt lat="42.9837380" lon="-1.6472020">
        <ele>712.837036</ele>
        <time>2019-05-02T09:37:10.000Z</time>
      </trkpt>
      <trkpt lat="42.9837940" lon="-1.6472730">
        <ele>713.549011</ele>
        <time>2019-05-02T09:37:12.000Z</time>
      </trkpt>
      <trkpt lat="42.9838670" lon="-1.6473410">
        <ele>714.013000</ele>
        <time>2019-05-02T09:37:14.000Z</time>
      </trkpt>
      <trkpt lat="42.9839000" lon="-1.6473930">
        <ele>714.208008</ele>
        <time>2019-05-02T09:37:15.000Z</time>
      </trkpt>
      <trkpt lat="42.9839390" lon="-1.6474620">
        <ele>714.416016</ele>
        <time>2019-05-02T09:37:16.000Z</time>
      </trkpt>
      <trkpt lat="42.9839730" lon="-1.6475120">
        <ele>714.667969</ele>
        <time>2019-05-02T09:37:17.000Z</time>
      </trkpt>
      <trkpt lat="42.9840280" lon="-1.6475940">
        <ele>715.052002</ele>
        <time>2019-05-02T09:37:19.000Z</time>
      </trkpt>
      <trkpt lat="42.9840740" lon="-1.6476700">
        <ele>715.419006</ele>
        <time>2019-05-02T09:37:21.000Z</time>
      </trkpt>
      <trkpt lat="42.9841210" lon="-1.6477240">
        <ele>715.835999</ele>
        <time>2019-05-02T09:37:23.000Z</time>
      </trkpt>
      <trkpt lat="42.9841600" lon="-1.6477660">
        <ele>716.542969</ele>
        <time>2019-05-02T09:37:25.000Z</time>
      </trkpt>
      <trkpt lat="42.9842070" lon="-1.6478410">
        <ele>717.329956</ele>
        <time>2019-05-02T09:37:28.000Z</time>
      </trkpt>
      <trkpt lat="42.9842430" lon="-1.6479260">
        <ele>717.817993</ele>
        <time>2019-05-02T09:37:30.000Z</time>
      </trkpt>
      <trkpt lat="42.9842670" lon="-1.6479810">
        <ele>718.231018</ele>
        <time>2019-05-02T09:37:32.000Z</time>
      </trkpt>
      <trkpt lat="42.9843040" lon="-1.6480320">
        <ele>718.860962</ele>
        <time>2019-05-02T09:37:35.000Z</time>
      </trkpt>
      <trkpt lat="42.9843370" lon="-1.6480870">
        <ele>719.207031</ele>
        <time>2019-05-02T09:37:37.000Z</time>
      </trkpt>
      <trkpt lat="42.9843800" lon="-1.6481510">
        <ele>719.807983</ele>
        <time>2019-05-02T09:37:39.000Z</time>
      </trkpt>
      <trkpt lat="42.9844110" lon="-1.6482020">
        <ele>720.395996</ele>
        <time>2019-05-02T09:37:41.000Z</time>
      </trkpt>
      <trkpt lat="42.9844450" lon="-1.6482590">
        <ele>720.838013</ele>
        <time>2019-05-02T09:37:43.000Z</time>
      </trkpt>
      <trkpt lat="42.9844670" lon="-1.6483180">
        <ele>721.242004</ele>
        <time>2019-05-02T09:37:45.000Z</time>
      </trkpt>
      <trkpt lat="42.9844980" lon="-1.6483940">
        <ele>721.828979</ele>
        <time>2019-05-02T09:37:48.000Z</time>
      </trkpt>
      <trkpt lat="42.9845200" lon="-1.6484620">
        <ele>722.346008</ele>
        <time>2019-05-02T09:37:50.000Z</time>
      </trkpt>
      <trkpt lat="42.9845390" lon="-1.6485330">
        <ele>723.023010</ele>
        <time>2019-05-02T09:37:52.000Z</time>
      </trkpt>
      <trkpt lat="42.9845690" lon="-1.6486310">
        <ele>723.640015</ele>
        <time>2019-05-02T09:37:55.000Z</time>
      </trkpt>
      <trkpt lat="42.9845890" lon="-1.6486910">
        <ele>724.138000</ele>
        <time>2019-05-02T09:37:57.000Z</time>
      </trkpt>
      <trkpt lat="42.9846240" lon="-1.6487740">
        <ele>724.716003</ele>
        <time>2019-05-02T09:38:00.000Z</time>
      </trkpt>
      <trkpt lat="42.9846560" lon="-1.6488440">
        <ele>725.175964</ele>
        <time>2019-05-02T09:38:02.000Z</time>
      </trkpt>
      <trkpt lat="42.9846680" lon="-1.6489050">
        <ele>725.412964</ele>
        <time>2019-05-02T09:38:04.000Z</time>
      </trkpt>
      <trkpt lat="42.9846800" lon="-1.6489740">
        <ele>725.807983</ele>
        <time>2019-05-02T09:38:06.000Z</time>
      </trkpt>
      <trkpt lat="42.9846990" lon="-1.6490330">
        <ele>726.023987</ele>
        <time>2019-05-02T09:38:08.000Z</time>
      </trkpt>
      <trkpt lat="42.9847390" lon="-1.6491060">
        <ele>726.275940</ele>
        <time>2019-05-02T09:38:10.000Z</time>
      </trkpt>
      <trkpt lat="42.9847590" lon="-1.6491650">
        <ele>726.469971</ele>
        <time>2019-05-02T09:38:11.000Z</time>
      </trkpt>
      <trkpt lat="42.9847840" lon="-1.6492520">
        <ele>726.756958</ele>
        <time>2019-05-02T09:38:13.000Z</time>
      </trkpt>
      <trkpt lat="42.9848140" lon="-1.6493470">
        <ele>727.053955</ele>
        <time>2019-05-02T09:38:15.000Z</time>
      </trkpt>
      <trkpt lat="42.9848280" lon="-1.6494440">
        <ele>727.390991</ele>
        <time>2019-05-02T09:38:17.000Z</time>
      </trkpt>
      <trkpt lat="42.9848340" lon="-1.6495110">
        <ele>728.067993</ele>
        <time>2019-05-02T09:38:19.000Z</time>
      </trkpt>
      <trkpt lat="42.9848530" lon="-1.6495770">
        <ele>728.585999</ele>
        <time>2019-05-02T09:38:21.000Z</time>
      </trkpt>
      <trkpt lat="42.9848970" lon="-1.6496700">
        <ele>729.183044</ele>
        <time>2019-05-02T09:38:23.000Z</time>
      </trkpt>
      <trkpt lat="42.9849350" lon="-1.6497240">
        <ele>729.525024</ele>
        <time>2019-05-02T09:38:25.000Z</time>
      </trkpt>
      <trkpt lat="42.9849840" lon="-1.6497870">
        <ele>730.117004</ele>
        <time>2019-05-02T09:38:28.000Z</time>
      </trkpt>
      <trkpt lat="42.9850220" lon="-1.6498300">
        <ele>730.607971</ele>
        <time>2019-05-02T09:38:30.000Z</time>
      </trkpt>
      <trkpt lat="42.9850560" lon="-1.6498870">
        <ele>731.130981</ele>
        <time>2019-05-02T09:38:32.000Z</time>
      </trkpt>
      <trkpt lat="42.9850740" lon="-1.6499640">
        <ele>731.923035</ele>
        <time>2019-05-02T09:38:35.000Z</time>
      </trkpt>
      <trkpt lat="42.9851030" lon="-1.6500420">
        <ele>732.336975</ele>
        <time>2019-05-02T09:38:37.000Z</time>
      </trkpt>
      <trkpt lat="42.9851220" lon="-1.6501020">
        <ele>732.763977</ele>
        <time>2019-05-02T09:38:39.000Z</time>
      </trkpt>
      <trkpt lat="42.9851370" lon="-1.6501630">
        <ele>733.091003</ele>
        <time>2019-05-02T09:38:41.000Z</time>
      </trkpt>
      <trkpt lat="42.9851660" lon="-1.6502180">
        <ele>733.367981</ele>
        <time>2019-05-02T09:38:43.000Z</time>
      </trkpt>
      <trkpt lat="42.9851900" lon="-1.6502900">
        <ele>733.644958</ele>
        <time>2019-05-02T09:38:45.000Z</time>
      </trkpt>
      <trkpt lat="42.9852170" lon="-1.6503730">
        <ele>733.833008</ele>
        <time>2019-05-02T09:38:46.000Z</time>
      </trkpt>
      <trkpt lat="42.9852390" lon="-1.6504270">
        <ele>733.963989</ele>
        <time>2019-05-02T09:38:47.000Z</time>
      </trkpt>
      <trkpt lat="42.9852620" lon="-1.6504880">
        <ele>734.006042</ele>
        <time>2019-05-02T09:38:48.000Z</time>
      </trkpt>
      <trkpt lat="42.9853030" lon="-1.6505930">
        <ele>734.015991</ele>
        <time>2019-05-02T09:38:50.000Z</time>
      </trkpt>
      <trkpt lat="42.9853350" lon="-1.6506520">
        <ele>734.008057</ele>
        <time>2019-05-02T09:38:51.000Z</time>
      </trkpt>
      <trkpt lat="42.9853430" lon="-1.6507140">
        <ele>734.138977</ele>
        <time>2019-05-02T09:38:52.000Z</time>
      </trkpt>
      <trkpt lat="42.9853600" lon="-1.6507710">
        <ele>734.130981</ele>
        <time>2019-05-02T09:38:53.000Z</time>
      </trkpt>
      <trkpt lat="42.9853810" lon="-1.6508250">
        <ele>734.284973</ele>
        <time>2019-05-02T09:38:54.000Z</time>
      </trkpt>
      <trkpt lat="42.9854150" lon="-1.6509280">
        <ele>734.492004</ele>
        <time>2019-05-02T09:38:56.000Z</time>
      </trkpt>
      <trkpt lat="42.9854480" lon="-1.6509980">
        <ele>734.689026</ele>
        <time>2019-05-02T09:38:58.000Z</time>
      </trkpt>
      <trkpt lat="42.9854500" lon="-1.6511090">
        <ele>734.965942</ele>
        <time>2019-05-02T09:39:00.000Z</time>
      </trkpt>
      <trkpt lat="42.9854560" lon="-1.6512010">
        <ele>735.232971</ele>
        <time>2019-05-02T09:39:02.000Z</time>
      </trkpt>
      <trkpt lat="42.9854640" lon="-1.6512800">
        <ele>735.661011</ele>
        <time>2019-05-02T09:39:04.000Z</time>
      </trkpt>
      <trkpt lat="42.9854650" lon="-1.6513540">
        <ele>736.032043</ele>
        <time>2019-05-02T09:39:06.000Z</time>
      </trkpt>
      <trkpt lat="42.9854580" lon="-1.6514270">
        <ele>736.591980</ele>
        <time>2019-05-02T09:39:08.000Z</time>
      </trkpt>
      <trkpt lat="42.9854520" lon="-1.6515200">
        <ele>737.010986</ele>
        <time>2019-05-02T09:39:10.000Z</time>
      </trkpt>
      <trkpt lat="42.9854470" lon="-1.6516040">
        <ele>737.408020</ele>
        <time>2019-05-02T09:39:12.000Z</time>
      </trkpt>
      <trkpt lat="42.9854760" lon="-1.6516710">
        <ele>738.135986</ele>
        <time>2019-05-02T09:39:14.000Z</time>
      </trkpt>
      <trkpt lat="42.9855030" lon="-1.6517320">
        <ele>738.528015</ele>
        <time>2019-05-02T09:39:16.000Z</time>
      </trkpt>
      <trkpt lat="42.9855270" lon="-1.6518000">
        <ele>739.322021</ele>
        <time>2019-05-02T09:39:19.000Z</time>
      </trkpt>
      <trkpt lat="42.9855460" lon="-1.6518960">
        <ele>739.899048</ele>
        <time>2019-05-02T09:39:21.000Z</time>
      </trkpt>
      <trkpt lat="42.9855810" lon="-1.6519460">
        <ele>740.796021</ele>
        <time>2019-05-02T09:39:25.000Z</time>
      </trkpt>
      <trkpt lat="42.9855800" lon="-1.6520120">
        <ele>741.632996</ele>
        <time>2019-05-02T09:39:28.000Z</time>
      </trkpt>
      <trkpt lat="42.9856030" lon="-1.6520770">
        <ele>742.309937</ele>
        <time>2019-05-02T09:39:31.000Z</time>
      </trkpt>
      <trkpt lat="42.9856340" lon="-1.6521560">
        <ele>743.197998</ele>
        <time>2019-05-02T09:39:34.000Z</time>
      </trkpt>
      <trkpt lat="42.9856470" lon="-1.6522380">
        <ele>743.981018</ele>
        <time>2019-05-02T09:39:37.000Z</time>
      </trkpt>
      <trkpt lat="42.9856650" lon="-1.6522990">
        <ele>744.560974</ele>
        <time>2019-05-02T09:39:39.000Z</time>
      </trkpt>
      <trkpt lat="42.9856830" lon="-1.6523620">
        <ele>745.317017</ele>
        <time>2019-05-02T09:39:41.000Z</time>
      </trkpt>
      <trkpt lat="42.9857060" lon="-1.6524500">
        <ele>745.908020</ele>
        <time>2019-05-02T09:39:43.000Z</time>
      </trkpt>
      <trkpt lat="42.9857190" lon="-1.6525160">
        <ele>746.591003</ele>
        <time>2019-05-02T09:39:45.000Z</time>
      </trkpt>
      <trkpt lat="42.9857120" lon="-1.6525780">
        <ele>747.312988</ele>
        <time>2019-05-02T09:39:48.000Z</time>
      </trkpt>
      <trkpt lat="42.9857230" lon="-1.6526680">
        <ele>748.096985</ele>
        <time>2019-05-02T09:39:51.000Z</time>
      </trkpt>
      <trkpt lat="42.9857320" lon="-1.6527300">
        <ele>748.624023</ele>
        <time>2019-05-02T09:39:53.000Z</time>
      </trkpt>
      <trkpt lat="42.9857470" lon="-1.6528070">
        <ele>749.041016</ele>
        <time>2019-05-02T09:39:55.000Z</time>
      </trkpt>
      <trkpt lat="42.9857500" lon="-1.6528690">
        <ele>749.248047</ele>
        <time>2019-05-02T09:39:56.000Z</time>
      </trkpt>
      <trkpt lat="42.9857520" lon="-1.6529350">
        <ele>749.545044</ele>
        <time>2019-05-02T09:39:58.000Z</time>
      </trkpt>
      <trkpt lat="42.9857650" lon="-1.6530040">
        <ele>749.783020</ele>
        <time>2019-05-02T09:40:00.000Z</time>
      </trkpt>
      <trkpt lat="42.9857790" lon="-1.6531040">
        <ele>750.096008</ele>
        <time>2019-05-02T09:40:03.000Z</time>
      </trkpt>
      <trkpt lat="42.9857980" lon="-1.6532500">
        <ele>750.230957</ele>
        <time>2019-05-02T09:40:05.000Z</time>
      </trkpt>
      <trkpt lat="42.9857900" lon="-1.6533660">
        <ele>750.724060</ele>
        <time>2019-05-02T09:40:07.000Z</time>
      </trkpt>
      <trkpt lat="42.9857860" lon="-1.6534290">
        <ele>751.007996</ele>
        <time>2019-05-02T09:40:09.000Z</time>
      </trkpt>
      <trkpt lat="42.9857820" lon="-1.6535270">
        <ele>751.312012</ele>
        <time>2019-05-02T09:40:11.000Z</time>
      </trkpt>
      <trkpt lat="42.9858090" lon="-1.6536600">
        <ele>751.644043</ele>
        <time>2019-05-02T09:40:13.000Z</time>
      </trkpt>
      <trkpt lat="42.9858250" lon="-1.6537400">
        <ele>751.877991</ele>
        <time>2019-05-02T09:40:14.000Z</time>
      </trkpt>
      <trkpt lat="42.9858420" lon="-1.6538370">
        <ele>752.175049</ele>
        <time>2019-05-02T09:40:16.000Z</time>
      </trkpt>
      <trkpt lat="42.9858560" lon="-1.6538990">
        <ele>752.372009</ele>
        <time>2019-05-02T09:40:17.000Z</time>
      </trkpt>
      <trkpt lat="42.9858680" lon="-1.6539590">
        <ele>752.658997</ele>
        <time>2019-05-02T09:40:19.000Z</time>
      </trkpt>
      <trkpt lat="42.9858900" lon="-1.6540340">
        <ele>753.435974</ele>
        <time>2019-05-02T09:40:22.000Z</time>
      </trkpt>
      <trkpt lat="42.9859100" lon="-1.6541050">
        <ele>753.884033</ele>
        <time>2019-05-02T09:40:24.000Z</time>
      </trkpt>
      <trkpt lat="42.9859260" lon="-1.6542000">
        <ele>754.591980</ele>
        <time>2019-05-02T09:40:27.000Z</time>
      </trkpt>
      <trkpt lat="42.9859500" lon="-1.6542600">
        <ele>755.072998</ele>
        <time>2019-05-02T09:40:29.000Z</time>
      </trkpt>
      <trkpt lat="42.9859720" lon="-1.6543200">
        <ele>755.520020</ele>
        <time>2019-05-02T09:40:31.000Z</time>
      </trkpt>
      <trkpt lat="42.9859880" lon="-1.6543810">
        <ele>756.208008</ele>
        <time>2019-05-02T09:40:33.000Z</time>
      </trkpt>
      <trkpt lat="42.9860020" lon="-1.6544580">
        <ele>756.862000</ele>
        <time>2019-05-02T09:40:36.000Z</time>
      </trkpt>
      <trkpt lat="42.9860250" lon="-1.6545160">
        <ele>757.294006</ele>
        <time>2019-05-02T09:40:38.000Z</time>
      </trkpt>
      <trkpt lat="42.9860460" lon="-1.6545790">
        <ele>757.678040</ele>
        <time>2019-05-02T09:40:40.000Z</time>
      </trkpt>
      <trkpt lat="42.9860670" lon="-1.6546390">
        <ele>758.085022</ele>
        <time>2019-05-02T09:40:42.000Z</time>
      </trkpt>
      <trkpt lat="42.9860720" lon="-1.6547070">
        <ele>758.562012</ele>
        <time>2019-05-02T09:40:44.000Z</time>
      </trkpt>
      <trkpt lat="42.9860920" lon="-1.6547680">
        <ele>759.669006</ele>
        <time>2019-05-02T09:40:47.000Z</time>
      </trkpt>
      <trkpt lat="42.9861410" lon="-1.6548390">
        <ele>760.216003</ele>
        <time>2019-05-02T09:40:49.000Z</time>
      </trkpt>
      <trkpt lat="42.9861550" lon="-1.6549050">
        <ele>760.713989</ele>
        <time>2019-05-02T09:40:51.000Z</time>
      </trkpt>
      <trkpt lat="42.9861930" lon="-1.6549870">
        <ele>761.543030</ele>
        <time>2019-05-02T09:40:54.000Z</time>
      </trkpt>
      <trkpt lat="42.9862280" lon="-1.6550380">
        <ele>762.463989</ele>
        <time>2019-05-02T09:40:57.000Z</time>
      </trkpt>
      <trkpt lat="42.9862610" lon="-1.6551010">
        <ele>763.610046</ele>
        <time>2019-05-02T09:41:00.000Z</time>
      </trkpt>
      <trkpt lat="42.9863040" lon="-1.6551520">
        <ele>764.808044</ele>
        <time>2019-05-02T09:41:04.000Z</time>
      </trkpt>
      <trkpt lat="42.9863460" lon="-1.6551840">
        <ele>765.356995</ele>
        <time>2019-05-02T09:41:06.000Z</time>
      </trkpt>
      <trkpt lat="42.9863970" lon="-1.6551830">
        <ele>766.188965</ele>
        <time>2019-05-02T09:41:09.000Z</time>
      </trkpt>
      <trkpt lat="42.9864520" lon="-1.6552080">
        <ele>766.872986</ele>
        <time>2019-05-02T09:41:12.000Z</time>
      </trkpt>
      <trkpt lat="42.9865170" lon="-1.6552380">
        <ele>767.739990</ele>
        <time>2019-05-02T09:41:15.000Z</time>
      </trkpt>
      <trkpt lat="42.9865730" lon="-1.6552650">
        <ele>768.456970</ele>
        <time>2019-05-02T09:41:18.000Z</time>
      </trkpt>
      <trkpt lat="42.9866530" lon="-1.6553050">
        <ele>769.424011</ele>
        <time>2019-05-02T09:41:22.000Z</time>
      </trkpt>
      <trkpt lat="42.9866930" lon="-1.6553410">
        <ele>770.071045</ele>
        <time>2019-05-02T09:41:24.000Z</time>
      </trkpt>
      <trkpt lat="42.9867400" lon="-1.6553300">
        <ele>770.979004</ele>
        <time>2019-05-02T09:41:26.000Z</time>
      </trkpt>
      <trkpt lat="42.9867910" lon="-1.6553450">
        <ele>771.668030</ele>
        <time>2019-05-02T09:41:29.000Z</time>
      </trkpt>
      <trkpt lat="42.9868380" lon="-1.6553420">
        <ele>772.242004</ele>
        <time>2019-05-02T09:41:32.000Z</time>
      </trkpt>
      <trkpt lat="42.9868920" lon="-1.6553330">
        <ele>772.725952</ele>
        <time>2019-05-02T09:41:35.000Z</time>
      </trkpt>
      <trkpt lat="42.9869380" lon="-1.6553000">
        <ele>773.007996</ele>
        <time>2019-05-02T09:41:37.000Z</time>
      </trkpt>
      <trkpt lat="42.9869900" lon="-1.6552740">
        <ele>773.229004</ele>
        <time>2019-05-02T09:41:39.000Z</time>
      </trkpt>
      <trkpt lat="42.9870490" lon="-1.6552830">
        <ele>773.760986</ele>
        <time>2019-05-02T09:41:42.000Z</time>
      </trkpt>
      <trkpt lat="42.9871030" lon="-1.6553010">
        <ele>774.184998</ele>
        <time>2019-05-02T09:41:45.000Z</time>
      </trkpt>
      <trkpt lat="42.9871480" lon="-1.6553200">
        <ele>774.821960</ele>
        <time>2019-05-02T09:41:49.000Z</time>
      </trkpt>
      <trkpt lat="42.9871670" lon="-1.6553870">
        <ele>777.299011</ele>
        <time>2019-05-02T09:41:54.000Z</time>
      </trkpt>
      <trkpt lat="42.9871520" lon="-1.6554450">
        <ele>779.046021</ele>
        <time>2019-05-02T09:42:00.000Z</time>
      </trkpt>
      <trkpt lat="42.9871480" lon="-1.6555080">
        <ele>779.282959</ele>
        <time>2019-05-02T09:42:06.000Z</time>
      </trkpt>
      <trkpt lat="42.9871430" lon="-1.6555760">
        <ele>782.781006</ele>
        <time>2019-05-02T09:42:41.000Z</time>
      </trkpt>
      <trkpt lat="42.9871310" lon="-1.6556410">
        <ele>785.467957</ele>
        <time>2019-05-02T09:42:48.000Z</time>
      </trkpt>
      <trkpt lat="42.9871150" lon="-1.6557040">
        <ele>786.541992</ele>
        <time>2019-05-02T09:42:52.000Z</time>
      </trkpt>
      <trkpt lat="42.9871140" lon="-1.6557760">
        <ele>788.026001</ele>
        <time>2019-05-02T09:42:58.000Z</time>
      </trkpt>
      <trkpt lat="42.9871170" lon="-1.6558400">
        <ele>789.407959</ele>
        <time>2019-05-02T09:43:03.000Z</time>
      </trkpt>
      <trkpt lat="42.9871180" lon="-1.6559110">
        <ele>791.098999</ele>
        <time>2019-05-02T09:43:10.000Z</time>
      </trkpt>
      <trkpt lat="42.9871250" lon="-1.6559790">
        <ele>791.540955</ele>
        <time>2019-05-02T09:43:13.000Z</time>
      </trkpt>
      <trkpt lat="42.9871370" lon="-1.6560520">
        <ele>793.815002</ele>
        <time>2019-05-02T09:43:23.000Z</time>
      </trkpt>
      <trkpt lat="42.9871310" lon="-1.6561290">
        <ele>795.082031</ele>
        <time>2019-05-02T09:43:27.000Z</time>
      </trkpt>
      <trkpt lat="42.9871210" lon="-1.6561930">
        <ele>799.438965</ele>
        <time>2019-05-02T09:43:46.000Z</time>
      </trkpt>
      <trkpt lat="42.9871080" lon="-1.6562580">
        <ele>800.255981</ele>
        <time>2019-05-02T09:43:50.000Z</time>
      </trkpt>
      <trkpt lat="42.9870690" lon="-1.6563120">
        <ele>801.592957</ele>
        <time>2019-05-02T09:43:54.000Z</time>
      </trkpt>
      <trkpt lat="42.9870270" lon="-1.6563480">
        <ele>802.570984</ele>
        <time>2019-05-02T09:43:58.000Z</time>
      </trkpt>
      <trkpt lat="42.9870010" lon="-1.6564000">
        <ele>804.745972</ele>
        <time>2019-05-02T09:44:06.000Z</time>
      </trkpt>
      <trkpt lat="42.9869940" lon="-1.6564650">
        <ele>805.888000</ele>
        <time>2019-05-02T09:44:10.000Z</time>
      </trkpt>
      <trkpt lat="42.9869830" lon="-1.6565420">
        <ele>806.415955</ele>
        <time>2019-05-02T09:44:13.000Z</time>
      </trkpt>
      <trkpt lat="42.9869860" lon="-1.6566160">
        <ele>807.108032</ele>
        <time>2019-05-02T09:44:17.000Z</time>
      </trkpt>
      <trkpt lat="42.9869830" lon="-1.6566840">
        <ele>807.937012</ele>
        <time>2019-05-02T09:44:20.000Z</time>
      </trkpt>
      <trkpt lat="42.9869690" lon="-1.6567450">
        <ele>809.039001</ele>
        <time>2019-05-02T09:44:25.000Z</time>
      </trkpt>
      <trkpt lat="42.9869410" lon="-1.6568120">
        <ele>810.062988</ele>
        <time>2019-05-02T09:44:30.000Z</time>
      </trkpt>
      <trkpt lat="42.9869220" lon="-1.6568700">
        <ele>810.679993</ele>
        <time>2019-05-02T09:44:34.000Z</time>
      </trkpt>
      <trkpt lat="42.9869160" lon="-1.6569320">
        <ele>811.347046</ele>
        <time>2019-05-02T09:44:46.000Z</time>
      </trkpt>
      <trkpt lat="42.9869190" lon="-1.6570020">
        <ele>812.383972</ele>
        <time>2019-05-02T09:44:54.000Z</time>
      </trkpt>
      <trkpt lat="42.9868910" lon="-1.6570500">
        <ele>812.791016</ele>
        <time>2019-05-02T09:44:58.000Z</time>
      </trkpt>
      <trkpt lat="42.9868510" lon="-1.6570790">
        <ele>813.049011</ele>
        <time>2019-05-02T09:45:01.000Z</time>
      </trkpt>
      <trkpt lat="42.9868020" lon="-1.6571120">
        <ele>813.135986</ele>
        <time>2019-05-02T09:45:03.000Z</time>
      </trkpt>
      <trkpt lat="42.9867950" lon="-1.6571850">
        <ele>813.316956</ele>
        <time>2019-05-02T09:45:06.000Z</time>
      </trkpt>
      <trkpt lat="42.9867650" lon="-1.6572330">
        <ele>813.617981</ele>
        <time>2019-05-02T09:45:09.000Z</time>
      </trkpt>
      <trkpt lat="42.9867090" lon="-1.6572490">
        <ele>813.807983</ele>
        <time>2019-05-02T09:45:11.000Z</time>
      </trkpt>
      <trkpt lat="42.9866660" lon="-1.6572980">
        <ele>813.966003</ele>
        <time>2019-05-02T09:45:15.000Z</time>
      </trkpt>
      <trkpt lat="42.9866360" lon="-1.6573590">
        <ele>814.037964</ele>
        <time>2019-05-02T09:45:18.000Z</time>
      </trkpt>
      <trkpt lat="42.9866340" lon="-1.6574370">
        <ele>814.171997</ele>
        <time>2019-05-02T09:45:20.000Z</time>
      </trkpt>
      <trkpt lat="42.9866370" lon="-1.6575200">
        <ele>814.338989</ele>
        <time>2019-05-02T09:45:23.000Z</time>
      </trkpt>
      <trkpt lat="42.9866400" lon="-1.6575840">
        <ele>814.696045</ele>
        <time>2019-05-02T09:45:25.000Z</time>
      </trkpt>
      <trkpt lat="42.9866480" lon="-1.6576450">
        <ele>814.963013</ele>
        <time>2019-05-02T09:45:27.000Z</time>
      </trkpt>
      <trkpt lat="42.9866620" lon="-1.6577070">
        <ele>815.369995</ele>
        <time>2019-05-02T09:45:29.000Z</time>
      </trkpt>
      <trkpt lat="42.9866780" lon="-1.6577680">
        <ele>815.518005</ele>
        <time>2019-05-02T09:45:31.000Z</time>
      </trkpt>
      <trkpt lat="42.9866960" lon="-1.6578380">
        <ele>815.773010</ele>
        <time>2019-05-02T09:45:33.000Z</time>
      </trkpt>
      <trkpt lat="42.9867060" lon="-1.6579110">
        <ele>815.885010</ele>
        <time>2019-05-02T09:45:34.000Z</time>
      </trkpt>
      <trkpt lat="42.9867100" lon="-1.6579920">
        <ele>816.013000</ele>
        <time>2019-05-02T09:45:36.000Z</time>
      </trkpt>
      <trkpt lat="42.9867170" lon="-1.6580570">
        <ele>816.207947</ele>
        <time>2019-05-02T09:45:38.000Z</time>
      </trkpt>
      <trkpt lat="42.9867210" lon="-1.6581290">
        <ele>816.549988</ele>
        <time>2019-05-02T09:45:40.000Z</time>
      </trkpt>
      <trkpt lat="42.9867260" lon="-1.6581970">
        <ele>817.062012</ele>
        <time>2019-05-02T09:45:42.000Z</time>
      </trkpt>
      <trkpt lat="42.9867310" lon="-1.6582680">
        <ele>817.395996</ele>
        <time>2019-05-02T09:45:44.000Z</time>
      </trkpt>
      <trkpt lat="42.9867440" lon="-1.6583400">
        <ele>817.713013</ele>
        <time>2019-05-02T09:45:46.000Z</time>
      </trkpt>
      <trkpt lat="42.9867570" lon="-1.6584020">
        <ele>818.190002</ele>
        <time>2019-05-02T09:45:48.000Z</time>
      </trkpt>
      <trkpt lat="42.9867830" lon="-1.6584660">
        <ele>818.557007</ele>
        <time>2019-05-02T09:45:50.000Z</time>
      </trkpt>
      <trkpt lat="42.9868000" lon="-1.6585260">
        <ele>818.854004</ele>
        <time>2019-05-02T09:45:52.000Z</time>
      </trkpt>
      <trkpt lat="42.9868430" lon="-1.6585820">
        <ele>819.862000</ele>
        <time>2019-05-02T09:45:55.000Z</time>
      </trkpt>
      <trkpt lat="42.9868640" lon="-1.6586520">
        <ele>820.698059</ele>
        <time>2019-05-02T09:45:59.000Z</time>
      </trkpt>
      <trkpt lat="42.9868880" lon="-1.6587240">
        <ele>821.214966</ele>
        <time>2019-05-02T09:46:02.000Z</time>
      </trkpt>
      <trkpt lat="42.9869100" lon="-1.6587970">
        <ele>821.625977</ele>
        <time>2019-05-02T09:46:04.000Z</time>
      </trkpt>
      <trkpt lat="42.9869360" lon="-1.6588770">
        <ele>822.108032</ele>
        <time>2019-05-02T09:46:07.000Z</time>
      </trkpt>
      <trkpt lat="42.9869700" lon="-1.6589370">
        <ele>823.062012</ele>
        <time>2019-05-02T09:46:10.000Z</time>
      </trkpt>
      <trkpt lat="42.9870100" lon="-1.6589960">
        <ele>823.683960</ele>
        <time>2019-05-02T09:46:12.000Z</time>
      </trkpt>
      <trkpt lat="42.9870440" lon="-1.6590540">
        <ele>824.338013</ele>
        <time>2019-05-02T09:46:15.000Z</time>
      </trkpt>
      <trkpt lat="42.9870620" lon="-1.6591220">
        <ele>824.744995</ele>
        <time>2019-05-02T09:46:17.000Z</time>
      </trkpt>
      <trkpt lat="42.9870800" lon="-1.6592010">
        <ele>825.471985</ele>
        <time>2019-05-02T09:46:20.000Z</time>
      </trkpt>
      <trkpt lat="42.9871020" lon="-1.6592670">
        <ele>826.498962</ele>
        <time>2019-05-02T09:46:22.000Z</time>
      </trkpt>
      <trkpt lat="42.9871330" lon="-1.6593300">
        <ele>827.376038</ele>
        <time>2019-05-02T09:46:25.000Z</time>
      </trkpt>
      <trkpt lat="42.9871360" lon="-1.6594050">
        <ele>827.963989</ele>
        <time>2019-05-02T09:46:28.000Z</time>
      </trkpt>
      <trkpt lat="42.9871400" lon="-1.6594700">
        <ele>828.424988</ele>
        <time>2019-05-02T09:46:31.000Z</time>
      </trkpt>
      <trkpt lat="42.9871550" lon="-1.6595430">
        <ele>829.425964</ele>
        <time>2019-05-02T09:46:34.000Z</time>
      </trkpt>
      <trkpt lat="42.9871690" lon="-1.6596180">
        <ele>830.308044</ele>
        <time>2019-05-02T09:46:37.000Z</time>
      </trkpt>
      <trkpt lat="42.9871730" lon="-1.6596890">
        <ele>831.107971</ele>
        <time>2019-05-02T09:46:39.000Z</time>
      </trkpt>
      <trkpt lat="42.9871730" lon="-1.6597690">
        <ele>832.145020</ele>
        <time>2019-05-02T09:46:42.000Z</time>
      </trkpt>
      <trkpt lat="42.9871480" lon="-1.6598460">
        <ele>832.886963</ele>
        <time>2019-05-02T09:46:45.000Z</time>
      </trkpt>
      <trkpt lat="42.9871220" lon="-1.6599180">
        <ele>833.511047</ele>
        <time>2019-05-02T09:46:48.000Z</time>
      </trkpt>
      <trkpt lat="42.9870810" lon="-1.6599760">
        <ele>834.148010</ele>
        <time>2019-05-02T09:46:51.000Z</time>
      </trkpt>
      <trkpt lat="42.9870490" lon="-1.6600470">
        <ele>834.524963</ele>
        <time>2019-05-02T09:46:54.000Z</time>
      </trkpt>
      <trkpt lat="42.9870170" lon="-1.6601240">
        <ele>834.622009</ele>
        <time>2019-05-02T09:46:57.000Z</time>
      </trkpt>
      <trkpt lat="42.9869910" lon="-1.6601770">
        <ele>834.629028</ele>
        <time>2019-05-02T09:46:59.000Z</time>
      </trkpt>
      <trkpt lat="42.9869670" lon="-1.6602450">
        <ele>834.796997</ele>
        <time>2019-05-02T09:47:01.000Z</time>
      </trkpt>
      <trkpt lat="42.9869650" lon="-1.6603100">
        <ele>834.935974</ele>
        <time>2019-05-02T09:47:03.000Z</time>
      </trkpt>
      <trkpt lat="42.9870140" lon="-1.6603530">
        <ele>835.717041</ele>
        <time>2019-05-02T09:47:06.000Z</time>
      </trkpt>
      <trkpt lat="42.9870610" lon="-1.6603510">
        <ele>836.817993</ele>
        <time>2019-05-02T09:47:09.000Z</time>
      </trkpt>
      <trkpt lat="42.9871090" lon="-1.6603640">
        <ele>837.408020</ele>
        <time>2019-05-02T09:47:13.000Z</time>
      </trkpt>
      <trkpt lat="42.9870510" lon="-1.6603640">
        <ele>837.736023</ele>
        <time>2019-05-02T09:47:19.000Z</time>
      </trkpt>
      <trkpt lat="42.9870050" lon="-1.6603420">
        <ele>837.397949</ele>
        <time>2019-05-02T09:47:21.000Z</time>
      </trkpt>
      <trkpt lat="42.9869480" lon="-1.6603420">
        <ele>836.612000</ele>
        <time>2019-05-02T09:47:23.000Z</time>
      </trkpt>
      <trkpt lat="42.9869000" lon="-1.6603570">
        <ele>835.818970</ele>
        <time>2019-05-02T09:47:25.000Z</time>
      </trkpt>
      <trkpt lat="42.9868400" lon="-1.6604080">
        <ele>834.916016</ele>
        <time>2019-05-02T09:47:27.000Z</time>
      </trkpt>
      <trkpt lat="42.9867690" lon="-1.6605250">
        <ele>833.792969</ele>
        <time>2019-05-02T09:47:29.000Z</time>
      </trkpt>
      <trkpt lat="42.9867270" lon="-1.6605580">
        <ele>833.459961</ele>
        <time>2019-05-02T09:47:30.000Z</time>
      </trkpt>
      <trkpt lat="42.9866990" lon="-1.6606140">
        <ele>833.268005</ele>
        <time>2019-05-02T09:47:31.000Z</time>
      </trkpt>
      <trkpt lat="42.9866620" lon="-1.6606600">
        <ele>833.032959</ele>
        <time>2019-05-02T09:47:32.000Z</time>
      </trkpt>
      <trkpt lat="42.9866110" lon="-1.6607140">
        <ele>832.622986</ele>
        <time>2019-05-02T09:47:34.000Z</time>
      </trkpt>
      <trkpt lat="42.9865660" lon="-1.6607690">
        <ele>832.314941</ele>
        <time>2019-05-02T09:47:36.000Z</time>
      </trkpt>
      <trkpt lat="42.9864990" lon="-1.6608310">
        <ele>832.307983</ele>
        <time>2019-05-02T09:47:39.000Z</time>
      </trkpt>
      <trkpt lat="42.9864530" lon="-1.6608590">
        <ele>832.695984</ele>
        <time>2019-05-02T09:47:41.000Z</time>
      </trkpt>
      <trkpt lat="42.9863890" lon="-1.6608840">
        <ele>832.927979</ele>
        <time>2019-05-02T09:47:43.000Z</time>
      </trkpt>
      <trkpt lat="42.9863390" lon="-1.6608890">
        <ele>833.122009</ele>
        <time>2019-05-02T09:47:45.000Z</time>
      </trkpt>
      <trkpt lat="42.9862820" lon="-1.6609160">
        <ele>833.438965</ele>
        <time>2019-05-02T09:47:47.000Z</time>
      </trkpt>
      <trkpt lat="42.9862290" lon="-1.6609280">
        <ele>833.865967</ele>
        <time>2019-05-02T09:47:50.000Z</time>
      </trkpt>
      <trkpt lat="42.9861800" lon="-1.6609240">
        <ele>834.163025</ele>
        <time>2019-05-02T09:47:52.000Z</time>
      </trkpt>
      <trkpt lat="42.9861300" lon="-1.6609340">
        <ele>834.280029</ele>
        <time>2019-05-02T09:47:54.000Z</time>
      </trkpt>
      <trkpt lat="42.9860810" lon="-1.6609340">
        <ele>833.697998</ele>
        <time>2019-05-02T09:47:57.000Z</time>
      </trkpt>
      <trkpt lat="42.9860100" lon="-1.6609340">
        <ele>833.322021</ele>
        <time>2019-05-02T09:47:59.000Z</time>
      </trkpt>
      <trkpt lat="42.9859650" lon="-1.6609740">
        <ele>833.162048</ele>
        <time>2019-05-02T09:48:00.000Z</time>
      </trkpt>
      <trkpt lat="42.9859270" lon="-1.6610150">
        <ele>833.007996</ele>
        <time>2019-05-02T09:48:01.000Z</time>
      </trkpt>
      <trkpt lat="42.9858680" lon="-1.6610430">
        <ele>832.907959</ele>
        <time>2019-05-02T09:48:03.000Z</time>
      </trkpt>
      <trkpt lat="42.9858090" lon="-1.6610660">
        <ele>833.014954</ele>
        <time>2019-05-02T09:48:05.000Z</time>
      </trkpt>
      <trkpt lat="42.9857650" lon="-1.6610860">
        <ele>833.456970</ele>
        <time>2019-05-02T09:48:08.000Z</time>
      </trkpt>
      <trkpt lat="42.9857100" lon="-1.6611050">
        <ele>832.911011</ele>
        <time>2019-05-02T09:48:10.000Z</time>
      </trkpt>
      <trkpt lat="42.9856220" lon="-1.6611340">
        <ele>831.967957</ele>
        <time>2019-05-02T09:48:12.000Z</time>
      </trkpt>
      <trkpt lat="42.9855710" lon="-1.6611580">
        <ele>831.214966</ele>
        <time>2019-05-02T09:48:13.000Z</time>
      </trkpt>
      <trkpt lat="42.9855260" lon="-1.6611630">
        <ele>830.771973</ele>
        <time>2019-05-02T09:48:14.000Z</time>
      </trkpt>
      <trkpt lat="42.9854780" lon="-1.6611540">
        <ele>830.239014</ele>
        <time>2019-05-02T09:48:15.000Z</time>
      </trkpt>
      <trkpt lat="42.9854250" lon="-1.6611370">
        <ele>829.756958</ele>
        <time>2019-05-02T09:48:16.000Z</time>
      </trkpt>
      <trkpt lat="42.9853350" lon="-1.6611180">
        <ele>829.072021</ele>
        <time>2019-05-02T09:48:18.000Z</time>
      </trkpt>
      <trkpt lat="42.9852800" lon="-1.6611150">
        <ele>828.613037</ele>
        <time>2019-05-02T09:48:19.000Z</time>
      </trkpt>
      <trkpt lat="42.9852290" lon="-1.6611070">
        <ele>828.213989</ele>
        <time>2019-05-02T09:48:20.000Z</time>
      </trkpt>
      <trkpt lat="42.9851330" lon="-1.6610850">
        <ele>826.208008</ele>
        <time>2019-05-02T09:48:22.000Z</time>
      </trkpt>
      <trkpt lat="42.9850830" lon="-1.6610850">
        <ele>825.469971</ele>
        <time>2019-05-02T09:48:23.000Z</time>
      </trkpt>
      <trkpt lat="42.9849970" lon="-1.6611060">
        <ele>823.981995</ele>
        <time>2019-05-02T09:48:25.000Z</time>
      </trkpt>
      <trkpt lat="42.9849100" lon="-1.6611180">
        <ele>822.846008</ele>
        <time>2019-05-02T09:48:27.000Z</time>
      </trkpt>
      <trkpt lat="42.9848350" lon="-1.6611090">
        <ele>822.083008</ele>
        <time>2019-05-02T09:48:29.000Z</time>
      </trkpt>
      <trkpt lat="42.9847660" lon="-1.6610790">
        <ele>821.450012</ele>
        <time>2019-05-02T09:48:31.000Z</time>
      </trkpt>
      <trkpt lat="42.9847210" lon="-1.6610610">
        <ele>821.216980</ele>
        <time>2019-05-02T09:48:32.000Z</time>
      </trkpt>
      <trkpt lat="42.9846790" lon="-1.6610350">
        <ele>821.023987</ele>
        <time>2019-05-02T09:48:33.000Z</time>
      </trkpt>
      <trkpt lat="42.9846230" lon="-1.6610420">
        <ele>820.441956</ele>
        <time>2019-05-02T09:48:34.000Z</time>
      </trkpt>
      <trkpt lat="42.9845750" lon="-1.6610460">
        <ele>820.166992</ele>
        <time>2019-05-02T09:48:35.000Z</time>
      </trkpt>
      <trkpt lat="42.9845210" lon="-1.6610570">
        <ele>819.880981</ele>
        <time>2019-05-02T09:48:36.000Z</time>
      </trkpt>
      <trkpt lat="42.9844640" lon="-1.6610630">
        <ele>819.419006</ele>
        <time>2019-05-02T09:48:37.000Z</time>
      </trkpt>
      <trkpt lat="42.9844100" lon="-1.6610640">
        <ele>819.007996</ele>
        <time>2019-05-02T09:48:38.000Z</time>
      </trkpt>
      <trkpt lat="42.9843510" lon="-1.6610690">
        <ele>818.629028</ele>
        <time>2019-05-02T09:48:39.000Z</time>
      </trkpt>
      <trkpt lat="42.9842920" lon="-1.6610970">
        <ele>818.210999</ele>
        <time>2019-05-02T09:48:40.000Z</time>
      </trkpt>
      <trkpt lat="42.9842350" lon="-1.6611180">
        <ele>817.854980</ele>
        <time>2019-05-02T09:48:41.000Z</time>
      </trkpt>
      <trkpt lat="42.9841800" lon="-1.6611320">
        <ele>817.411987</ele>
        <time>2019-05-02T09:48:42.000Z</time>
      </trkpt>
      <trkpt lat="42.9841260" lon="-1.6611420">
        <ele>817.078979</ele>
        <time>2019-05-02T09:48:43.000Z</time>
      </trkpt>
      <trkpt lat="42.9840640" lon="-1.6611450">
        <ele>816.526001</ele>
        <time>2019-05-02T09:48:44.000Z</time>
      </trkpt>
      <trkpt lat="42.9839970" lon="-1.6611600">
        <ele>816.083008</ele>
        <time>2019-05-02T09:48:45.000Z</time>
      </trkpt>
      <trkpt lat="42.9839280" lon="-1.6611950">
        <ele>815.741028</ele>
        <time>2019-05-02T09:48:46.000Z</time>
      </trkpt>
      <trkpt lat="42.9838610" lon="-1.6612260">
        <ele>815.118042</ele>
        <time>2019-05-02T09:48:47.000Z</time>
      </trkpt>
      <trkpt lat="42.9838030" lon="-1.6612790">
        <ele>814.098022</ele>
        <time>2019-05-02T09:48:48.000Z</time>
      </trkpt>
      <trkpt lat="42.9837580" lon="-1.6613280">
        <ele>813.517029</ele>
        <time>2019-05-02T09:48:49.000Z</time>
      </trkpt>
      <trkpt lat="42.9836820" lon="-1.6614070">
        <ele>812.908020</ele>
        <time>2019-05-02T09:48:50.000Z</time>
      </trkpt>
      <trkpt lat="42.9836310" lon="-1.6614670">
        <ele>812.484009</ele>
        <time>2019-05-02T09:48:51.000Z</time>
      </trkpt>
      <trkpt lat="42.9835670" lon="-1.6615490">
        <ele>812.075989</ele>
        <time>2019-05-02T09:48:52.000Z</time>
      </trkpt>
      <trkpt lat="42.9835140" lon="-1.6616040">
        <ele>811.619995</ele>
        <time>2019-05-02T09:48:53.000Z</time>
      </trkpt>
      <trkpt lat="42.9834590" lon="-1.6616150">
        <ele>811.217041</ele>
        <time>2019-05-02T09:48:54.000Z</time>
      </trkpt>
      <trkpt lat="42.9833940" lon="-1.6615850">
        <ele>810.884033</ele>
        <time>2019-05-02T09:48:56.000Z</time>
      </trkpt>
      <trkpt lat="42.9833210" lon="-1.6615390">
        <ele>810.241028</ele>
        <time>2019-05-02T09:48:58.000Z</time>
      </trkpt>
      <trkpt lat="42.9832480" lon="-1.6615260">
        <ele>809.157959</ele>
        <time>2019-05-02T09:49:00.000Z</time>
      </trkpt>
      <trkpt lat="42.9831910" lon="-1.6615090">
        <ele>807.786011</ele>
        <time>2019-05-02T09:49:02.000Z</time>
      </trkpt>
      <trkpt lat="42.9831220" lon="-1.6615270">
        <ele>807.576965</ele>
        <time>2019-05-02T09:49:04.000Z</time>
      </trkpt>
      <trkpt lat="42.9830550" lon="-1.6615640">
        <ele>807.161011</ele>
        <time>2019-05-02T09:49:06.000Z</time>
      </trkpt>
      <trkpt lat="42.9829790" lon="-1.6615730">
        <ele>806.926941</ele>
        <time>2019-05-02T09:49:08.000Z</time>
      </trkpt>
      <trkpt lat="42.9829130" lon="-1.6616250">
        <ele>806.807983</ele>
        <time>2019-05-02T09:49:10.000Z</time>
      </trkpt>
      <trkpt lat="42.9828980" lon="-1.6617030">
        <ele>806.850037</ele>
        <time>2019-05-02T09:49:12.000Z</time>
      </trkpt>
      <trkpt lat="42.9829090" lon="-1.6618090">
        <ele>806.882019</ele>
        <time>2019-05-02T09:49:14.000Z</time>
      </trkpt>
      <trkpt lat="42.9829160" lon="-1.6618920">
        <ele>807.245972</ele>
        <time>2019-05-02T09:49:16.000Z</time>
      </trkpt>
      <trkpt lat="42.9828850" lon="-1.6619800">
        <ele>807.692993</ele>
        <time>2019-05-02T09:49:18.000Z</time>
      </trkpt>
      <trkpt lat="42.9828430" lon="-1.6620590">
        <ele>808.050049</ele>
        <time>2019-05-02T09:49:20.000Z</time>
      </trkpt>
      <trkpt lat="42.9828150" lon="-1.6621420">
        <ele>808.536987</ele>
        <time>2019-05-02T09:49:22.000Z</time>
      </trkpt>
      <trkpt lat="42.9827630" lon="-1.6622090">
        <ele>808.914001</ele>
        <time>2019-05-02T09:49:24.000Z</time>
      </trkpt>
      <trkpt lat="42.9827050" lon="-1.6622630">
        <ele>809.091980</ele>
        <time>2019-05-02T09:49:26.000Z</time>
      </trkpt>
      <trkpt lat="42.9826380" lon="-1.6622980">
        <ele>809.093994</ele>
        <time>2019-05-02T09:49:28.000Z</time>
      </trkpt>
      <trkpt lat="42.9825950" lon="-1.6623260">
        <ele>809.257019</ele>
        <time>2019-05-02T09:49:30.000Z</time>
      </trkpt>
      <trkpt lat="42.9825410" lon="-1.6623350">
        <ele>808.921997</ele>
        <time>2019-05-02T09:49:35.000Z</time>
      </trkpt>
      <trkpt lat="42.9824890" lon="-1.6623480">
        <ele>808.807983</ele>
        <time>2019-05-02T09:49:37.000Z</time>
      </trkpt>
      <trkpt lat="42.9824420" lon="-1.6623620">
        <ele>808.862061</ele>
        <time>2019-05-02T09:49:43.000Z</time>
      </trkpt>
      <trkpt lat="42.9823930" lon="-1.6623980">
        <ele>809.033997</ele>
        <time>2019-05-02T09:49:47.000Z</time>
      </trkpt>
      <trkpt lat="42.9823370" lon="-1.6624120">
        <ele>809.218018</ele>
        <time>2019-05-02T09:49:50.000Z</time>
      </trkpt>
      <trkpt lat="42.9822690" lon="-1.6624330">
        <ele>809.344971</ele>
        <time>2019-05-02T09:49:52.000Z</time>
      </trkpt>
      <trkpt lat="42.9822050" lon="-1.6624260">
        <ele>809.471985</ele>
        <time>2019-05-02T09:49:54.000Z</time>
      </trkpt>
      <trkpt lat="42.9821540" lon="-1.6624180">
        <ele>809.669006</ele>
        <time>2019-05-02T09:49:55.000Z</time>
      </trkpt>
      <trkpt lat="42.9820780" lon="-1.6624210">
        <ele>809.615967</ele>
        <time>2019-05-02T09:49:57.000Z</time>
      </trkpt>
      <trkpt lat="42.9820090" lon="-1.6624370">
        <ele>809.684021</ele>
        <time>2019-05-02T09:49:59.000Z</time>
      </trkpt>
      <trkpt lat="42.9819350" lon="-1.6624540">
        <ele>809.693970</ele>
        <time>2019-05-02T09:50:01.000Z</time>
      </trkpt>
      <trkpt lat="42.9818760" lon="-1.6624640">
        <ele>809.757019</ele>
        <time>2019-05-02T09:50:03.000Z</time>
      </trkpt>
      <trkpt lat="42.9818310" lon="-1.6624680">
        <ele>809.722046</ele>
        <time>2019-05-02T09:50:04.000Z</time>
      </trkpt>
      <trkpt lat="42.9817650" lon="-1.6624800">
        <ele>809.807983</ele>
        <time>2019-05-02T09:50:06.000Z</time>
      </trkpt>
      <trkpt lat="42.9817140" lon="-1.6624900">
        <ele>809.832031</ele>
        <time>2019-05-02T09:50:08.000Z</time>
      </trkpt>
      <trkpt lat="42.9816560" lon="-1.6624780">
        <ele>809.873962</ele>
        <time>2019-05-02T09:50:10.000Z</time>
      </trkpt>
      <trkpt lat="42.9816100" lon="-1.6624570">
        <ele>809.888000</ele>
        <time>2019-05-02T09:50:11.000Z</time>
      </trkpt>
      <trkpt lat="42.9815180" lon="-1.6624530">
        <ele>809.714966</ele>
        <time>2019-05-02T09:50:13.000Z</time>
      </trkpt>
      <trkpt lat="42.9814700" lon="-1.6624510">
        <ele>809.682007</ele>
        <time>2019-05-02T09:50:14.000Z</time>
      </trkpt>
      <trkpt lat="42.9813990" lon="-1.6624400">
        <ele>809.479004</ele>
        <time>2019-05-02T09:50:16.000Z</time>
      </trkpt>
      <trkpt lat="42.9813520" lon="-1.6624500">
        <ele>809.316040</ele>
        <time>2019-05-02T09:50:17.000Z</time>
      </trkpt>
      <trkpt lat="42.9812550" lon="-1.6624710">
        <ele>809.033997</ele>
        <time>2019-05-02T09:50:19.000Z</time>
      </trkpt>
      <trkpt lat="42.9812060" lon="-1.6624780">
        <ele>808.956970</ele>
        <time>2019-05-02T09:50:20.000Z</time>
      </trkpt>
      <trkpt lat="42.9811440" lon="-1.6624630">
        <ele>808.700012</ele>
        <time>2019-05-02T09:50:21.000Z</time>
      </trkpt>
      <trkpt lat="42.9810910" lon="-1.6624570">
        <ele>808.219971</ele>
        <time>2019-05-02T09:50:22.000Z</time>
      </trkpt>
      <trkpt lat="42.9810400" lon="-1.6624460">
        <ele>808.007996</ele>
        <time>2019-05-02T09:50:23.000Z</time>
      </trkpt>
      <trkpt lat="42.9809850" lon="-1.6624300">
        <ele>807.838013</ele>
        <time>2019-05-02T09:50:24.000Z</time>
      </trkpt>
      <trkpt lat="42.9809390" lon="-1.6624250">
        <ele>807.669983</ele>
        <time>2019-05-02T09:50:25.000Z</time>
      </trkpt>
      <trkpt lat="42.9808440" lon="-1.6624270">
        <ele>807.653992</ele>
        <time>2019-05-02T09:50:27.000Z</time>
      </trkpt>
      <trkpt lat="42.9807880" lon="-1.6624360">
        <ele>807.690979</ele>
        <time>2019-05-02T09:50:29.000Z</time>
      </trkpt>
      <trkpt lat="42.9807300" lon="-1.6624030">
        <ele>807.697998</ele>
        <time>2019-05-02T09:50:31.000Z</time>
      </trkpt>
      <trkpt lat="42.9806800" lon="-1.6624230">
        <ele>807.494995</ele>
        <time>2019-05-02T09:50:33.000Z</time>
      </trkpt>
      <trkpt lat="42.9806330" lon="-1.6624380">
        <ele>807.041992</ele>
        <time>2019-05-02T09:50:40.000Z</time>
      </trkpt>
      <trkpt lat="42.9805770" lon="-1.6624540">
        <ele>807.059998</ele>
        <time>2019-05-02T09:50:43.000Z</time>
      </trkpt>
      <trkpt lat="42.9805110" lon="-1.6624370">
        <ele>806.976990</ele>
        <time>2019-05-02T09:50:46.000Z</time>
      </trkpt>
      <trkpt lat="42.9804520" lon="-1.6624200">
        <ele>806.761047</ele>
        <time>2019-05-02T09:50:49.000Z</time>
      </trkpt>
      <trkpt lat="42.9804020" lon="-1.6624280">
        <ele>806.427002</ele>
        <time>2019-05-02T09:50:51.000Z</time>
      </trkpt>
      <trkpt lat="42.9803300" lon="-1.6624350">
        <ele>806.107971</ele>
        <time>2019-05-02T09:50:53.000Z</time>
      </trkpt>
      <trkpt lat="42.9802620" lon="-1.6624460">
        <ele>805.789978</ele>
        <time>2019-05-02T09:50:55.000Z</time>
      </trkpt>
      <trkpt lat="42.9801800" lon="-1.6624490">
        <ele>805.242004</ele>
        <time>2019-05-02T09:50:57.000Z</time>
      </trkpt>
      <trkpt lat="42.9801070" lon="-1.6624790">
        <ele>804.485962</ele>
        <time>2019-05-02T09:50:59.000Z</time>
      </trkpt>
      <trkpt lat="42.9800570" lon="-1.6625050">
        <ele>803.932983</ele>
        <time>2019-05-02T09:51:00.000Z</time>
      </trkpt>
      <trkpt lat="42.9800080" lon="-1.6625110">
        <ele>803.460022</ele>
        <time>2019-05-02T09:51:01.000Z</time>
      </trkpt>
      <trkpt lat="42.9799460" lon="-1.6625100">
        <ele>802.927002</ele>
        <time>2019-05-02T09:51:02.000Z</time>
      </trkpt>
      <trkpt lat="42.9798880" lon="-1.6625180">
        <ele>801.843994</ele>
        <time>2019-05-02T09:51:03.000Z</time>
      </trkpt>
      <trkpt lat="42.9798270" lon="-1.6625280">
        <ele>801.281982</ele>
        <time>2019-05-02T09:51:04.000Z</time>
      </trkpt>
      <trkpt lat="42.9797460" lon="-1.6625580">
        <ele>800.091003</ele>
        <time>2019-05-02T09:51:06.000Z</time>
      </trkpt>
      <trkpt lat="42.9797000" lon="-1.6625710">
        <ele>799.380981</ele>
        <time>2019-05-02T09:51:07.000Z</time>
      </trkpt>
      <trkpt lat="42.9796520" lon="-1.6625790">
        <ele>798.619019</ele>
        <time>2019-05-02T09:51:08.000Z</time>
      </trkpt>
      <trkpt lat="42.9796070" lon="-1.6625840">
        <ele>797.807983</ele>
        <time>2019-05-02T09:51:09.000Z</time>
      </trkpt>
      <trkpt lat="42.9795280" lon="-1.6626110">
        <ele>796.141968</ele>
        <time>2019-05-02T09:51:11.000Z</time>
      </trkpt>
      <trkpt lat="42.9794560" lon="-1.6626070">
        <ele>794.554016</ele>
        <time>2019-05-02T09:51:13.000Z</time>
      </trkpt>
      <trkpt lat="42.9793860" lon="-1.6625810">
        <ele>793.148010</ele>
        <time>2019-05-02T09:51:15.000Z</time>
      </trkpt>
      <trkpt lat="42.9793400" lon="-1.6625480">
        <ele>791.375000</ele>
        <time>2019-05-02T09:51:17.000Z</time>
      </trkpt>
      <trkpt lat="42.9792860" lon="-1.6625040">
        <ele>790.031982</ele>
        <time>2019-05-02T09:51:19.000Z</time>
      </trkpt>
      <trkpt lat="42.9792210" lon="-1.6624570">
        <ele>788.619019</ele>
        <time>2019-05-02T09:51:21.000Z</time>
      </trkpt>
      <trkpt lat="42.9791610" lon="-1.6623990">
        <ele>786.916016</ele>
        <time>2019-05-02T09:51:23.000Z</time>
      </trkpt>
      <trkpt lat="42.9791100" lon="-1.6623480">
        <ele>786.174011</ele>
        <time>2019-05-02T09:51:24.000Z</time>
      </trkpt>
      <trkpt lat="42.9790560" lon="-1.6622880">
        <ele>785.291992</ele>
        <time>2019-05-02T09:51:25.000Z</time>
      </trkpt>
      <trkpt lat="42.9790080" lon="-1.6622460">
        <ele>784.273010</ele>
        <time>2019-05-02T09:51:26.000Z</time>
      </trkpt>
      <trkpt lat="42.9789680" lon="-1.6622170">
        <ele>783.420044</ele>
        <time>2019-05-02T09:51:27.000Z</time>
      </trkpt>
      <trkpt lat="42.9788950" lon="-1.6621670">
        <ele>780.908020</ele>
        <time>2019-05-02T09:51:29.000Z</time>
      </trkpt>
      <trkpt lat="42.9788390" lon="-1.6621290">
        <ele>779.822021</ele>
        <time>2019-05-02T09:51:31.000Z</time>
      </trkpt>
      <trkpt lat="42.9787640" lon="-1.6620990">
        <ele>778.763977</ele>
        <time>2019-05-02T09:51:33.000Z</time>
      </trkpt>
      <trkpt lat="42.9787200" lon="-1.6620890">
        <ele>778.247986</ele>
        <time>2019-05-02T09:51:34.000Z</time>
      </trkpt>
      <trkpt lat="42.9786610" lon="-1.6620840">
        <ele>777.635010</ele>
        <time>2019-05-02T09:51:35.000Z</time>
      </trkpt>
      <trkpt lat="42.9786090" lon="-1.6620750">
        <ele>776.941956</ele>
        <time>2019-05-02T09:51:36.000Z</time>
      </trkpt>
      <trkpt lat="42.9785640" lon="-1.6620690">
        <ele>776.229004</ele>
        <time>2019-05-02T09:51:37.000Z</time>
      </trkpt>
      <trkpt lat="42.9785100" lon="-1.6620610">
        <ele>775.595947</ele>
        <time>2019-05-02T09:51:38.000Z</time>
      </trkpt>
      <trkpt lat="42.9784340" lon="-1.6620650">
        <ele>774.084045</ele>
        <time>2019-05-02T09:51:40.000Z</time>
      </trkpt>
      <trkpt lat="42.9783820" lon="-1.6620560">
        <ele>772.765991</ele>
        <time>2019-05-02T09:51:42.000Z</time>
      </trkpt>
      <trkpt lat="42.9783150" lon="-1.6620710">
        <ele>771.029053</ele>
        <time>2019-05-02T09:51:44.000Z</time>
      </trkpt>
      <trkpt lat="42.9782510" lon="-1.6620750">
        <ele>769.921021</ele>
        <time>2019-05-02T09:51:46.000Z</time>
      </trkpt>
      <trkpt lat="42.9782050" lon="-1.6620790">
        <ele>769.408020</ele>
        <time>2019-05-02T09:51:47.000Z</time>
      </trkpt>
      <trkpt lat="42.9781200" lon="-1.6620910">
        <ele>768.339050</ele>
        <time>2019-05-02T09:51:49.000Z</time>
      </trkpt>
      <trkpt lat="42.9780460" lon="-1.6621030">
        <ele>767.151001</ele>
        <time>2019-05-02T09:51:51.000Z</time>
      </trkpt>
      <trkpt lat="42.9779880" lon="-1.6621200">
        <ele>765.874939</ele>
        <time>2019-05-02T09:51:53.000Z</time>
      </trkpt>
      <trkpt lat="42.9779430" lon="-1.6621580">
        <ele>764.791992</ele>
        <time>2019-05-02T09:51:55.000Z</time>
      </trkpt>
      <trkpt lat="42.9778950" lon="-1.6621620">
        <ele>763.528992</ele>
        <time>2019-05-02T09:51:58.000Z</time>
      </trkpt>
      <trkpt lat="42.9778450" lon="-1.6621740">
        <ele>763.026001</ele>
        <time>2019-05-02T09:52:01.000Z</time>
      </trkpt>
      <trkpt lat="42.9777920" lon="-1.6621670">
        <ele>762.593018</ele>
        <time>2019-05-02T09:52:03.000Z</time>
      </trkpt>
      <trkpt lat="42.9777410" lon="-1.6621490">
        <ele>761.870972</ele>
        <time>2019-05-02T09:52:05.000Z</time>
      </trkpt>
      <trkpt lat="42.9776810" lon="-1.6621460">
        <ele>760.992004</ele>
        <time>2019-05-02T09:52:07.000Z</time>
      </trkpt>
      <trkpt lat="42.9776280" lon="-1.6621440">
        <ele>760.072998</ele>
        <time>2019-05-02T09:52:09.000Z</time>
      </trkpt>
      <trkpt lat="42.9775740" lon="-1.6621500">
        <ele>758.320007</ele>
        <time>2019-05-02T09:52:11.000Z</time>
      </trkpt>
      <trkpt lat="42.9775110" lon="-1.6621720">
        <ele>756.307983</ele>
        <time>2019-05-02T09:52:14.000Z</time>
      </trkpt>
      <trkpt lat="42.9774330" lon="-1.6622190">
        <ele>755.281982</ele>
        <time>2019-05-02T09:52:16.000Z</time>
      </trkpt>
      <trkpt lat="42.9773760" lon="-1.6622370">
        <ele>754.124023</ele>
        <time>2019-05-02T09:52:18.000Z</time>
      </trkpt>
      <trkpt lat="42.9773210" lon="-1.6622330">
        <ele>752.888000</ele>
        <time>2019-05-02T09:52:20.000Z</time>
      </trkpt>
      <trkpt lat="42.9772630" lon="-1.6622280">
        <ele>751.534973</ele>
        <time>2019-05-02T09:52:22.000Z</time>
      </trkpt>
      <trkpt lat="42.9772090" lon="-1.6622470">
        <ele>749.892029</ele>
        <time>2019-05-02T09:52:24.000Z</time>
      </trkpt>
      <trkpt lat="42.9771360" lon="-1.6622440">
        <ele>748.838989</ele>
        <time>2019-05-02T09:52:26.000Z</time>
      </trkpt>
      <trkpt lat="42.9770880" lon="-1.6622440">
        <ele>747.796021</ele>
        <time>2019-05-02T09:52:28.000Z</time>
      </trkpt>
      <trkpt lat="42.9770260" lon="-1.6622770">
        <ele>746.614014</ele>
        <time>2019-05-02T09:52:30.000Z</time>
      </trkpt>
      <trkpt lat="42.9769680" lon="-1.6622880">
        <ele>745.523987</ele>
        <time>2019-05-02T09:52:32.000Z</time>
      </trkpt>
      <trkpt lat="42.9769120" lon="-1.6622810">
        <ele>744.303955</ele>
        <time>2019-05-02T09:52:34.000Z</time>
      </trkpt>
      <trkpt lat="42.9768560" lon="-1.6622890">
        <ele>743.814026</ele>
        <time>2019-05-02T09:52:35.000Z</time>
      </trkpt>
      <trkpt lat="42.9768100" lon="-1.6622970">
        <ele>742.708008</ele>
        <time>2019-05-02T09:52:36.000Z</time>
      </trkpt>
      <trkpt lat="42.9767370" lon="-1.6623020">
        <ele>741.515015</ele>
        <time>2019-05-02T09:52:38.000Z</time>
      </trkpt>
      <trkpt lat="42.9766730" lon="-1.6622980">
        <ele>740.566956</ele>
        <time>2019-05-02T09:52:40.000Z</time>
      </trkpt>
      <trkpt lat="42.9766220" lon="-1.6623130">
        <ele>739.511047</ele>
        <time>2019-05-02T09:52:42.000Z</time>
      </trkpt>
      <trkpt lat="42.9765780" lon="-1.6623390">
        <ele>738.718018</ele>
        <time>2019-05-02T09:52:44.000Z</time>
      </trkpt>
      <trkpt lat="42.9765220" lon="-1.6623780">
        <ele>737.645020</ele>
        <time>2019-05-02T09:52:47.000Z</time>
      </trkpt>
      <trkpt lat="42.9764650" lon="-1.6623810">
        <ele>736.362000</ele>
        <time>2019-05-02T09:52:49.000Z</time>
      </trkpt>
      <trkpt lat="42.9764200" lon="-1.6624020">
        <ele>734.759033</ele>
        <time>2019-05-02T09:52:52.000Z</time>
      </trkpt>
      <trkpt lat="42.9763760" lon="-1.6624310">
        <ele>733.846985</ele>
        <time>2019-05-02T09:52:54.000Z</time>
      </trkpt>
      <trkpt lat="42.9763220" lon="-1.6624500">
        <ele>732.346008</ele>
        <time>2019-05-02T09:52:57.000Z</time>
      </trkpt>
      <trkpt lat="42.9762670" lon="-1.6624760">
        <ele>730.787964</ele>
        <time>2019-05-02T09:53:00.000Z</time>
      </trkpt>
      <trkpt lat="42.9762220" lon="-1.6625070">
        <ele>728.515991</ele>
        <time>2019-05-02T09:53:03.000Z</time>
      </trkpt>
      <trkpt lat="42.9761540" lon="-1.6625310">
        <ele>726.907959</ele>
        <time>2019-05-02T09:53:06.000Z</time>
      </trkpt>
      <trkpt lat="42.9760850" lon="-1.6625380">
        <ele>725.887024</ele>
        <time>2019-05-02T09:53:08.000Z</time>
      </trkpt>
      <trkpt lat="42.9760180" lon="-1.6625570">
        <ele>724.728943</ele>
        <time>2019-05-02T09:53:10.000Z</time>
      </trkpt>
      <trkpt lat="42.9759490" lon="-1.6625910">
        <ele>723.623047</ele>
        <time>2019-05-02T09:53:12.000Z</time>
      </trkpt>
      <trkpt lat="42.9758960" lon="-1.6626220">
        <ele>722.359985</ele>
        <time>2019-05-02T09:53:14.000Z</time>
      </trkpt>
      <trkpt lat="42.9758340" lon="-1.6626550">
        <ele>720.096985</ele>
        <time>2019-05-02T09:53:17.000Z</time>
      </trkpt>
      <trkpt lat="42.9757700" lon="-1.6627060">
        <ele>719.143982</ele>
        <time>2019-05-02T09:53:19.000Z</time>
      </trkpt>
      <trkpt lat="42.9757120" lon="-1.6627430">
        <ele>718.140991</ele>
        <time>2019-05-02T09:53:21.000Z</time>
      </trkpt>
      <trkpt lat="42.9756520" lon="-1.6628030">
        <ele>717.058960</ele>
        <time>2019-05-02T09:53:23.000Z</time>
      </trkpt>
      <trkpt lat="42.9755780" lon="-1.6628450">
        <ele>715.834045</ele>
        <time>2019-05-02T09:53:25.000Z</time>
      </trkpt>
      <trkpt lat="42.9755120" lon="-1.6628690">
        <ele>714.655029</ele>
        <time>2019-05-02T09:53:27.000Z</time>
      </trkpt>
      <trkpt lat="42.9754590" lon="-1.6629070">
        <ele>713.510010</ele>
        <time>2019-05-02T09:53:29.000Z</time>
      </trkpt>
      <trkpt lat="42.9753870" lon="-1.6629520">
        <ele>711.908020</ele>
        <time>2019-05-02T09:53:31.000Z</time>
      </trkpt>
      <trkpt lat="42.9753170" lon="-1.6630150">
        <ele>710.815979</ele>
        <time>2019-05-02T09:53:33.000Z</time>
      </trkpt>
      <trkpt lat="42.9752540" lon="-1.6630640">
        <ele>709.727966</ele>
        <time>2019-05-02T09:53:35.000Z</time>
      </trkpt>
      <trkpt lat="42.9752050" lon="-1.6631040">
        <ele>708.671997</ele>
        <time>2019-05-02T09:53:37.000Z</time>
      </trkpt>
      <trkpt lat="42.9751500" lon="-1.6631610">
        <ele>707.638977</ele>
        <time>2019-05-02T09:53:39.000Z</time>
      </trkpt>
      <trkpt lat="42.9751010" lon="-1.6631810">
        <ele>706.435974</ele>
        <time>2019-05-02T09:54:19.000Z</time>
      </trkpt>
      <trkpt lat="42.9751010" lon="-1.6631140">
        <ele>706.322998</ele>
        <time>2019-05-02T09:54:29.000Z</time>
      </trkpt>
      <trkpt lat="42.9750990" lon="-1.6630500">
        <ele>706.229980</ele>
        <time>2019-05-02T09:55:04.000Z</time>
      </trkpt>
      <trkpt lat="42.9750510" lon="-1.6630460">
        <ele>705.538025</ele>
        <time>2019-05-02T09:55:08.000Z</time>
      </trkpt>
      <trkpt lat="42.9749920" lon="-1.6630840">
        <ele>704.818970</ele>
        <time>2019-05-02T09:55:10.000Z</time>
      </trkpt>
      <trkpt lat="42.9749540" lon="-1.6631370">
        <ele>704.109009</ele>
        <time>2019-05-02T09:55:12.000Z</time>
      </trkpt>
      <trkpt lat="42.9749130" lon="-1.6631650">
        <ele>703.718994</ele>
        <time>2019-05-02T09:55:13.000Z</time>
      </trkpt>
      <trkpt lat="42.9748720" lon="-1.6631910">
        <ele>703.307983</ele>
        <time>2019-05-02T09:55:14.000Z</time>
      </trkpt>
      <trkpt lat="42.9747950" lon="-1.6632530">
        <ele>702.183960</ele>
        <time>2019-05-02T09:55:16.000Z</time>
      </trkpt>
      <trkpt lat="42.9747530" lon="-1.6632930">
        <ele>700.926025</ele>
        <time>2019-05-02T09:55:17.000Z</time>
      </trkpt>
      <trkpt lat="42.9746890" lon="-1.6633500">
        <ele>699.609985</ele>
        <time>2019-05-02T09:55:19.000Z</time>
      </trkpt>
      <trkpt lat="42.9746350" lon="-1.6634370">
        <ele>698.366943</ele>
        <time>2019-05-02T09:55:21.000Z</time>
      </trkpt>
      <trkpt lat="42.9745750" lon="-1.6635040">
        <ele>696.924011</ele>
        <time>2019-05-02T09:55:23.000Z</time>
      </trkpt>
      <trkpt lat="42.9745160" lon="-1.6635590">
        <ele>695.660950</ele>
        <time>2019-05-02T09:55:25.000Z</time>
      </trkpt>
      <trkpt lat="42.9744550" lon="-1.6636090">
        <ele>694.117981</ele>
        <time>2019-05-02T09:55:27.000Z</time>
      </trkpt>
      <trkpt lat="42.9744050" lon="-1.6636850">
        <ele>692.696045</ele>
        <time>2019-05-02T09:55:29.000Z</time>
      </trkpt>
      <trkpt lat="42.9743740" lon="-1.6637920">
        <ele>690.421997</ele>
        <time>2019-05-02T09:55:31.000Z</time>
      </trkpt>
      <trkpt lat="42.9743370" lon="-1.6638910">
        <ele>688.961975</ele>
        <time>2019-05-02T09:55:33.000Z</time>
      </trkpt>
      <trkpt lat="42.9743130" lon="-1.6639530">
        <ele>687.507996</ele>
        <time>2019-05-02T09:55:35.000Z</time>
      </trkpt>
      <trkpt lat="42.9742710" lon="-1.6639950">
        <ele>686.208008</ele>
        <time>2019-05-02T09:55:37.000Z</time>
      </trkpt>
      <trkpt lat="42.9742300" lon="-1.6640390">
        <ele>684.445007</ele>
        <time>2019-05-02T09:55:40.000Z</time>
      </trkpt>
      <trkpt lat="42.9742000" lon="-1.6640990">
        <ele>683.386963</ele>
        <time>2019-05-02T09:55:42.000Z</time>
      </trkpt>
      <trkpt lat="42.9741740" lon="-1.6641550">
        <ele>681.450989</ele>
        <time>2019-05-02T09:55:44.000Z</time>
      </trkpt>
      <trkpt lat="42.9741440" lon="-1.6642050">
        <ele>680.127991</ele>
        <time>2019-05-02T09:55:46.000Z</time>
      </trkpt>
      <trkpt lat="42.9741080" lon="-1.6642560">
        <ele>678.875000</ele>
        <time>2019-05-02T09:55:48.000Z</time>
      </trkpt>
      <trkpt lat="42.9740590" lon="-1.6642960">
        <ele>677.421997</ele>
        <time>2019-05-02T09:55:50.000Z</time>
      </trkpt>
      <trkpt lat="42.9739890" lon="-1.6643360">
        <ele>676.158997</ele>
        <time>2019-05-02T09:55:52.000Z</time>
      </trkpt>
      <trkpt lat="42.9739220" lon="-1.6643970">
        <ele>674.887024</ele>
        <time>2019-05-02T09:55:54.000Z</time>
      </trkpt>
      <trkpt lat="42.9738730" lon="-1.6644810">
        <ele>672.479004</ele>
        <time>2019-05-02T09:55:56.000Z</time>
      </trkpt>
      <trkpt lat="42.9738440" lon="-1.6645480">
        <ele>671.705017</ele>
        <time>2019-05-02T09:55:57.000Z</time>
      </trkpt>
      <trkpt lat="42.9737970" lon="-1.6646210">
        <ele>670.325012</ele>
        <time>2019-05-02T09:55:59.000Z</time>
      </trkpt>
      <trkpt lat="42.9737620" lon="-1.6646720">
        <ele>669.307983</ele>
        <time>2019-05-02T09:56:01.000Z</time>
      </trkpt>
      <trkpt lat="42.9737230" lon="-1.6647210">
        <ele>668.349976</ele>
        <time>2019-05-02T09:56:03.000Z</time>
      </trkpt>
      <trkpt lat="42.9736810" lon="-1.6647910">
        <ele>667.261963</ele>
        <time>2019-05-02T09:56:05.000Z</time>
      </trkpt>
      <trkpt lat="42.9736560" lon="-1.6648540">
        <ele>665.935974</ele>
        <time>2019-05-02T09:56:07.000Z</time>
      </trkpt>
      <trkpt lat="42.9736180" lon="-1.6649430">
        <ele>664.112976</ele>
        <time>2019-05-02T09:56:10.000Z</time>
      </trkpt>
      <trkpt lat="42.9735900" lon="-1.6650240">
        <ele>663.140015</ele>
        <time>2019-05-02T09:56:12.000Z</time>
      </trkpt>
      <trkpt lat="42.9735560" lon="-1.6651050">
        <ele>661.787048</ele>
        <time>2019-05-02T09:56:14.000Z</time>
      </trkpt>
      <trkpt lat="42.9735280" lon="-1.6651740">
        <ele>660.294006</ele>
        <time>2019-05-02T09:56:16.000Z</time>
      </trkpt>
      <trkpt lat="42.9735230" lon="-1.6652430">
        <ele>659.052002</ele>
        <time>2019-05-02T09:56:18.000Z</time>
      </trkpt>
      <trkpt lat="42.9734870" lon="-1.6653050">
        <ele>657.863037</ele>
        <time>2019-05-02T09:56:20.000Z</time>
      </trkpt>
      <trkpt lat="42.9734510" lon="-1.6653610">
        <ele>656.643982</ele>
        <time>2019-05-02T09:56:22.000Z</time>
      </trkpt>
      <trkpt lat="42.9734120" lon="-1.6654350">
        <ele>655.018005</ele>
        <time>2019-05-02T09:56:24.000Z</time>
      </trkpt>
      <trkpt lat="42.9733870" lon="-1.6655130">
        <ele>653.807983</ele>
        <time>2019-05-02T09:56:26.000Z</time>
      </trkpt>
      <trkpt lat="42.9733440" lon="-1.6655900">
        <ele>652.498962</ele>
        <time>2019-05-02T09:56:28.000Z</time>
      </trkpt>
      <trkpt lat="42.9733190" lon="-1.6656750">
        <ele>650.761047</ele>
        <time>2019-05-02T09:56:30.000Z</time>
      </trkpt>
      <trkpt lat="42.9732700" lon="-1.6657200">
        <ele>649.114990</ele>
        <time>2019-05-02T09:56:32.000Z</time>
      </trkpt>
      <trkpt lat="42.9732110" lon="-1.6657420">
        <ele>646.452026</ele>
        <time>2019-05-02T09:56:36.000Z</time>
      </trkpt>
      <trkpt lat="42.9731650" lon="-1.6657510">
        <ele>644.869019</ele>
        <time>2019-05-02T09:56:38.000Z</time>
      </trkpt>
      <trkpt lat="42.9731060" lon="-1.6657630">
        <ele>643.255981</ele>
        <time>2019-05-02T09:56:41.000Z</time>
      </trkpt>
      <trkpt lat="42.9730920" lon="-1.6658240">
        <ele>641.293030</ele>
        <time>2019-05-02T09:56:45.000Z</time>
      </trkpt>
      <trkpt lat="42.9731280" lon="-1.6658880">
        <ele>640.151001</ele>
        <time>2019-05-02T09:56:48.000Z</time>
      </trkpt>
      <trkpt lat="42.9731550" lon="-1.6659410">
        <ele>639.749023</ele>
        <time>2019-05-02T09:56:49.000Z</time>
      </trkpt>
      <trkpt lat="42.9731690" lon="-1.6660110">
        <ele>638.501953</ele>
        <time>2019-05-02T09:56:50.000Z</time>
      </trkpt>
      <trkpt lat="42.9731780" lon="-1.6661110">
        <ele>637.121948</ele>
        <time>2019-05-02T09:56:52.000Z</time>
      </trkpt>
      <trkpt lat="42.9731870" lon="-1.6661720">
        <ele>636.208008</ele>
        <time>2019-05-02T09:56:53.000Z</time>
      </trkpt>
      <trkpt lat="42.9731870" lon="-1.6662640">
        <ele>634.666992</ele>
        <time>2019-05-02T09:56:55.000Z</time>
      </trkpt>
      <trkpt lat="42.9732140" lon="-1.6663160">
        <ele>632.218994</ele>
        <time>2019-05-02T09:57:00.000Z</time>
      </trkpt>
      <trkpt lat="42.9732260" lon="-1.6663940">
        <ele>631.283020</ele>
        <time>2019-05-02T09:57:03.000Z</time>
      </trkpt>
      <trkpt lat="42.9732190" lon="-1.6664760">
        <ele>629.649963</ele>
        <time>2019-05-02T09:57:06.000Z</time>
      </trkpt>
      <trkpt lat="42.9732040" lon="-1.6665580">
        <ele>627.787048</ele>
        <time>2019-05-02T09:57:09.000Z</time>
      </trkpt>
      <trkpt lat="42.9731310" lon="-1.6666580">
        <ele>626.384033</ele>
        <time>2019-05-02T09:57:11.000Z</time>
      </trkpt>
      <trkpt lat="42.9730800" lon="-1.6667650">
        <ele>625.031006</ele>
        <time>2019-05-02T09:57:13.000Z</time>
      </trkpt>
      <trkpt lat="42.9730560" lon="-1.6668220">
        <ele>624.399048</ele>
        <time>2019-05-02T09:57:14.000Z</time>
      </trkpt>
      <trkpt lat="42.9730380" lon="-1.6669220">
        <ele>622.971985</ele>
        <time>2019-05-02T09:57:16.000Z</time>
      </trkpt>
      <trkpt lat="42.9730300" lon="-1.6670330">
        <ele>620.413025</ele>
        <time>2019-05-02T09:57:18.000Z</time>
      </trkpt>
      <trkpt lat="42.9730250" lon="-1.6671100">
        <ele>619.513977</ele>
        <time>2019-05-02T09:57:19.000Z</time>
      </trkpt>
      <trkpt lat="42.9730080" lon="-1.6671880">
        <ele>618.608032</ele>
        <time>2019-05-02T09:57:20.000Z</time>
      </trkpt>
      <trkpt lat="42.9729890" lon="-1.6672510">
        <ele>617.719971</ele>
        <time>2019-05-02T09:57:21.000Z</time>
      </trkpt>
      <trkpt lat="42.9729730" lon="-1.6673270">
        <ele>616.872009</ele>
        <time>2019-05-02T09:57:22.000Z</time>
      </trkpt>
      <trkpt lat="42.9729630" lon="-1.6673990">
        <ele>615.656006</ele>
        <time>2019-05-02T09:57:23.000Z</time>
      </trkpt>
      <trkpt lat="42.9729560" lon="-1.6674810">
        <ele>614.552979</ele>
        <time>2019-05-02T09:57:24.000Z</time>
      </trkpt>
      <trkpt lat="42.9729560" lon="-1.6675560">
        <ele>613.380005</ele>
        <time>2019-05-02T09:57:25.000Z</time>
      </trkpt>
      <trkpt lat="42.9729490" lon="-1.6676170">
        <ele>612.166992</ele>
        <time>2019-05-02T09:57:26.000Z</time>
      </trkpt>
      <trkpt lat="42.9729380" lon="-1.6676910">
        <ele>610.874023</ele>
        <time>2019-05-02T09:57:27.000Z</time>
      </trkpt>
      <trkpt lat="42.9729250" lon="-1.6677640">
        <ele>609.661987</ele>
        <time>2019-05-02T09:57:28.000Z</time>
      </trkpt>
      <trkpt lat="42.9729050" lon="-1.6678190">
        <ele>608.684021</ele>
        <time>2019-05-02T09:57:29.000Z</time>
      </trkpt>
      <trkpt lat="42.9728790" lon="-1.6678880">
        <ele>606.807007</ele>
        <time>2019-05-02T09:57:30.000Z</time>
      </trkpt>
      <trkpt lat="42.9728620" lon="-1.6679540">
        <ele>606.017029</ele>
        <time>2019-05-02T09:57:31.000Z</time>
      </trkpt>
      <trkpt lat="42.9728260" lon="-1.6680650">
        <ele>604.307983</ele>
        <time>2019-05-02T09:57:33.000Z</time>
      </trkpt>
      <trkpt lat="42.9728080" lon="-1.6681270">
        <ele>603.721008</ele>
        <time>2019-05-02T09:57:34.000Z</time>
      </trkpt>
      <trkpt lat="42.9727740" lon="-1.6681760">
        <ele>603.292969</ele>
        <time>2019-05-02T09:57:35.000Z</time>
      </trkpt>
      <trkpt lat="42.9727390" lon="-1.6682380">
        <ele>602.747009</ele>
        <time>2019-05-02T09:57:36.000Z</time>
      </trkpt>
      <trkpt lat="42.9727130" lon="-1.6682900">
        <ele>602.283997</ele>
        <time>2019-05-02T09:57:37.000Z</time>
      </trkpt>
      <trkpt lat="42.9726790" lon="-1.6683990">
        <ele>601.370972</ele>
        <time>2019-05-02T09:57:39.000Z</time>
      </trkpt>
      <trkpt lat="42.9726530" lon="-1.6684630">
        <ele>600.838013</ele>
        <time>2019-05-02T09:57:40.000Z</time>
      </trkpt>
      <trkpt lat="42.9726230" lon="-1.6685260">
        <ele>600.164978</ele>
        <time>2019-05-02T09:57:41.000Z</time>
      </trkpt>
      <trkpt lat="42.9725720" lon="-1.6685800">
        <ele>599.552979</ele>
        <time>2019-05-02T09:57:42.000Z</time>
      </trkpt>
      <trkpt lat="42.9725190" lon="-1.6686370">
        <ele>598.286011</ele>
        <time>2019-05-02T09:57:43.000Z</time>
      </trkpt>
      <trkpt lat="42.9724710" lon="-1.6686860">
        <ele>597.559998</ele>
        <time>2019-05-02T09:57:44.000Z</time>
      </trkpt>
      <trkpt lat="42.9724230" lon="-1.6687370">
        <ele>596.925964</ele>
        <time>2019-05-02T09:57:45.000Z</time>
      </trkpt>
      <trkpt lat="42.9723670" lon="-1.6688050">
        <ele>595.708008</ele>
        <time>2019-05-02T09:57:47.000Z</time>
      </trkpt>
      <trkpt lat="42.9722940" lon="-1.6688130">
        <ele>594.591003</ele>
        <time>2019-05-02T09:57:49.000Z</time>
      </trkpt>
      <trkpt lat="42.9722210" lon="-1.6688410">
        <ele>593.593018</ele>
        <time>2019-05-02T09:57:51.000Z</time>
      </trkpt>
      <trkpt lat="42.9721490" lon="-1.6688550">
        <ele>592.377014</ele>
        <time>2019-05-02T09:57:53.000Z</time>
      </trkpt>
      <trkpt lat="42.9720990" lon="-1.6689170">
        <ele>591.123962</ele>
        <time>2019-05-02T09:57:55.000Z</time>
      </trkpt>
      <trkpt lat="42.9720590" lon="-1.6689500">
        <ele>589.651001</ele>
        <time>2019-05-02T09:57:57.000Z</time>
      </trkpt>
      <trkpt lat="42.9719920" lon="-1.6689420">
        <ele>587.648010</ele>
        <time>2019-05-02T09:58:01.000Z</time>
      </trkpt>
      <trkpt lat="42.9719410" lon="-1.6689370">
        <ele>586.635010</ele>
        <time>2019-05-02T09:58:03.000Z</time>
      </trkpt>
      <trkpt lat="42.9719280" lon="-1.6690080">
        <ele>585.463013</ele>
        <time>2019-05-02T09:58:06.000Z</time>
      </trkpt>
      <trkpt lat="42.9719880" lon="-1.6690680">
        <ele>585.194031</ele>
        <time>2019-05-02T09:58:08.000Z</time>
      </trkpt>
      <trkpt lat="42.9720240" lon="-1.6691160">
        <ele>585.156982</ele>
        <time>2019-05-02T09:58:09.000Z</time>
      </trkpt>
      <trkpt lat="42.9720980" lon="-1.6691920">
        <ele>584.921997</ele>
        <time>2019-05-02T09:58:11.000Z</time>
      </trkpt>
      <trkpt lat="42.9721830" lon="-1.6692210">
        <ele>584.607971</ele>
        <time>2019-05-02T09:58:13.000Z</time>
      </trkpt>
      <trkpt lat="42.9722460" lon="-1.6692390">
        <ele>584.362000</ele>
        <time>2019-05-02T09:58:14.000Z</time>
      </trkpt>
      <trkpt lat="42.9723080" lon="-1.6692670">
        <ele>583.973999</ele>
        <time>2019-05-02T09:58:15.000Z</time>
      </trkpt>
      <trkpt lat="42.9723690" lon="-1.6692890">
        <ele>583.558044</ele>
        <time>2019-05-02T09:58:16.000Z</time>
      </trkpt>
      <trkpt lat="42.9724330" lon="-1.6693140">
        <ele>583.234985</ele>
        <time>2019-05-02T09:58:17.000Z</time>
      </trkpt>
      <trkpt lat="42.9725010" lon="-1.6693300">
        <ele>582.731995</ele>
        <time>2019-05-02T09:58:18.000Z</time>
      </trkpt>
      <trkpt lat="42.9725620" lon="-1.6693530">
        <ele>582.218994</ele>
        <time>2019-05-02T09:58:19.000Z</time>
      </trkpt>
      <trkpt lat="42.9726320" lon="-1.6693780">
        <ele>581.846008</ele>
        <time>2019-05-02T09:58:20.000Z</time>
      </trkpt>
      <trkpt lat="42.9727030" lon="-1.6694000">
        <ele>581.333984</ele>
        <time>2019-05-02T09:58:21.000Z</time>
      </trkpt>
      <trkpt lat="42.9727610" lon="-1.6694410">
        <ele>580.852966</ele>
        <time>2019-05-02T09:58:22.000Z</time>
      </trkpt>
      <trkpt lat="42.9728110" lon="-1.6694570">
        <ele>580.203979</ele>
        <time>2019-05-02T09:58:23.000Z</time>
      </trkpt>
      <trkpt lat="42.9728890" lon="-1.6695080">
        <ele>578.914001</ele>
        <time>2019-05-02T09:58:25.000Z</time>
      </trkpt>
      <trkpt lat="42.9729410" lon="-1.6695280">
        <ele>578.507996</ele>
        <time>2019-05-02T09:58:26.000Z</time>
      </trkpt>
      <trkpt lat="42.9730060" lon="-1.6695490">
        <ele>577.947998</ele>
        <time>2019-05-02T09:58:28.000Z</time>
      </trkpt>
      <trkpt lat="42.9730890" lon="-1.6695810">
        <ele>577.380005</ele>
        <time>2019-05-02T09:58:30.000Z</time>
      </trkpt>
      <trkpt lat="42.9731390" lon="-1.6696080">
        <ele>576.864014</ele>
        <time>2019-05-02T09:58:31.000Z</time>
      </trkpt>
      <trkpt lat="42.9732170" lon="-1.6696540">
        <ele>576.270996</ele>
        <time>2019-05-02T09:58:32.000Z</time>
      </trkpt>
      <trkpt lat="42.9732840" lon="-1.6697070">
        <ele>575.588013</ele>
        <time>2019-05-02T09:58:33.000Z</time>
      </trkpt>
      <trkpt lat="42.9733380" lon="-1.6697720">
        <ele>574.785034</ele>
        <time>2019-05-02T09:58:34.000Z</time>
      </trkpt>
      <trkpt lat="42.9733630" lon="-1.6698380">
        <ele>574.072021</ele>
        <time>2019-05-02T09:58:35.000Z</time>
      </trkpt>
      <trkpt lat="42.9733610" lon="-1.6699150">
        <ele>573.559998</ele>
        <time>2019-05-02T09:58:36.000Z</time>
      </trkpt>
      <trkpt lat="42.9733360" lon="-1.6700120">
        <ele>572.619019</ele>
        <time>2019-05-02T09:58:37.000Z</time>
      </trkpt>
      <trkpt lat="42.9733300" lon="-1.6701180">
        <ele>572.309021</ele>
        <time>2019-05-02T09:58:38.000Z</time>
      </trkpt>
      <trkpt lat="42.9733250" lon="-1.6702290">
        <ele>572.018982</ele>
        <time>2019-05-02T09:58:39.000Z</time>
      </trkpt>
      <trkpt lat="42.9733270" lon="-1.6703150">
        <ele>571.608032</ele>
        <time>2019-05-02T09:58:40.000Z</time>
      </trkpt>
      <trkpt lat="42.9733260" lon="-1.6703990">
        <ele>571.234009</ele>
        <time>2019-05-02T09:58:41.000Z</time>
      </trkpt>
      <trkpt lat="42.9733380" lon="-1.6704870">
        <ele>570.865967</ele>
        <time>2019-05-02T09:58:42.000Z</time>
      </trkpt>
      <trkpt lat="42.9733490" lon="-1.6705740">
        <ele>570.479980</ele>
        <time>2019-05-02T09:58:43.000Z</time>
      </trkpt>
      <trkpt lat="42.9733630" lon="-1.6706650">
        <ele>569.976990</ele>
        <time>2019-05-02T09:58:44.000Z</time>
      </trkpt>
      <trkpt lat="42.9734050" lon="-1.6707710">
        <ele>569.424011</ele>
        <time>2019-05-02T09:58:45.000Z</time>
      </trkpt>
      <trkpt lat="42.9734410" lon="-1.6708490">
        <ele>568.851013</ele>
        <time>2019-05-02T09:58:46.000Z</time>
      </trkpt>
      <trkpt lat="42.9734740" lon="-1.6709410">
        <ele>568.297974</ele>
        <time>2019-05-02T09:58:47.000Z</time>
      </trkpt>
      <trkpt lat="42.9735190" lon="-1.6710260">
        <ele>567.685974</ele>
        <time>2019-05-02T09:58:48.000Z</time>
      </trkpt>
      <trkpt lat="42.9735620" lon="-1.6711150">
        <ele>567.135986</ele>
        <time>2019-05-02T09:58:49.000Z</time>
      </trkpt>
      <trkpt lat="42.9736030" lon="-1.6712090">
        <ele>566.117004</ele>
        <time>2019-05-02T09:58:50.000Z</time>
      </trkpt>
      <trkpt lat="42.9736470" lon="-1.6713010">
        <ele>565.718018</ele>
        <time>2019-05-02T09:58:51.000Z</time>
      </trkpt>
      <trkpt lat="42.9736940" lon="-1.6713950">
        <ele>565.307983</ele>
        <time>2019-05-02T09:58:52.000Z</time>
      </trkpt>
      <trkpt lat="42.9737400" lon="-1.6714880">
        <ele>564.916016</ele>
        <time>2019-05-02T09:58:53.000Z</time>
      </trkpt>
      <trkpt lat="42.9737880" lon="-1.6715840">
        <ele>564.678040</ele>
        <time>2019-05-02T09:58:54.000Z</time>
      </trkpt>
      <trkpt lat="42.9738370" lon="-1.6716780">
        <ele>564.221985</ele>
        <time>2019-05-02T09:58:55.000Z</time>
      </trkpt>
      <trkpt lat="42.9738750" lon="-1.6717730">
        <ele>563.778992</ele>
        <time>2019-05-02T09:58:56.000Z</time>
      </trkpt>
      <trkpt lat="42.9739230" lon="-1.6718680">
        <ele>563.235962</ele>
        <time>2019-05-02T09:58:57.000Z</time>
      </trkpt>
      <trkpt lat="42.9739710" lon="-1.6719640">
        <ele>562.782959</ele>
        <time>2019-05-02T09:58:58.000Z</time>
      </trkpt>
      <trkpt lat="42.9740200" lon="-1.6720620">
        <ele>562.270020</ele>
        <time>2019-05-02T09:58:59.000Z</time>
      </trkpt>
      <trkpt lat="42.9740690" lon="-1.6721610">
        <ele>561.768005</ele>
        <time>2019-05-02T09:59:00.000Z</time>
      </trkpt>
      <trkpt lat="42.9741210" lon="-1.6722590">
        <ele>561.288025</ele>
        <time>2019-05-02T09:59:01.000Z</time>
      </trkpt>
      <trkpt lat="42.9741660" lon="-1.6723610">
        <ele>560.723999</ele>
        <time>2019-05-02T09:59:02.000Z</time>
      </trkpt>
      <trkpt lat="42.9742150" lon="-1.6724600">
        <ele>559.825989</ele>
        <time>2019-05-02T09:59:03.000Z</time>
      </trkpt>
      <trkpt lat="42.9742620" lon="-1.6725590">
        <ele>559.307983</ele>
        <time>2019-05-02T09:59:04.000Z</time>
      </trkpt>
      <trkpt lat="42.9743110" lon="-1.6726550">
        <ele>558.841003</ele>
        <time>2019-05-02T09:59:05.000Z</time>
      </trkpt>
      <trkpt lat="42.9743560" lon="-1.6727540">
        <ele>558.213013</ele>
        <time>2019-05-02T09:59:06.000Z</time>
      </trkpt>
      <trkpt lat="42.9744010" lon="-1.6728500">
        <ele>557.687012</ele>
        <time>2019-05-02T09:59:07.000Z</time>
      </trkpt>
      <trkpt lat="42.9744470" lon="-1.6729430">
        <ele>557.013977</ele>
        <time>2019-05-02T09:59:08.000Z</time>
      </trkpt>
      <trkpt lat="42.9744900" lon="-1.6730350">
        <ele>556.731018</ele>
        <time>2019-05-02T09:59:09.000Z</time>
      </trkpt>
      <trkpt lat="42.9745280" lon="-1.6731280">
        <ele>556.497986</ele>
        <time>2019-05-02T09:59:10.000Z</time>
      </trkpt>
      <trkpt lat="42.9745650" lon="-1.6732190">
        <ele>556.265015</ele>
        <time>2019-05-02T09:59:11.000Z</time>
      </trkpt>
      <trkpt lat="42.9745970" lon="-1.6733090">
        <ele>556.062988</ele>
        <time>2019-05-02T09:59:12.000Z</time>
      </trkpt>
      <trkpt lat="42.9746400" lon="-1.6733840">
        <ele>555.990967</ele>
        <time>2019-05-02T09:59:13.000Z</time>
      </trkpt>
      <trkpt lat="42.9746810" lon="-1.6734550">
        <ele>555.880981</ele>
        <time>2019-05-02T09:59:14.000Z</time>
      </trkpt>
      <trkpt lat="42.9747210" lon="-1.6735220">
        <ele>555.619019</ele>
        <time>2019-05-02T09:59:15.000Z</time>
      </trkpt>
      <trkpt lat="42.9747590" lon="-1.6735900">
        <ele>555.507996</ele>
        <time>2019-05-02T09:59:16.000Z</time>
      </trkpt>
      <trkpt lat="42.9747950" lon="-1.6736580">
        <ele>555.351990</ele>
        <time>2019-05-02T09:59:17.000Z</time>
      </trkpt>
      <trkpt lat="42.9748280" lon="-1.6737290">
        <ele>555.273987</ele>
        <time>2019-05-02T09:59:18.000Z</time>
      </trkpt>
      <trkpt lat="42.9748660" lon="-1.6737940">
        <ele>555.227966</ele>
        <time>2019-05-02T09:59:19.000Z</time>
      </trkpt>
      <trkpt lat="42.9749090" lon="-1.6738520">
        <ele>555.195007</ele>
        <time>2019-05-02T09:59:20.000Z</time>
      </trkpt>
      <trkpt lat="42.9749480" lon="-1.6739170">
        <ele>555.152039</ele>
        <time>2019-05-02T09:59:21.000Z</time>
      </trkpt>
      <trkpt lat="42.9749990" lon="-1.6739610">
        <ele>555.158997</ele>
        <time>2019-05-02T09:59:22.000Z</time>
      </trkpt>
      <trkpt lat="42.9750460" lon="-1.6740140">
        <ele>555.056030</ele>
        <time>2019-05-02T09:59:23.000Z</time>
      </trkpt>
      <trkpt lat="42.9750900" lon="-1.6740710">
        <ele>554.963989</ele>
        <time>2019-05-02T09:59:24.000Z</time>
      </trkpt>
      <trkpt lat="42.9751330" lon="-1.6741310">
        <ele>554.830994</ele>
        <time>2019-05-02T09:59:25.000Z</time>
      </trkpt>
      <trkpt lat="42.9751790" lon="-1.6741860">
        <ele>554.760986</ele>
        <time>2019-05-02T09:59:26.000Z</time>
      </trkpt>
      <trkpt lat="42.9752230" lon="-1.6742410">
        <ele>554.606995</ele>
        <time>2019-05-02T09:59:27.000Z</time>
      </trkpt>
      <trkpt lat="42.9752670" lon="-1.6742940">
        <ele>554.507996</ele>
        <time>2019-05-02T09:59:28.000Z</time>
      </trkpt>
      <trkpt lat="42.9753050" lon="-1.6743560">
        <ele>554.575989</ele>
        <time>2019-05-02T09:59:29.000Z</time>
      </trkpt>
      <trkpt lat="42.9753440" lon="-1.6744190">
        <ele>554.567993</ele>
        <time>2019-05-02T09:59:30.000Z</time>
      </trkpt>
      <trkpt lat="42.9753870" lon="-1.6744760">
        <ele>554.531982</ele>
        <time>2019-05-02T09:59:31.000Z</time>
      </trkpt>
      <trkpt lat="42.9754260" lon="-1.6745370">
        <ele>554.559021</ele>
        <time>2019-05-02T09:59:32.000Z</time>
      </trkpt>
      <trkpt lat="42.9754710" lon="-1.6745900">
        <ele>554.596008</ele>
        <time>2019-05-02T09:59:33.000Z</time>
      </trkpt>
      <trkpt lat="42.9755150" lon="-1.6746420">
        <ele>554.543030</ele>
        <time>2019-05-02T09:59:34.000Z</time>
      </trkpt>
      <trkpt lat="42.9755570" lon="-1.6746940">
        <ele>554.539978</ele>
        <time>2019-05-02T09:59:35.000Z</time>
      </trkpt>
      <trkpt lat="42.9756010" lon="-1.6747460">
        <ele>554.488037</ele>
        <time>2019-05-02T09:59:36.000Z</time>
      </trkpt>
      <trkpt lat="42.9756540" lon="-1.6747830">
        <ele>554.473999</ele>
        <time>2019-05-02T09:59:37.000Z</time>
      </trkpt>
      <trkpt lat="42.9756950" lon="-1.6748380">
        <ele>554.555969</ele>
        <time>2019-05-02T09:59:38.000Z</time>
      </trkpt>
      <trkpt lat="42.9757320" lon="-1.6748940">
        <ele>554.520996</ele>
        <time>2019-05-02T09:59:39.000Z</time>
      </trkpt>
      <trkpt lat="42.9757710" lon="-1.6749430">
        <ele>554.608032</ele>
        <time>2019-05-02T09:59:40.000Z</time>
      </trkpt>
      <trkpt lat="42.9758060" lon="-1.6749930">
        <ele>554.739990</ele>
        <time>2019-05-02T09:59:41.000Z</time>
      </trkpt>
      <trkpt lat="42.9758400" lon="-1.6750410">
        <ele>554.872009</ele>
        <time>2019-05-02T09:59:42.000Z</time>
      </trkpt>
      <trkpt lat="42.9758750" lon="-1.6750870">
        <ele>554.966003</ele>
        <time>2019-05-02T09:59:43.000Z</time>
      </trkpt>
      <trkpt lat="42.9759110" lon="-1.6751300">
        <ele>555.013000</ele>
        <time>2019-05-02T09:59:44.000Z</time>
      </trkpt>
      <trkpt lat="42.9759430" lon="-1.6751740">
        <ele>555.169983</ele>
        <time>2019-05-02T09:59:45.000Z</time>
      </trkpt>
      <trkpt lat="42.9760100" lon="-1.6752560">
        <ele>555.296997</ele>
        <time>2019-05-02T09:59:47.000Z</time>
      </trkpt>
      <trkpt lat="42.9760440" lon="-1.6753050">
        <ele>555.333984</ele>
        <time>2019-05-02T09:59:48.000Z</time>
      </trkpt>
      <trkpt lat="42.9760780" lon="-1.6753530">
        <ele>555.341980</ele>
        <time>2019-05-02T09:59:49.000Z</time>
      </trkpt>
      <trkpt lat="42.9761140" lon="-1.6753960">
        <ele>555.398010</ele>
        <time>2019-05-02T09:59:50.000Z</time>
      </trkpt>
      <trkpt lat="42.9761480" lon="-1.6754440">
        <ele>555.315002</ele>
        <time>2019-05-02T09:59:51.000Z</time>
      </trkpt>
      <trkpt lat="42.9761870" lon="-1.6754870">
        <ele>555.226013</ele>
        <time>2019-05-02T09:59:52.000Z</time>
      </trkpt>
      <trkpt lat="42.9762290" lon="-1.6755320">
        <ele>555.007996</ele>
        <time>2019-05-02T09:59:53.000Z</time>
      </trkpt>
      <trkpt lat="42.9762730" lon="-1.6755790">
        <ele>554.812012</ele>
        <time>2019-05-02T09:59:54.000Z</time>
      </trkpt>
      <trkpt lat="42.9763190" lon="-1.6756170">
        <ele>554.614014</ele>
        <time>2019-05-02T09:59:55.000Z</time>
      </trkpt>
      <trkpt lat="42.9763570" lon="-1.6756740">
        <ele>553.388000</ele>
        <time>2019-05-02T09:59:57.000Z</time>
      </trkpt>
      <trkpt lat="42.9763090" lon="-1.6756610">
        <ele>552.535034</ele>
        <time>2019-05-02T09:59:59.000Z</time>
      </trkpt>
      <trkpt lat="42.9762460" lon="-1.6757570">
        <ele>552.142029</ele>
        <time>2019-05-02T10:00:01.000Z</time>
      </trkpt>
      <trkpt lat="42.9762080" lon="-1.6757960">
        <ele>552.188965</ele>
        <time>2019-05-02T10:00:02.000Z</time>
      </trkpt>
      <trkpt lat="42.9761650" lon="-1.6758280">
        <ele>552.166016</ele>
        <time>2019-05-02T10:00:03.000Z</time>
      </trkpt>
      <trkpt lat="42.9761180" lon="-1.6758570">
        <ele>552.044006</ele>
        <time>2019-05-02T10:00:04.000Z</time>
      </trkpt>
      <trkpt lat="42.9760690" lon="-1.6758760">
        <ele>551.995972</ele>
        <time>2019-05-02T10:00:05.000Z</time>
      </trkpt>
      <trkpt lat="42.9760200" lon="-1.6759010">
        <ele>551.930969</ele>
        <time>2019-05-02T10:00:06.000Z</time>
      </trkpt>
      <trkpt lat="42.9759710" lon="-1.6759330">
        <ele>551.723999</ele>
        <time>2019-05-02T10:00:07.000Z</time>
      </trkpt>
      <trkpt lat="42.9759320" lon="-1.6759840">
        <ele>551.408020</ele>
        <time>2019-05-02T10:00:08.000Z</time>
      </trkpt>
      <trkpt lat="42.9758870" lon="-1.6760270">
        <ele>551.291992</ele>
        <time>2019-05-02T10:00:09.000Z</time>
      </trkpt>
      <trkpt lat="42.9758490" lon="-1.6760800">
        <ele>550.753967</ele>
        <time>2019-05-02T10:00:10.000Z</time>
      </trkpt>
      <trkpt lat="42.9758010" lon="-1.6761270">
        <ele>550.528015</ele>
        <time>2019-05-02T10:00:11.000Z</time>
      </trkpt>
      <trkpt lat="42.9757530" lon="-1.6761790">
        <ele>550.445007</ele>
        <time>2019-05-02T10:00:12.000Z</time>
      </trkpt>
      <trkpt lat="42.9757100" lon="-1.6762370">
        <ele>550.211975</ele>
        <time>2019-05-02T10:00:13.000Z</time>
      </trkpt>
      <trkpt lat="42.9756550" lon="-1.6762780">
        <ele>550.059021</ele>
        <time>2019-05-02T10:00:14.000Z</time>
      </trkpt>
      <trkpt lat="42.9756090" lon="-1.6763180">
        <ele>549.835999</ele>
        <time>2019-05-02T10:00:15.000Z</time>
      </trkpt>
      <trkpt lat="42.9755730" lon="-1.6763550">
        <ele>549.564026</ele>
        <time>2019-05-02T10:00:16.000Z</time>
      </trkpt>
      <trkpt lat="42.9755110" lon="-1.6764140">
        <ele>549.075012</ele>
        <time>2019-05-02T10:00:18.000Z</time>
      </trkpt>
      <trkpt lat="42.9754780" lon="-1.6765030">
        <ele>548.528015</ele>
        <time>2019-05-02T10:00:20.000Z</time>
      </trkpt>
      <trkpt lat="42.9754430" lon="-1.6765800">
        <ele>547.919983</ele>
        <time>2019-05-02T10:00:22.000Z</time>
      </trkpt>
      <trkpt lat="42.9754140" lon="-1.6766400">
        <ele>547.208008</ele>
        <time>2019-05-02T10:00:24.000Z</time>
      </trkpt>
      <trkpt lat="42.9753720" lon="-1.6767160">
        <ele>547.020020</ele>
        <time>2019-05-02T10:00:26.000Z</time>
      </trkpt>
      <trkpt lat="42.9753480" lon="-1.6767780">
        <ele>546.882019</ele>
        <time>2019-05-02T10:00:27.000Z</time>
      </trkpt>
      <trkpt lat="42.9753340" lon="-1.6768600">
        <ele>546.526001</ele>
        <time>2019-05-02T10:00:28.000Z</time>
      </trkpt>
      <trkpt lat="42.9753180" lon="-1.6769440">
        <ele>546.263000</ele>
        <time>2019-05-02T10:00:29.000Z</time>
      </trkpt>
      <trkpt lat="42.9753080" lon="-1.6770270">
        <ele>545.809998</ele>
        <time>2019-05-02T10:00:30.000Z</time>
      </trkpt>
      <trkpt lat="42.9753070" lon="-1.6771060">
        <ele>545.427002</ele>
        <time>2019-05-02T10:00:31.000Z</time>
      </trkpt>
      <trkpt lat="42.9752960" lon="-1.6771840">
        <ele>545.193970</ele>
        <time>2019-05-02T10:00:32.000Z</time>
      </trkpt>
      <trkpt lat="42.9752990" lon="-1.6772750">
        <ele>544.812012</ele>
        <time>2019-05-02T10:00:33.000Z</time>
      </trkpt>
      <trkpt lat="42.9753280" lon="-1.6773590">
        <ele>544.531006</ele>
        <time>2019-05-02T10:00:34.000Z</time>
      </trkpt>
      <trkpt lat="42.9753630" lon="-1.6774420">
        <ele>544.260986</ele>
        <time>2019-05-02T10:00:35.000Z</time>
      </trkpt>
      <trkpt lat="42.9754160" lon="-1.6775150">
        <ele>543.906982</ele>
        <time>2019-05-02T10:00:36.000Z</time>
      </trkpt>
      <trkpt lat="42.9754640" lon="-1.6775910">
        <ele>543.407959</ele>
        <time>2019-05-02T10:00:37.000Z</time>
      </trkpt>
      <trkpt lat="42.9755110" lon="-1.6776680">
        <ele>543.186035</ele>
        <time>2019-05-02T10:00:38.000Z</time>
      </trkpt>
      <trkpt lat="42.9755460" lon="-1.6777550">
        <ele>542.977966</ele>
        <time>2019-05-02T10:00:39.000Z</time>
      </trkpt>
      <trkpt lat="42.9755810" lon="-1.6778390">
        <ele>542.791992</ele>
        <time>2019-05-02T10:00:40.000Z</time>
      </trkpt>
      <trkpt lat="42.9756170" lon="-1.6779210">
        <ele>542.559021</ele>
        <time>2019-05-02T10:00:41.000Z</time>
      </trkpt>
      <trkpt lat="42.9756510" lon="-1.6780050">
        <ele>542.315979</ele>
        <time>2019-05-02T10:00:42.000Z</time>
      </trkpt>
      <trkpt lat="42.9757000" lon="-1.6780780">
        <ele>542.192993</ele>
        <time>2019-05-02T10:00:43.000Z</time>
      </trkpt>
      <trkpt lat="42.9757450" lon="-1.6781530">
        <ele>542.029968</ele>
        <time>2019-05-02T10:00:44.000Z</time>
      </trkpt>
      <trkpt lat="42.9757840" lon="-1.6782320">
        <ele>541.898010</ele>
        <time>2019-05-02T10:00:45.000Z</time>
      </trkpt>
      <trkpt lat="42.9758170" lon="-1.6783130">
        <ele>541.682983</ele>
        <time>2019-05-02T10:00:46.000Z</time>
      </trkpt>
      <trkpt lat="42.9758550" lon="-1.6783900">
        <ele>541.424988</ele>
        <time>2019-05-02T10:00:47.000Z</time>
      </trkpt>
      <trkpt lat="42.9758940" lon="-1.6784670">
        <ele>541.217041</ele>
        <time>2019-05-02T10:00:48.000Z</time>
      </trkpt>
      <trkpt lat="42.9759360" lon="-1.6785430">
        <ele>541.007996</ele>
        <time>2019-05-02T10:00:49.000Z</time>
      </trkpt>
      <trkpt lat="42.9759780" lon="-1.6786170">
        <ele>540.821045</ele>
        <time>2019-05-02T10:00:50.000Z</time>
      </trkpt>
      <trkpt lat="42.9760230" lon="-1.6786880">
        <ele>540.523010</ele>
        <time>2019-05-02T10:00:51.000Z</time>
      </trkpt>
      <trkpt lat="42.9760690" lon="-1.6787570">
        <ele>540.466980</ele>
        <time>2019-05-02T10:00:52.000Z</time>
      </trkpt>
      <trkpt lat="42.9761220" lon="-1.6788200">
        <ele>540.234009</ele>
        <time>2019-05-02T10:00:53.000Z</time>
      </trkpt>
      <trkpt lat="42.9761660" lon="-1.6788940">
        <ele>540.111023</ele>
        <time>2019-05-02T10:00:54.000Z</time>
      </trkpt>
      <trkpt lat="42.9762060" lon="-1.6789720">
        <ele>539.947998</ele>
        <time>2019-05-02T10:00:55.000Z</time>
      </trkpt>
      <trkpt lat="42.9762420" lon="-1.6790550">
        <ele>539.755005</ele>
        <time>2019-05-02T10:00:56.000Z</time>
      </trkpt>
      <trkpt lat="42.9762900" lon="-1.6791330">
        <ele>539.552979</ele>
        <time>2019-05-02T10:00:57.000Z</time>
      </trkpt>
      <trkpt lat="42.9763530" lon="-1.6792020">
        <ele>539.124023</ele>
        <time>2019-05-02T10:00:58.000Z</time>
      </trkpt>
      <trkpt lat="42.9764160" lon="-1.6792880">
        <ele>538.604004</ele>
        <time>2019-05-02T10:00:59.000Z</time>
      </trkpt>
      <trkpt lat="42.9764810" lon="-1.6793800">
        <ele>538.013977</ele>
        <time>2019-05-02T10:01:00.000Z</time>
      </trkpt>
      <trkpt lat="42.9765490" lon="-1.6794770">
        <ele>537.208008</ele>
        <time>2019-05-02T10:01:01.000Z</time>
      </trkpt>
      <trkpt lat="42.9766280" lon="-1.6795740">
        <ele>536.335022</ele>
        <time>2019-05-02T10:01:02.000Z</time>
      </trkpt>
      <trkpt lat="42.9767050" lon="-1.6796780">
        <ele>535.346985</ele>
        <time>2019-05-02T10:01:03.000Z</time>
      </trkpt>
      <trkpt lat="42.9767790" lon="-1.6797750">
        <ele>533.221008</ele>
        <time>2019-05-02T10:01:04.000Z</time>
      </trkpt>
      <trkpt lat="42.9768470" lon="-1.6798640">
        <ele>532.627991</ele>
        <time>2019-05-02T10:01:05.000Z</time>
      </trkpt>
      <trkpt lat="42.9769070" lon="-1.6799490">
        <ele>532.265015</ele>
        <time>2019-05-02T10:01:06.000Z</time>
      </trkpt>
      <trkpt lat="42.9769520" lon="-1.6800340">
        <ele>532.291992</ele>
        <time>2019-05-02T10:01:07.000Z</time>
      </trkpt>
      <trkpt lat="42.9769860" lon="-1.6801210">
        <ele>532.389038</ele>
        <time>2019-05-02T10:01:08.000Z</time>
      </trkpt>
      <trkpt lat="42.9770160" lon="-1.6801940">
        <ele>532.527039</ele>
        <time>2019-05-02T10:01:09.000Z</time>
      </trkpt>
      <trkpt lat="42.9770430" lon="-1.6802530">
        <ele>532.695007</ele>
        <time>2019-05-02T10:01:10.000Z</time>
      </trkpt>
      <trkpt lat="42.9771020" lon="-1.6803190">
        <ele>532.848999</ele>
        <time>2019-05-02T10:01:12.000Z</time>
      </trkpt>
      <trkpt lat="42.9770540" lon="-1.6802880">
        <ele>532.822998</ele>
        <time>2019-05-02T10:01:20.000Z</time>
      </trkpt>
      <trkpt lat="42.9770050" lon="-1.6802310">
        <ele>532.708008</ele>
        <time>2019-05-02T10:01:22.000Z</time>
      </trkpt>
      <trkpt lat="42.9769460" lon="-1.6802500">
        <ele>532.421997</ele>
        <time>2019-05-02T10:01:24.000Z</time>
      </trkpt>
      <trkpt lat="42.9769470" lon="-1.6803330">
        <ele>531.823975</ele>
        <time>2019-05-02T10:01:27.000Z</time>
      </trkpt>
      <trkpt lat="42.9769730" lon="-1.6804240">
        <ele>531.538025</ele>
        <time>2019-05-02T10:01:29.000Z</time>
      </trkpt>
      <trkpt lat="42.9769710" lon="-1.6805200">
        <ele>531.184998</ele>
        <time>2019-05-02T10:01:31.000Z</time>
      </trkpt>
      <trkpt lat="42.9769150" lon="-1.6805980">
        <ele>530.721985</ele>
        <time>2019-05-02T10:01:33.000Z</time>
      </trkpt>
      <trkpt lat="42.9768670" lon="-1.6806290">
        <ele>530.578979</ele>
        <time>2019-05-02T10:01:34.000Z</time>
      </trkpt>
      <trkpt lat="42.9768300" lon="-1.6806700">
        <ele>530.335999</ele>
        <time>2019-05-02T10:01:35.000Z</time>
      </trkpt>
      <trkpt lat="42.9768060" lon="-1.6807290">
        <ele>530.033997</ele>
        <time>2019-05-02T10:01:36.000Z</time>
      </trkpt>
      <trkpt lat="42.9767730" lon="-1.6807910">
        <ele>529.825989</ele>
        <time>2019-05-02T10:01:37.000Z</time>
      </trkpt>
      <trkpt lat="42.9767460" lon="-1.6808580">
        <ele>529.546997</ele>
        <time>2019-05-02T10:01:38.000Z</time>
      </trkpt>
      <trkpt lat="42.9767110" lon="-1.6809230">
        <ele>529.310974</ele>
        <time>2019-05-02T10:01:39.000Z</time>
      </trkpt>
      <trkpt lat="42.9766920" lon="-1.6809950">
        <ele>528.908020</ele>
        <time>2019-05-02T10:01:40.000Z</time>
      </trkpt>
      <trkpt lat="42.9766740" lon="-1.6810760">
        <ele>528.684998</ele>
        <time>2019-05-02T10:01:41.000Z</time>
      </trkpt>
      <trkpt lat="42.9766560" lon="-1.6811610">
        <ele>528.187012</ele>
        <time>2019-05-02T10:01:42.000Z</time>
      </trkpt>
      <trkpt lat="42.9766310" lon="-1.6812550">
        <ele>527.721008</ele>
        <time>2019-05-02T10:01:43.000Z</time>
      </trkpt>
      <trkpt lat="42.9766030" lon="-1.6813430">
        <ele>527.348022</ele>
        <time>2019-05-02T10:01:44.000Z</time>
      </trkpt>
      <trkpt lat="42.9765790" lon="-1.6814320">
        <ele>526.455017</ele>
        <time>2019-05-02T10:01:45.000Z</time>
      </trkpt>
      <trkpt lat="42.9765170" lon="-1.6814970">
        <ele>526.011963</ele>
        <time>2019-05-02T10:01:46.000Z</time>
      </trkpt>
      <trkpt lat="42.9764700" lon="-1.6815680">
        <ele>525.729004</ele>
        <time>2019-05-02T10:01:47.000Z</time>
      </trkpt>
      <trkpt lat="42.9764400" lon="-1.6816450">
        <ele>525.416992</ele>
        <time>2019-05-02T10:01:48.000Z</time>
      </trkpt>
      <trkpt lat="42.9764060" lon="-1.6817140">
        <ele>525.216003</ele>
        <time>2019-05-02T10:01:49.000Z</time>
      </trkpt>
      <trkpt lat="42.9763810" lon="-1.6818320">
        <ele>525.176025</ele>
        <time>2019-05-02T10:01:50.000Z</time>
      </trkpt>
      <trkpt lat="42.9763590" lon="-1.6819270">
        <ele>525.013000</ele>
        <time>2019-05-02T10:01:51.000Z</time>
      </trkpt>
      <trkpt lat="42.9763360" lon="-1.6820150">
        <ele>524.908020</ele>
        <time>2019-05-02T10:01:52.000Z</time>
      </trkpt>
      <trkpt lat="42.9762980" lon="-1.6821010">
        <ele>524.893982</ele>
        <time>2019-05-02T10:01:53.000Z</time>
      </trkpt>
      <trkpt lat="42.9762820" lon="-1.6821770">
        <ele>524.765991</ele>
        <time>2019-05-02T10:01:54.000Z</time>
      </trkpt>
      <trkpt lat="42.9762500" lon="-1.6822590">
        <ele>524.690002</ele>
        <time>2019-05-02T10:01:55.000Z</time>
      </trkpt>
      <trkpt lat="42.9762060" lon="-1.6823560">
        <ele>524.517029</ele>
        <time>2019-05-02T10:01:56.000Z</time>
      </trkpt>
      <trkpt lat="42.9761610" lon="-1.6824490">
        <ele>524.364014</ele>
        <time>2019-05-02T10:01:57.000Z</time>
      </trkpt>
      <trkpt lat="42.9761260" lon="-1.6825430">
        <ele>524.060974</ele>
        <time>2019-05-02T10:01:58.000Z</time>
      </trkpt>
      <trkpt lat="42.9760830" lon="-1.6826710">
        <ele>523.968018</ele>
        <time>2019-05-02T10:01:59.000Z</time>
      </trkpt>
      <trkpt lat="42.9760430" lon="-1.6827460">
        <ele>523.926025</ele>
        <time>2019-05-02T10:02:00.000Z</time>
      </trkpt>
      <trkpt lat="42.9759970" lon="-1.6828150">
        <ele>523.971985</ele>
        <time>2019-05-02T10:02:01.000Z</time>
      </trkpt>
      <trkpt lat="42.9759330" lon="-1.6828880">
        <ele>523.812988</ele>
        <time>2019-05-02T10:02:02.000Z</time>
      </trkpt>
      <trkpt lat="42.9758770" lon="-1.6829550">
        <ele>523.713989</ele>
        <time>2019-05-02T10:02:03.000Z</time>
      </trkpt>
      <trkpt lat="42.9758240" lon="-1.6830290">
        <ele>523.608032</ele>
        <time>2019-05-02T10:02:04.000Z</time>
      </trkpt>
      <trkpt lat="42.9757550" lon="-1.6831220">
        <ele>523.589966</ele>
        <time>2019-05-02T10:02:05.000Z</time>
      </trkpt>
      <trkpt lat="42.9756890" lon="-1.6832130">
        <ele>523.461975</ele>
        <time>2019-05-02T10:02:06.000Z</time>
      </trkpt>
      <trkpt lat="42.9756230" lon="-1.6832830">
        <ele>523.356018</ele>
        <time>2019-05-02T10:02:07.000Z</time>
      </trkpt>
      <trkpt lat="42.9755680" lon="-1.6833350">
        <ele>523.293030</ele>
        <time>2019-05-02T10:02:08.000Z</time>
      </trkpt>
      <trkpt lat="42.9755190" lon="-1.6833870">
        <ele>523.140015</ele>
        <time>2019-05-02T10:02:09.000Z</time>
      </trkpt>
      <trkpt lat="42.9754810" lon="-1.6834350">
        <ele>523.067017</ele>
        <time>2019-05-02T10:02:10.000Z</time>
      </trkpt>
      <trkpt lat="42.9754330" lon="-1.6834800">
        <ele>522.833984</ele>
        <time>2019-05-02T10:02:11.000Z</time>
      </trkpt>
      <trkpt lat="42.9753800" lon="-1.6835410">
        <ele>522.761963</ele>
        <time>2019-05-02T10:02:12.000Z</time>
      </trkpt>
      <trkpt lat="42.9753190" lon="-1.6835990">
        <ele>522.635010</ele>
        <time>2019-05-02T10:02:13.000Z</time>
      </trkpt>
      <trkpt lat="42.9752830" lon="-1.6836890">
        <ele>522.585999</ele>
        <time>2019-05-02T10:02:14.000Z</time>
      </trkpt>
      <trkpt lat="42.9752520" lon="-1.6837930">
        <ele>522.513977</ele>
        <time>2019-05-02T10:02:15.000Z</time>
      </trkpt>
      <trkpt lat="42.9752200" lon="-1.6838910">
        <ele>522.408020</ele>
        <time>2019-05-02T10:02:16.000Z</time>
      </trkpt>
      <trkpt lat="42.9751850" lon="-1.6839750">
        <ele>522.385986</ele>
        <time>2019-05-02T10:02:17.000Z</time>
      </trkpt>
      <trkpt lat="42.9751580" lon="-1.6840550">
        <ele>522.367981</ele>
        <time>2019-05-02T10:02:18.000Z</time>
      </trkpt>
      <trkpt lat="42.9751240" lon="-1.6841610">
        <ele>522.242004</ele>
        <time>2019-05-02T10:02:19.000Z</time>
      </trkpt>
      <trkpt lat="42.9750940" lon="-1.6842530">
        <ele>522.169006</ele>
        <time>2019-05-02T10:02:20.000Z</time>
      </trkpt>
      <trkpt lat="42.9750700" lon="-1.6843300">
        <ele>522.085999</ele>
        <time>2019-05-02T10:02:21.000Z</time>
      </trkpt>
      <trkpt lat="42.9750550" lon="-1.6844230">
        <ele>522.093018</ele>
        <time>2019-05-02T10:02:22.000Z</time>
      </trkpt>
      <trkpt lat="42.9750390" lon="-1.6845190">
        <ele>522.039978</ele>
        <time>2019-05-02T10:02:23.000Z</time>
      </trkpt>
      <trkpt lat="42.9750180" lon="-1.6846090">
        <ele>522.067993</ele>
        <time>2019-05-02T10:02:24.000Z</time>
      </trkpt>
      <trkpt lat="42.9750010" lon="-1.6847270">
        <ele>521.911011</ele>
        <time>2019-05-02T10:02:25.000Z</time>
      </trkpt>
      <trkpt lat="42.9749780" lon="-1.6848130">
        <ele>521.820984</ele>
        <time>2019-05-02T10:02:26.000Z</time>
      </trkpt>
      <trkpt lat="42.9749700" lon="-1.6848870">
        <ele>521.703003</ele>
        <time>2019-05-02T10:02:27.000Z</time>
      </trkpt>
      <trkpt lat="42.9749930" lon="-1.6849720">
        <ele>521.608032</ele>
        <time>2019-05-02T10:02:28.000Z</time>
      </trkpt>
      <trkpt lat="42.9750410" lon="-1.6850860">
        <ele>521.564026</ele>
        <time>2019-05-02T10:02:30.000Z</time>
      </trkpt>
      <trkpt lat="42.9750730" lon="-1.6851440">
        <ele>521.585999</ele>
        <time>2019-05-02T10:02:31.000Z</time>
      </trkpt>
      <trkpt lat="42.9751020" lon="-1.6852060">
        <ele>521.559998</ele>
        <time>2019-05-02T10:02:32.000Z</time>
      </trkpt>
      <trkpt lat="42.9751430" lon="-1.6853060">
        <ele>521.596985</ele>
        <time>2019-05-02T10:02:34.000Z</time>
      </trkpt>
      <trkpt lat="42.9751810" lon="-1.6853830">
        <ele>521.533997</ele>
        <time>2019-05-02T10:02:35.000Z</time>
      </trkpt>
      <trkpt lat="42.9752080" lon="-1.6854500">
        <ele>521.671021</ele>
        <time>2019-05-02T10:02:36.000Z</time>
      </trkpt>
      <trkpt lat="42.9752370" lon="-1.6855200">
        <ele>521.718018</ele>
        <time>2019-05-02T10:02:37.000Z</time>
      </trkpt>
      <trkpt lat="42.9752680" lon="-1.6855920">
        <ele>521.885986</ele>
        <time>2019-05-02T10:02:38.000Z</time>
      </trkpt>
      <trkpt lat="42.9752980" lon="-1.6856390">
        <ele>521.851990</ele>
        <time>2019-05-02T10:02:39.000Z</time>
      </trkpt>
      <trkpt lat="42.9753220" lon="-1.6856930">
        <ele>521.852966</ele>
        <time>2019-05-02T10:02:40.000Z</time>
      </trkpt>
      <trkpt lat="42.9753700" lon="-1.6857830">
        <ele>521.807983</ele>
        <time>2019-05-02T10:02:42.000Z</time>
      </trkpt>
      <trkpt lat="42.9754260" lon="-1.6858980">
        <ele>521.807983</ele>
        <time>2019-05-02T10:02:44.000Z</time>
      </trkpt>
      <trkpt lat="42.9754750" lon="-1.6859570">
        <ele>521.838013</ele>
        <time>2019-05-02T10:02:45.000Z</time>
      </trkpt>
      <trkpt lat="42.9755320" lon="-1.6860330">
        <ele>521.880005</ele>
        <time>2019-05-02T10:02:47.000Z</time>
      </trkpt>
      <trkpt lat="42.9755700" lon="-1.6860750">
        <ele>521.794006</ele>
        <time>2019-05-02T10:02:48.000Z</time>
      </trkpt>
      <trkpt lat="42.9756210" lon="-1.6861170">
        <ele>521.721008</ele>
        <time>2019-05-02T10:02:49.000Z</time>
      </trkpt>
      <trkpt lat="42.9757040" lon="-1.6861680">
        <ele>521.657959</ele>
        <time>2019-05-02T10:02:51.000Z</time>
      </trkpt>
      <trkpt lat="42.9757780" lon="-1.6861550">
        <ele>521.434998</ele>
        <time>2019-05-02T10:02:53.000Z</time>
      </trkpt>
      <trkpt lat="42.9758420" lon="-1.6861560">
        <ele>521.582031</ele>
        <time>2019-05-02T10:02:55.000Z</time>
      </trkpt>
      <trkpt lat="42.9759100" lon="-1.6861760">
        <ele>521.880005</ele>
        <time>2019-05-02T10:02:57.000Z</time>
      </trkpt>
      <trkpt lat="42.9759780" lon="-1.6861860">
        <ele>522.156982</ele>
        <time>2019-05-02T10:02:59.000Z</time>
      </trkpt>
      <trkpt lat="42.9760480" lon="-1.6861860">
        <ele>522.200012</ele>
        <time>2019-05-02T10:03:01.000Z</time>
      </trkpt>
      <trkpt lat="42.9761080" lon="-1.6862190">
        <ele>522.219971</ele>
        <time>2019-05-02T10:03:03.000Z</time>
      </trkpt>
      <trkpt lat="42.9761570" lon="-1.6862860">
        <ele>522.208008</ele>
        <time>2019-05-02T10:03:05.000Z</time>
      </trkpt>
      <trkpt lat="42.9762140" lon="-1.6863550">
        <ele>522.278015</ele>
        <time>2019-05-02T10:03:07.000Z</time>
      </trkpt>
      <trkpt lat="42.9762680" lon="-1.6864170">
        <ele>522.349976</ele>
        <time>2019-05-02T10:03:09.000Z</time>
      </trkpt>
      <trkpt lat="42.9763240" lon="-1.6864780">
        <ele>522.434021</ele>
        <time>2019-05-02T10:03:11.000Z</time>
      </trkpt>
      <trkpt lat="42.9763650" lon="-1.6865560">
        <ele>522.591003</ele>
        <time>2019-05-02T10:03:13.000Z</time>
      </trkpt>
      <trkpt lat="42.9764170" lon="-1.6866630">
        <ele>522.538025</ele>
        <time>2019-05-02T10:03:15.000Z</time>
      </trkpt>
      <trkpt lat="42.9764420" lon="-1.6867160">
        <ele>522.434998</ele>
        <time>2019-05-02T10:03:16.000Z</time>
      </trkpt>
      <trkpt lat="42.9764600" lon="-1.6867790">
        <ele>522.351990</ele>
        <time>2019-05-02T10:03:17.000Z</time>
      </trkpt>
      <trkpt lat="42.9764880" lon="-1.6869050">
        <ele>522.079956</ele>
        <time>2019-05-02T10:03:19.000Z</time>
      </trkpt>
      <trkpt lat="42.9765060" lon="-1.6869700">
        <ele>522.054016</ele>
        <time>2019-05-02T10:03:20.000Z</time>
      </trkpt>
      <trkpt lat="42.9765450" lon="-1.6870710">
        <ele>521.955994</ele>
        <time>2019-05-02T10:03:22.000Z</time>
      </trkpt>
      <trkpt lat="42.9765840" lon="-1.6871390">
        <ele>522.310974</ele>
        <time>2019-05-02T10:03:25.000Z</time>
      </trkpt>
      <trkpt lat="42.9765970" lon="-1.6872030">
        <ele>523.307983</ele>
        <time>2019-05-02T10:03:34.000Z</time>
      </trkpt>
      <trkpt lat="42.9765830" lon="-1.6872720">
        <ele>522.947998</ele>
        <time>2019-05-02T10:03:39.000Z</time>
      </trkpt>
      <trkpt lat="42.9766310" lon="-1.6873520">
        <ele>522.669983</ele>
        <time>2019-05-02T10:03:42.000Z</time>
      </trkpt>
      <trkpt lat="42.9766510" lon="-1.6874380">
        <ele>522.833984</ele>
        <time>2019-05-02T10:03:45.000Z</time>
      </trkpt>
      <trkpt lat="42.9766630" lon="-1.6875270">
        <ele>523.820984</ele>
        <time>2019-05-02T10:03:48.000Z</time>
      </trkpt>
      <trkpt lat="42.9766540" lon="-1.6876020">
        <ele>524.747986</ele>
        <time>2019-05-02T10:03:51.000Z</time>
      </trkpt>
      <trkpt lat="42.9766330" lon="-1.6876760">
        <ele>525.674988</ele>
        <time>2019-05-02T10:03:54.000Z</time>
      </trkpt>
      <trkpt lat="42.9765890" lon="-1.6877200">
        <ele>526.221985</ele>
        <time>2019-05-02T10:03:56.000Z</time>
      </trkpt>
      <trkpt lat="42.9765580" lon="-1.6877710">
        <ele>526.829956</ele>
        <time>2019-05-02T10:03:58.000Z</time>
      </trkpt>
      <trkpt lat="42.9765110" lon="-1.6878090">
        <ele>527.882019</ele>
        <time>2019-05-02T10:04:00.000Z</time>
      </trkpt>
      <trkpt lat="42.9764620" lon="-1.6878440">
        <ele>528.442993</ele>
        <time>2019-05-02T10:04:02.000Z</time>
      </trkpt>
      <trkpt lat="42.9764070" lon="-1.6878650">
        <ele>528.817017</ele>
        <time>2019-05-02T10:04:04.000Z</time>
      </trkpt>
      <trkpt lat="42.9763550" lon="-1.6878710">
        <ele>529.007996</ele>
        <time>2019-05-02T10:04:06.000Z</time>
      </trkpt>
      <trkpt lat="42.9763010" lon="-1.6878720">
        <ele>529.231018</ele>
        <time>2019-05-02T10:04:08.000Z</time>
      </trkpt>
      <trkpt lat="42.9762350" lon="-1.6878730">
        <ele>529.492981</ele>
        <time>2019-05-02T10:04:10.000Z</time>
      </trkpt>
      <trkpt lat="42.9761600" lon="-1.6878830">
        <ele>529.756958</ele>
        <time>2019-05-02T10:04:12.000Z</time>
      </trkpt>
      <trkpt lat="42.9760890" lon="-1.6878770">
        <ele>530.323975</ele>
        <time>2019-05-02T10:04:14.000Z</time>
      </trkpt>
      <trkpt lat="42.9760200" lon="-1.6878670">
        <ele>530.761047</ele>
        <time>2019-05-02T10:04:16.000Z</time>
      </trkpt>
      <trkpt lat="42.9759460" lon="-1.6878950">
        <ele>531.148010</ele>
        <time>2019-05-02T10:04:18.000Z</time>
      </trkpt>
      <trkpt lat="42.9758750" lon="-1.6878930">
        <ele>531.575012</ele>
        <time>2019-05-02T10:04:20.000Z</time>
      </trkpt>
      <trkpt lat="42.9757990" lon="-1.6879080">
        <ele>531.872986</ele>
        <time>2019-05-02T10:04:22.000Z</time>
      </trkpt>
      <trkpt lat="42.9757200" lon="-1.6879080">
        <ele>532.117981</ele>
        <time>2019-05-02T10:04:24.000Z</time>
      </trkpt>
      <trkpt lat="42.9756740" lon="-1.6879150">
        <ele>532.297974</ele>
        <time>2019-05-02T10:04:25.000Z</time>
      </trkpt>
      <trkpt lat="42.9755880" lon="-1.6879140">
        <ele>532.716980</ele>
        <time>2019-05-02T10:04:27.000Z</time>
      </trkpt>
      <trkpt lat="42.9755090" lon="-1.6879320">
        <ele>533.007996</ele>
        <time>2019-05-02T10:04:29.000Z</time>
      </trkpt>
      <trkpt lat="42.9754410" lon="-1.6879350">
        <ele>533.453979</ele>
        <time>2019-05-02T10:04:31.000Z</time>
      </trkpt>
      <trkpt lat="42.9753860" lon="-1.6879200">
        <ele>534.085999</ele>
        <time>2019-05-02T10:04:33.000Z</time>
      </trkpt>
      <trkpt lat="42.9753380" lon="-1.6879200">
        <ele>534.690002</ele>
        <time>2019-05-02T10:04:35.000Z</time>
      </trkpt>
      <trkpt lat="42.9752860" lon="-1.6879020">
        <ele>535.127014</ele>
        <time>2019-05-02T10:04:37.000Z</time>
      </trkpt>
      <trkpt lat="42.9752410" lon="-1.6879400">
        <ele>535.713989</ele>
        <time>2019-05-02T10:04:39.000Z</time>
      </trkpt>
      <trkpt lat="42.9751940" lon="-1.6879040">
        <ele>536.051025</ele>
        <time>2019-05-02T10:04:42.000Z</time>
      </trkpt>
      <trkpt lat="42.9751380" lon="-1.6878670">
        <ele>536.177979</ele>
        <time>2019-05-02T10:04:45.000Z</time>
      </trkpt>
      <trkpt lat="42.9750520" lon="-1.6878630">
        <ele>536.195984</ele>
        <time>2019-05-02T10:04:48.000Z</time>
      </trkpt>
      <trkpt lat="42.9750000" lon="-1.6878550">
        <ele>536.184998</ele>
        <time>2019-05-02T10:04:49.000Z</time>
      </trkpt>
      <trkpt lat="42.9749390" lon="-1.6878430">
        <ele>536.189026</ele>
        <time>2019-05-02T10:04:50.000Z</time>
      </trkpt>
      <trkpt lat="42.9748900" lon="-1.6878290">
        <ele>536.117004</ele>
        <time>2019-05-02T10:04:51.000Z</time>
      </trkpt>
      <trkpt lat="42.9748450" lon="-1.6878190">
        <ele>536.108032</ele>
        <time>2019-05-02T10:04:52.000Z</time>
      </trkpt>
      <trkpt lat="42.9747860" lon="-1.6878090">
        <ele>536.191040</ele>
        <time>2019-05-02T10:04:53.000Z</time>
      </trkpt>
      <trkpt lat="42.9747330" lon="-1.6878320">
        <ele>536.062988</ele>
        <time>2019-05-02T10:04:54.000Z</time>
      </trkpt>
      <trkpt lat="42.9746820" lon="-1.6878260">
        <ele>536.067017</ele>
        <time>2019-05-02T10:04:55.000Z</time>
      </trkpt>
      <trkpt lat="42.9746240" lon="-1.6878550">
        <ele>536.033997</ele>
        <time>2019-05-02T10:04:56.000Z</time>
      </trkpt>
      <trkpt lat="42.9745760" lon="-1.6878560">
        <ele>536.061035</ele>
        <time>2019-05-02T10:04:57.000Z</time>
      </trkpt>
      <trkpt lat="42.9745300" lon="-1.6878490">
        <ele>536.047974</ele>
        <time>2019-05-02T10:04:58.000Z</time>
      </trkpt>
      <trkpt lat="42.9744800" lon="-1.6878390">
        <ele>536.034973</ele>
        <time>2019-05-02T10:04:59.000Z</time>
      </trkpt>
      <trkpt lat="42.9743930" lon="-1.6878350">
        <ele>536.053040</ele>
        <time>2019-05-02T10:05:01.000Z</time>
      </trkpt>
      <trkpt lat="42.9742980" lon="-1.6878460">
        <ele>535.981995</ele>
        <time>2019-05-02T10:05:03.000Z</time>
      </trkpt>
      <trkpt lat="42.9742420" lon="-1.6878700">
        <ele>535.843018</ele>
        <time>2019-05-02T10:05:04.000Z</time>
      </trkpt>
      <trkpt lat="42.9741840" lon="-1.6878790">
        <ele>535.617004</ele>
        <time>2019-05-02T10:05:05.000Z</time>
      </trkpt>
      <trkpt lat="42.9741270" lon="-1.6878720">
        <ele>535.407959</ele>
        <time>2019-05-02T10:05:06.000Z</time>
      </trkpt>
      <trkpt lat="42.9740690" lon="-1.6878770">
        <ele>535.190979</ele>
        <time>2019-05-02T10:05:07.000Z</time>
      </trkpt>
      <trkpt lat="42.9740110" lon="-1.6878900">
        <ele>535.023010</ele>
        <time>2019-05-02T10:05:08.000Z</time>
      </trkpt>
      <trkpt lat="42.9739510" lon="-1.6879000">
        <ele>534.957031</ele>
        <time>2019-05-02T10:05:09.000Z</time>
      </trkpt>
      <trkpt lat="42.9738970" lon="-1.6879130">
        <ele>534.874023</ele>
        <time>2019-05-02T10:05:10.000Z</time>
      </trkpt>
      <trkpt lat="42.9738400" lon="-1.6879230">
        <ele>534.721008</ele>
        <time>2019-05-02T10:05:11.000Z</time>
      </trkpt>
      <trkpt lat="42.9737810" lon="-1.6879280">
        <ele>534.638000</ele>
        <time>2019-05-02T10:05:12.000Z</time>
      </trkpt>
      <trkpt lat="42.9737240" lon="-1.6879340">
        <ele>534.644958</ele>
        <time>2019-05-02T10:05:13.000Z</time>
      </trkpt>
      <trkpt lat="42.9736620" lon="-1.6879270">
        <ele>534.672974</ele>
        <time>2019-05-02T10:05:14.000Z</time>
      </trkpt>
      <trkpt lat="42.9736020" lon="-1.6879300">
        <ele>534.596985</ele>
        <time>2019-05-02T10:05:15.000Z</time>
      </trkpt>
      <trkpt lat="42.9735440" lon="-1.6879370">
        <ele>534.423035</ele>
        <time>2019-05-02T10:05:16.000Z</time>
      </trkpt>
      <trkpt lat="42.9734880" lon="-1.6879460">
        <ele>534.325012</ele>
        <time>2019-05-02T10:05:17.000Z</time>
      </trkpt>
      <trkpt lat="42.9734330" lon="-1.6879560">
        <ele>534.108032</ele>
        <time>2019-05-02T10:05:18.000Z</time>
      </trkpt>
      <trkpt lat="42.9733790" lon="-1.6879690">
        <ele>534.062012</ele>
        <time>2019-05-02T10:05:19.000Z</time>
      </trkpt>
      <trkpt lat="42.9733200" lon="-1.6879680">
        <ele>533.893982</ele>
        <time>2019-05-02T10:05:20.000Z</time>
      </trkpt>
      <trkpt lat="42.9732590" lon="-1.6880070">
        <ele>533.757996</ele>
        <time>2019-05-02T10:05:21.000Z</time>
      </trkpt>
      <trkpt lat="42.9732000" lon="-1.6880220">
        <ele>533.734985</ele>
        <time>2019-05-02T10:05:22.000Z</time>
      </trkpt>
      <trkpt lat="42.9731420" lon="-1.6880110">
        <ele>533.541992</ele>
        <time>2019-05-02T10:05:23.000Z</time>
      </trkpt>
      <trkpt lat="42.9730830" lon="-1.6880070">
        <ele>533.438965</ele>
        <time>2019-05-02T10:05:24.000Z</time>
      </trkpt>
      <trkpt lat="42.9730220" lon="-1.6880190">
        <ele>533.495972</ele>
        <time>2019-05-02T10:05:25.000Z</time>
      </trkpt>
      <trkpt lat="42.9729600" lon="-1.6880390">
        <ele>533.383972</ele>
        <time>2019-05-02T10:05:26.000Z</time>
      </trkpt>
      <trkpt lat="42.9728990" lon="-1.6880480">
        <ele>533.168030</ele>
        <time>2019-05-02T10:05:27.000Z</time>
      </trkpt>
      <trkpt lat="42.9728350" lon="-1.6880610">
        <ele>533.041992</ele>
        <time>2019-05-02T10:05:28.000Z</time>
      </trkpt>
      <trkpt lat="42.9727700" lon="-1.6880740">
        <ele>532.825989</ele>
        <time>2019-05-02T10:05:29.000Z</time>
      </trkpt>
      <trkpt lat="42.9727070" lon="-1.6880720">
        <ele>532.608032</ele>
        <time>2019-05-02T10:05:30.000Z</time>
      </trkpt>
      <trkpt lat="42.9726390" lon="-1.6880680">
        <ele>532.419006</ele>
        <time>2019-05-02T10:05:31.000Z</time>
      </trkpt>
      <trkpt lat="42.9725710" lon="-1.6880790">
        <ele>532.121033</ele>
        <time>2019-05-02T10:05:32.000Z</time>
      </trkpt>
      <trkpt lat="42.9725070" lon="-1.6880710">
        <ele>531.755005</ele>
        <time>2019-05-02T10:05:33.000Z</time>
      </trkpt>
      <trkpt lat="42.9724420" lon="-1.6880760">
        <ele>531.531982</ele>
        <time>2019-05-02T10:05:34.000Z</time>
      </trkpt>
      <trkpt lat="42.9723770" lon="-1.6880910">
        <ele>531.239014</ele>
        <time>2019-05-02T10:05:35.000Z</time>
      </trkpt>
      <trkpt lat="42.9723120" lon="-1.6881050">
        <ele>531.045959</ele>
        <time>2019-05-02T10:05:36.000Z</time>
      </trkpt>
      <trkpt lat="42.9722450" lon="-1.6881140">
        <ele>530.833008</ele>
        <time>2019-05-02T10:05:37.000Z</time>
      </trkpt>
      <trkpt lat="42.9721780" lon="-1.6881250">
        <ele>530.640991</ele>
        <time>2019-05-02T10:05:38.000Z</time>
      </trkpt>
      <trkpt lat="42.9721110" lon="-1.6881380">
        <ele>530.484009</ele>
        <time>2019-05-02T10:05:39.000Z</time>
      </trkpt>
      <trkpt lat="42.9720430" lon="-1.6881580">
        <ele>530.207031</ele>
        <time>2019-05-02T10:05:40.000Z</time>
      </trkpt>
      <trkpt lat="42.9719750" lon="-1.6881710">
        <ele>530.117004</ele>
        <time>2019-05-02T10:05:41.000Z</time>
      </trkpt>
      <trkpt lat="42.9719090" lon="-1.6881840">
        <ele>529.908020</ele>
        <time>2019-05-02T10:05:42.000Z</time>
      </trkpt>
      <trkpt lat="42.9718450" lon="-1.6881760">
        <ele>529.731018</ele>
        <time>2019-05-02T10:05:43.000Z</time>
      </trkpt>
      <trkpt lat="42.9717800" lon="-1.6881780">
        <ele>529.533020</ele>
        <time>2019-05-02T10:05:44.000Z</time>
      </trkpt>
      <trkpt lat="42.9717140" lon="-1.6881830">
        <ele>529.497009</ele>
        <time>2019-05-02T10:05:45.000Z</time>
      </trkpt>
      <trkpt lat="42.9716480" lon="-1.6881810">
        <ele>529.354004</ele>
        <time>2019-05-02T10:05:46.000Z</time>
      </trkpt>
      <trkpt lat="42.9715820" lon="-1.6881780">
        <ele>529.270996</ele>
        <time>2019-05-02T10:05:47.000Z</time>
      </trkpt>
      <trkpt lat="42.9715170" lon="-1.6881570">
        <ele>529.117981</ele>
        <time>2019-05-02T10:05:48.000Z</time>
      </trkpt>
      <trkpt lat="42.9714520" lon="-1.6881340">
        <ele>529.015015</ele>
        <time>2019-05-02T10:05:49.000Z</time>
      </trkpt>
      <trkpt lat="42.9713870" lon="-1.6881140">
        <ele>528.893005</ele>
        <time>2019-05-02T10:05:50.000Z</time>
      </trkpt>
      <trkpt lat="42.9713230" lon="-1.6880910">
        <ele>528.723999</ele>
        <time>2019-05-02T10:05:51.000Z</time>
      </trkpt>
      <trkpt lat="42.9712580" lon="-1.6880750">
        <ele>528.604004</ele>
        <time>2019-05-02T10:05:52.000Z</time>
      </trkpt>
      <trkpt lat="42.9711920" lon="-1.6880660">
        <ele>528.514038</ele>
        <time>2019-05-02T10:05:53.000Z</time>
      </trkpt>
      <trkpt lat="42.9711270" lon="-1.6880440">
        <ele>528.307983</ele>
        <time>2019-05-02T10:05:54.000Z</time>
      </trkpt>
    </trkseg>
  </trk>
</gpx>
